[[{"header":{"parameterUnit":"m.s-1","parameterCategory":1,"la1":30.6,"la2":28.766,"lo1":-90.7593,"lo2":-88.6598,"dy":0.0162,"dx":0.0183,"nx":116,"ny":114,"refTime":"2023-08-30T06:00:00:Z","depth":0,"parameterNumber":2,"parameterNumberName":"U-component_of_WINDS"},"data":[0.0,0.0,0.0,0.0,0.0,0.0,0.0,0.0,0.0,0.0,0.0,0.0,0.0,0.0,0.0,0.0,0.0,0.0,0.0,0.0,0.0,0.0,0.0,0.0,0.0,0.0,0.0,0.0,0.0,0.0,0.0,0.0,0.0,0.0,0.0,0.0,0.0,0.0,0.0,0.0,0.0,0.0,0.0,0.0,0.0,0.0,0.0,0.0,0.0,0.0,0.0,0.0,0.0,0.0,0.0,0.0,0.0,0.0,0.0,0.0,0.0,0.0,0.0,0.0,0.0,0.0,0.0,0.0,0.0,0.0,0.0,0.0,0.0,0.0,0.0,0.0,0.0,0.0,0.0,0.0,0.0,0.0,0.0,0.0,0.0,0.0,0.0,0.0,0.0,0.0,0.0,0.0,0.0,0.0,0.0,0.0,0.0,0.0,0.0,0.0,0.0,0.0,0.0,0.0,0.0,0.0,0.0,0.0,0.0,0.0,0.0,0.0,0.0,0.0,0.0,0.0,0.0,0.0,0.0,0.0,0.0,0.0,0.0,0.0,0.0,0.0,0.0,0.0,0.0,0.0,0.0,0.0,0.0,0.0,0.0,0.0,0.0,0.0,0.0,0.0,0.0,0.0,0.0,0.0,0.0,0.0,0.0,0.0,0.0,0.0,0.0,0.0,0.0,0.0,0.0,0.0,0.0,0.0,0.0,0.0,0.0,0.0,0.0,0.0,0.0,0.0,0.0,0.0,0.0,0.0,0.0,0.0,0.0,0.0,0.0,0.0,0.0,0.0,0.0,0.0,0.0,0.0,0.0,0.0,0.0,0.0,0.0,0.0,0.0,0.0,0.0,0.0,0.0,0.0,0.0,0.0,0.0,0.0,0.0,0.0,0.0,0.0,0.0,0.0,0.0,0.0,0.0,0.0,0.0,0.0,0.0,0.0,0.0,0.0,0.0,0.0,0.0,0.0,0.0,0.0,0.0,0.0,0.0,0.0,0.0,0.0,0.0,0.0,0.0,0.0,0.0,0.0,0.0,0.0,0.0,0.0,0.0,0.0,0.0,0.0,0.0,0.0,0.0,0.0,0.0,0.0,0.0,0.0,0.0,0.0,0.0,0.0,0.0,0.0,0.0,0.0,0.0,0.0,0.0,0.0,0.0,0.0,0.0,0.0,0.0,0.0,0.0,0.0,0.0,0.0,0.0,0.0,0.0,0.0,0.0,0.0,0.0,0.0,0.0,0.0,0.0,0.0,0.0,0.0,0.0,0.0,0.0,0.0,0.0,0.0,0.0,0.0,0.0,0.0,0.0,0.0,0.0,0.0,0.0,0.0,0.0,0.0,0.0,0.0,0.0,0.0,0.0,0.0,0.0,0.0,0.0,0.0,0.0,0.0,0.0,0.0,0.0,0.0,0.0,0.0,0.0,0.0,0.0,0.0,0.0,0.0,0.0,0.0,0.0,0.0,0.0,0.0,0.0,0.0,0.0,0.0,0.0,0.0,0.0,0.0,0.0,0.0,0.0,0.0,0.0,0.0,0.0,0.0,0.0,0.0,0.0,0.0,0.0,0.0,0.0,0.0,0.0,0.0,0.0,0.0,0.0,0.0,0.0,0.0,0.0,0.0,0.0,0.0,0.0,0.0,0.0,0.0,0.0,0.0,0.0,0.0,0.0,0.0,0.0,0.0,0.0,0.0,0.0,0.0,0.0,0.0,0.0,0.0,0.0,0.0,0.0,0.0,0.0,0.0,0.0,0.0,0.0,0.0,0.0,0.0,0.0,0.0,0.0,0.0,0.0,0.0,0.0,0.0,0.0,0.0,0.0,0.0,0.0,0.0,0.0,0.0,0.0,0.0,0.0,0.0,0.0,0.0,0.0,0.0,0.0,0.0,0.0,0.0,0.0,0.0,0.0,0.0,0.0,0.0,0.0,0.0,0.0,0.0,0.0,0.0,0.0,0.0,0.0,0.0,0.0,0.0,0.0,0.0,0.0,0.0,0.0,0.0,0.0,0.0,0.0,0.0,0.0,0.0,0.0,0.0,0.0,0.0,0.0,0.0,0.0,0.0,0.0,0.0,0.0,0.0,0.0,0.0,0.0,0.0,0.0,0.0,0.0,0.0,0.0,0.0,0.0,0.0,0.0,0.0,0.0,0.0,0.0,0.0,0.0,0.0,0.0,0.0,0.0,0.0,0.0,0.0,0.0,0.0,0.0,0.0,0.0,0.0,0.0,0.0,0.0,0.0,0.0,0.0,0.0,0.0,0.0,0.0,0.0,0.0,0.0,0.0,0.0,0.0,0.0,0.0,0.0,0.0,0.0,0.0,0.0,0.0,0.0,0.0,0.0,0.0,0.0,0.0,0.0,0.0,0.0,0.0,0.0,0.0,0.0,0.0,0.0,0.0,0.0,0.0,0.0,0.0,0.0,0.0,0.0,0.0,0.0,0.0,0.0,0.0,0.0,0.0,0.0,0.0,0.0,0.0,0.0,0.0,0.0,0.0,0.0,0.0,0.0,0.0,0.0,0.0,0.0,0.0,0.0,0.0,0.0,0.0,0.0,0.0,0.0,0.0,0.0,0.0,0.0,0.0,0.0,0.0,0.0,0.0,0.0,0.0,0.0,0.0,0.0,0.0,0.0,0.0,0.0,0.0,0.0,0.0,0.0,0.0,0.0,0.0,0.0,0.0,0.0,0.0,0.0,0.0,0.0,0.0,0.0,0.0,0.0,0.0,0.0,0.0,0.0,0.0,0.0,0.0,0.0,0.0,0.0,0.0,0.0,0.0,0.0,0.0,0.0,0.0,0.0,0.0,0.0,0.0,0.0,0.0,0.0,0.0,0.0,0.0,0.0,0.0,0.0,0.0,0.0,0.0,0.0,0.0,0.0,0.0,0.0,0.0,0.0,0.0,0.0,0.0,0.0,0.0,0.0,0.0,0.0,0.0,0.0,0.0,0.0,0.0,0.0,0.0,0.0,0.0,0.0,0.0,0.0,0.0,0.0,0.0,0.0,0.0,0.0,0.0,0.0,0.0,0.0,0.0,0.0,0.0,0.0,0.0,0.0,0.0,0.0,0.0,0.0,0.0,0.0,0.0,0.0,0.0,0.0,0.0,0.0,0.0,0.0,0.0,0.0,0.0,0.0,0.0,0.0,0.0,0.0,0.0,0.0,0.0,0.0,0.0,0.0,0.0,0.0,0.0,0.0,0.0,0.0,0.0,0.0,0.0,0.0,0.0,0.0,0.0,0.0,0.0,0.0,0.0,0.0,0.0,0.0,0.0,0.0,0.0,0.0,0.0,0.0,0.0,0.0,0.0,0.0,0.0,0.0,0.0,0.0,0.0,0.0,0.0,0.0,0.0,0.0,0.0,0.0,0.0,0.0,0.0,0.0,0.0,0.0,0.0,0.0,0.0,0.0,0.0,0.0,0.0,0.0,0.0,0.0,0.0,0.0,0.0,0.0,0.0,0.0,0.0,0.0,0.0,0.0,0.0,0.0,0.0,0.0,0.0,0.0,0.0,0.0,0.0,0.0,0.0,0.0,0.0,0.0,0.0,0.0,0.0,0.0,0.0,0.0,0.0,0.0,0.0,0.0,0.0,0.0,0.0,0.0,0.0,0.0,0.0,0.0,0.0,0.0,0.0,0.0,0.0,0.0,0.0,0.0,0.0,0.0,0.0,0.0,0.0,0.0,0.0,0.0,0.0,0.0,0.0,0.0,0.0,0.0,0.0,0.0,0.0,0.0,0.0,0.0,0.0,0.0,0.0,0.0,0.0,0.0,0.0,0.0,0.0,0.0,0.0,0.0,0.0,0.0,0.0,0.0,0.0,0.0,0.0,0.0,0.0,0.0,0.0,0.0,0.0,0.0,0.0,0.0,0.0,0.0,0.0,0.0,0.0,0.0,0.0,0.0,0.0,0.0,0.0,0.0,0.0,0.0,0.0,0.0,0.0,0.0,0.0,0.0,0.0,0.0,0.0,0.0,0.0,0.0,0.0,0.0,0.0,0.0,0.0,0.0,0.0,0.0,0.0,0.0,0.0,0.0,0.0,0.0,0.0,0.0,0.0,0.0,0.0,0.0,0.0,0.0,0.0,0.0,0.0,0.0,0.0,0.0,0.0,0.0,0.0,0.0,0.0,0.0,0.0,0.0,0.0,0.0,0.0,0.0,0.0,0.0,0.0,0.0,0.0,0.0,0.0,0.0,0.0,0.0,0.0,0.0,0.0,0.0,0.0,0.0,0.0,0.0,0.0,0.0,0.0,0.0,0.0,0.0,0.0,0.0,0.0,0.0,0.0,0.0,0.0,0.0,0.0,0.0,0.0,0.0,0.0,0.0,0.0,0.0,0.0,0.0,0.0,0.0,0.0,0.0,0.0,0.0,0.0,0.0,0.0,0.0,0.0,0.0,0.0,0.0,0.0,0.0,0.0,0.0,0.0,0.0,0.0,0.0,0.0,0.0,0.0,0.0,0.0,0.0,0.0,0.0,0.0,0.0,0.0,0.0,0.0,0.0,0.0,0.0,0.0,0.0,0.0,0.0,0.0,0.0,0.0,0.0,0.0,0.0,0.0,0.0,0.0,0.0,0.0,0.0,0.0,0.0,0.0,0.0,0.0,0.0,0.0,0.0,0.0,0.0,0.0,0.0,0.0,0.0,0.0,0.0,0.0,0.0,0.0,0.0,0.0,0.0,0.0,0.0,0.0,0.0,0.0,0.0,0.0,0.0,0.0,0.0,0.0,0.0,0.0,0.0,0.0,0.0,0.0,0.0,0.0,0.0,0.0,0.0,0.0,0.0,0.0,0.0,0.0,0.0,0.0,0.0,0.0,0.0,0.0,0.0,0.0,0.0,0.0,0.0,0.0,0.0,0.0,0.0,0.0,0.0,0.0,0.0,0.0,0.0,0.0,0.0,0.0,0.0,0.0,0.0,0.0,0.0,0.0,0.0,0.0,0.0,0.0,0.0,0.0,0.0,0.0,0.0,0.0,0.0,0.0,0.0,0.0,0.0,0.0,0.0,0.0,0.0,0.0,0.0,0.0,0.0,0.0,0.0,0.0,0.0,0.0,0.0,0.0,0.0,0.0,0.0,0.0,0.0,0.0,0.0,0.0,0.0,0.0,0.0,0.0,0.0,0.0,0.0,0.0,0.0,0.0,0.0,0.0,0.0,0.0,0.0,0.0,0.0,0.0,0.0,0.0,0.0,0.0,0.0,0.0,0.0,0.0,0.0,0.0,0.0,0.0,0.0,0.0,0.0,0.0,0.0,0.0,0.0,0.0,0.0,0.0,0.0,0.0,0.0,0.0,0.0,0.0,0.0,0.0,0.0,0.0,0.0,0.0,0.0,0.0,0.0,0.0,0.0,0.0,0.0,0.0,0.0,0.0,0.0,0.0,0.0,0.0,0.0,0.0,0.0,0.0,0.0,0.0,0.0,0.0,0.0,0.0,0.0,0.0,0.0,0.0,0.0,0.0,0.0,0.0,0.0,0.0,0.0,0.0,0.0,0.0,0.0,0.0,0.0,0.0,0.0,0.0,0.0,0.0,0.0,0.0,0.0,0.0,0.0,0.0,0.0,0.0,0.0,0.0,0.0,0.0,0.0,0.0,0.0,0.0,0.0,0.0,0.0,0.0,0.0,0.0,0.0,0.0,0.0,0.0,0.0,0.0,0.0,0.0,0.0,0.0,0.0,0.0,0.0,0.0,0.0,0.0,0.0,0.0,0.0,0.0,0.0,0.0,0.0,0.0,0.0,0.0,0.0,0.0,0.0,0.0,0.0,0.0,0.0,0.0,0.0,0.0,0.0,0.0,0.0,0.0,0.0,0.0,0.0,0.0,0.0,0.0,0.0,0.0,0.0,0.0,0.0,0.0,0.0,0.0,0.0,0.0,0.0,0.0,0.0,0.0,0.0,0.0,0.0,0.0,0.0,0.0,0.0,0.0,0.0,0.0,0.0,0.0,0.0,0.0,0.0,0.0,0.0,0.0,0.0,0.0,0.0,0.0,0.0,0.0,0.0,0.0,0.0,0.0,0.0,0.0,0.0,0.0,0.0,0.0,0.0,0.0,0.0,0.0,0.0,0.0,0.0,0.0,0.0,0.0,0.0,0.0,-3.4474,-3.4463,0.0,0.0,0.0,0.0,0.0,0.0,0.0,0.0,0.0,0.0,0.0,0.0,0.0,0.0,0.0,0.0,0.0,0.0,0.0,0.0,0.0,0.0,0.0,0.0,0.0,0.0,0.0,0.0,0.0,0.0,0.0,0.0,0.0,0.0,0.0,0.0,0.0,1.4595,1.4108,1.3834,1.3765,1.5327,1.8368,2.2525,0.0,0.0,0.0,0.0,0.0,0.0,0.0,0.0,0.0,0.0,0.0,0.0,0.0,0.0,0.0,0.0,0.0,0.0,0.0,0.0,0.0,0.0,0.0,0.0,0.0,0.0,0.0,0.0,0.0,0.0,0.0,0.0,0.0,0.0,0.0,0.0,0.0,0.0,0.0,0.0,0.0,0.0,0.0,0.0,0.0,0.0,0.0,0.0,0.0,0.0,0.0,0.0,0.0,0.0,0.0,0.0,0.0,0.0,0.0,0.0,0.0,0.0,0.0,0.0,0.0,0.0,0.0,0.0,0.0,0.0,-3.6713,-3.6301,0.0,0.0,0.0,0.0,0.0,0.0,0.0,0.0,0.0,0.0,0.0,0.0,0.0,0.0,0.0,0.0,0.0,0.0,0.0,0.0,0.0,0.0,0.0,1.0779,0.9863,0.7955,0.7811,0.8635,0.0,0.0,0.0,0.0,0.0,0.0,1.3983,1.2291,1.1448,1.1348,0.9317,0.8673,0.9488,0.9434,1.1848,1.6558,2.0649,0.0,0.0,0.0,0.0,0.0,0.0,0.0,0.0,0.0,0.0,0.0,0.0,0.0,0.0,0.0,0.0,0.0,0.0,0.0,0.0,0.0,0.0,0.0,0.0,0.0,0.0,0.0,0.0,0.0,0.0,0.0,0.0,0.0,0.0,0.0,0.0,0.0,0.0,0.0,0.0,0.0,0.0,0.0,0.0,0.0,0.0,0.0,0.0,0.0,0.0,0.0,0.0,0.0,0.0,0.0,0.0,0.0,0.0,0.0,0.0,0.0,0.0,0.0,-4.0037,-4.0712,-4.1716,-4.1306,-4.115,-4.1047,-3.9135,-3.8695,-3.9165,-3.8407,0.0,0.0,0.0,0.0,0.0,0.0,0.0,0.0,0.0,0.0,0.0,0.0,0.0,0.0,0.0,0.0,0.0,0.0,0.0,0.0,0.0,0.8927,0.7429,0.4463,0.3435,0.3783,0.5885,0.0,0.0,0.0,0.0,0.0,0.9924,0.9216,0.6863,0.2814,0.0278,-0.1047,-0.1207,-0.1657,-0.2385,-0.2798,0.9398,1.4647,1.4176,0.0,0.0,0.0,0.0,0.0,0.0,0.0,0.0,0.0,0.0,0.0,0.0,0.0,0.0,0.0,0.0,0.0,0.0,0.0,0.0,0.0,0.0,0.0,0.0,0.0,0.0,0.0,0.0,0.0,0.0,0.0,0.0,0.0,0.0,0.0,0.0,0.0,0.0,0.0,0.0,0.0,-2.385,-2.5904,0.0,0.0,0.0,0.0,0.0,0.0,0.0,0.0,0.0,0.0,0.0,0.0,0.0,-3.9311,-3.9213,-4.05,-4.1098,-4.1001,-4.163,-4.2038,-4.2227,-4.214,-4.2104,-4.207,-4.1782,0.0,-3.9683,-4.0214,0.0,0.0,0.0,0.0,0.0,0.0,0.0,0.0,0.0,0.0,0.0,0.0,0.0,0.0,0.0,0.0,0.0,0.0,0.0,0.0,0.0,0.5945,0.408,0.1779,0.0478,0.076,0.3202,0.4617,0.0,0.0,0.0,0.8694,0.6629,0.4431,0.0723,-0.4485,-0.6824,-0.8064,-0.8267,-0.8935,-1.0234,-1.1766,-0.6922,-0.2622,0.0827,-0.0645,0.0,0.0,0.0,0.0,0.0,0.0,0.0,0.0,0.0,0.0,0.0,0.0,0.0,0.0,0.0,0.0,0.0,0.0,0.0,0.0,0.0,0.0,0.0,0.0,0.0,0.0,0.0,0.0,0.0,0.0,0.0,0.0,0.0,0.0,0.0,0.0,0.0,0.0,0.0,-2.143,-2.6071,-2.7059,-2.7236,-2.6903,0.0,0.0,0.0,0.0,0.0,0.0,0.0,0.0,0.0,-4.1313,-4.1035,-4.1199,-4.1908,-4.193,-4.1864,-4.1728,-4.1664,-4.1897,-4.2286,-4.2286,-4.2286,-4.2286,-4.2286,-4.163,-4.0521,-4.0502,-3.9744,-3.8707,0.0,0.0,0.0,0.0,-3.9032,-3.937,0.0,0.0,0.0,0.0,0.0,0.0,0.0,0.0,0.0,0.0,0.0,0.0,0.5354,0.3301,0.1341,-0.0851,-0.1646,-0.1244,0.0541,0.2142,0.3435,0.4184,0.4972,0.4683,0.3116,-0.214,-0.7198,-1.1906,-1.3875,-1.5147,-1.5683,-1.6948,-1.8513,-2.0428,-2.3193,-1.9532,-1.1378,-1.2883,-1.1973,-0.9471,0.0,0.0,0.0,0.0,0.0,0.0,0.0,0.0,0.0,0.0,0.0,0.0,0.0,0.0,0.0,0.0,0.0,0.0,0.0,0.0,0.0,0.0,0.0,0.0,0.0,0.0,0.0,0.0,0.0,0.0,0.0,0.0,0.0,0.0,0.0,0.0,0.0,-2.4682,-2.801,-2.8866,-2.986,-2.9859,0.0,0.0,0.0,0.0,0.0,0.0,-3.9316,-3.9284,-4.0617,-4.378,-4.2816,-4.2721,-4.3727,-4.2864,-4.2313,-4.2135,-4.1716,-4.1762,-4.2286,-4.2286,-4.2286,-4.2286,-4.2286,-4.188,-4.117,-4.0629,-4.0048,-3.9508,-3.9284,-3.9154,-3.9247,-4.016,-4.0505,-4.0735,0.0,0.0,0.0,0.0,0.0,0.0,0.0,0.0,0.0,0.0,0.0,0.7916,0.3266,0.1793,-0.0178,-0.3488,-0.2649,-0.2295,-0.3047,0.0,0.1893,0.195,0.2023,0.1078,-0.1055,-1.0929,-1.7461,-2.0205,-2.1599,-2.3207,-2.5152,-2.7598,-3.0057,-3.2722,-3.7424,-3.2084,-1.9742,-2.1651,-2.1187,-1.9036,-1.7078,0.0,0.0,0.0,0.0,0.0,0.0,0.0,0.0,0.0,0.0,0.0,0.0,0.0,0.0,0.0,0.0,0.0,0.0,0.0,0.0,0.0,0.0,0.0,0.0,0.0,0.0,0.0,0.0,0.0,0.0,0.0,0.0,0.0,0.0,0.0,0.0,0.0,0.0,-3.233,-3.3941,0.0,0.0,0.0,0.0,-3.5082,-3.6482,-3.8765,-4.2214,-4.176,-4.253,-4.4859,-4.4314,-4.3768,-4.3221,-4.3239,-4.2909,-4.2289,-4.2236,-4.2252,-4.2286,-4.2286,-4.2286,-4.2286,-4.2286,-4.188,-4.1204,-4.117,-4.029,-3.9149,-4.0106,-4.0076,-3.9597,-4.0682,-4.1515,-4.2194,0.0,0.0,0.0,0.0,0.0,0.0,0.0,0.0,1.1989,1.1215,0.8539,0.5405,0.1976,-0.0685,-0.3299,-0.5996,-0.5106,-0.4512,-0.4644,-0.2747,-0.1203,-0.0459,-0.0915,-0.4129,-1.0366,-1.8065,-2.3089,-2.5154,-2.68,-2.7977,-2.8664,-2.9847,-3.197,-3.4859,-3.7007,-3.5634,-3.1809,-3.3378,-3.2535,-2.993,-2.7681,-2.4654,0.0,0.0,0.0,0.0,0.0,0.0,0.0,0.0,0.0,0.0,0.0,0.0,0.0,0.0,0.0,0.0,0.0,0.0,0.0,0.0,0.0,0.0,0.0,0.0,0.0,0.0,0.0,0.0,0.0,0.0,0.0,0.0,0.0,0.0,0.0,0.0,0.0,-3.3604,-3.579,0.0,-3.5817,-3.545,-3.598,-3.777,-3.946,-4.1406,-4.3652,-4.3051,-4.343,-4.5134,-4.3724,-4.2802,-4.258,-4.2156,-4.158,-4.0865,-4.0865,-4.0865,-4.0865,-4.0865,-4.0865,-4.0865,-4.0865,-4.073,-4.0476,-4.0476,-4.0372,-4.0306,-4.1042,-4.1226,-4.1008,-4.1251,-4.1523,-4.1651,0.0,0.0,0.0,0.0,0.0,0.0,0.0,0.0,1.1058,1.0208,0.6966,0.3761,0.1294,-0.1864,-0.4391,-0.566,-0.5097,-0.4493,-0.4248,-0.2989,-0.1985,-0.1453,-0.4115,-0.9227,-1.7014,-2.2271,-2.5807,-2.7778,-2.8608,-2.9057,-2.9108,-3.0011,-3.1603,-3.3696,-3.5095,-3.6102,-3.6836,-3.7995,-3.7671,-3.6132,-3.3592,-3.1126,-2.8905,0.0,0.0,0.0,0.0,0.0,0.0,0.0,0.0,0.0,0.0,0.0,0.0,0.0,0.0,0.0,0.0,0.0,0.0,0.0,0.0,0.0,0.0,0.0,0.0,0.0,0.0,0.0,0.0,0.0,0.0,0.0,0.0,0.0,0.0,-3.1492,-3.4492,-3.5063,-3.7638,-3.8985,-3.7841,-3.7991,-3.8755,-4.0122,-4.146,-4.2804,-4.4331,-4.3699,-4.3677,-4.4595,-4.31,-4.2176,-4.1859,-4.1188,-4.0578,-4.007,-3.9833,-3.9731,-3.9679,-3.9454,-3.932,-3.931,-3.931,-3.9345,-3.9343,-3.9343,-3.9665,-4.0203,-4.0867,-4.0989,-4.0775,-4.0831,-4.0845,-4.0646,0.0,0.0,0.0,0.0,0.0,0.0,0.0,1.1121,0.9957,0.8467,0.5731,0.3189,0.1196,-0.1726,-0.3281,-0.274,-0.2271,-0.2077,-0.1955,-0.0793,-0.0494,-0.1337,-0.7569,-1.3984,-2.0312,-2.3272,-2.5798,-2.7987,-2.6874,-2.6512,-2.6788,-2.8526,-2.9489,-2.994,-3.2637,-3.3881,-3.3929,-3.4652,-3.5877,-3.7069,-3.4229,-3.2901,-3.2349,0.0,0.0,0.0,0.0,0.0,0.0,0.0,0.0,0.0,0.0,0.0,0.0,0.0,0.0,0.0,0.0,0.0,0.0,0.0,0.0,0.0,0.0,0.0,0.0,0.0,0.0,0.0,0.0,0.0,0.0,0.0,0.0,0.0,-3.0818,-3.373,-3.6094,-3.6986,-3.9636,-4.0963,-3.9834,-4.0419,-4.1316,-4.2177,-4.2306,-4.296,-4.4316,-4.3729,-4.3335,-4.3242,-4.2569,-4.188,-4.1118,-4.0443,-4.007,-4.002,-3.9262,-3.8854,-3.8854,-3.8149,-3.7778,-3.7781,-3.7817,-3.7868,-3.7891,-3.7922,-3.8179,-3.8729,-3.9448,-3.9336,-3.8764,-3.93,-3.9501,-3.9252,0.0,0.0,0.0,0.0,0.0,0.0,0.0,1.195,1.0848,0.9285,0.588,0.3264,0.2203,-0.0155,-0.1648,-0.1556,-0.0076,0.0291,-0.0959,-0.1698,-0.3748,-0.7423,-1.1614,-1.603,-2.0576,-2.3032,-2.4593,-2.5256,-2.3838,-2.3092,-2.3007,-2.3039,-2.3888,-2.5371,-2.5984,-2.7328,-2.9124,-2.8203,-2.9816,-3.2967,-3.3268,-3.3203,-3.2703,0.0,0.0,0.0,0.0,0.0,0.0,0.0,0.0,0.0,0.0,0.0,0.0,0.0,0.0,0.0,0.0,0.0,0.0,0.0,0.0,0.0,0.0,0.0,0.0,0.0,0.0,0.0,0.0,0.0,0.0,0.0,-3.1247,-3.2777,-3.3164,-3.6069,-3.8434,-3.9384,-4.0621,-4.1503,-4.1837,-4.1749,-4.2042,-4.2933,-4.3618,-4.3885,-4.3673,-4.2986,-4.2359,-4.1801,-4.107,-4.0355,-3.9561,-3.9309,-3.8978,-3.843,-3.8206,-3.8092,-3.8092,-3.7863,-3.7825,-3.777,-3.7817,-3.7807,-3.7816,-3.7898,-3.7644,-3.7416,-3.8553,-3.8868,-3.8599,-3.7696,-3.6986,-3.6484,0.0,0.0,0.0,0.0,0.0,0.0,0.0,1.2153,1.0861,0.8782,0.5922,0.3816,0.3021,0.1084,0.0218,0.1262,0.1992,0.2195,0.158,-0.1575,-0.5335,-0.9676,-1.3306,-1.6754,-1.9839,-2.1233,-2.1596,-2.0827,-1.9765,-1.8536,-1.7162,-1.7237,-1.7432,-1.7657,-1.7047,-1.7438,-1.843,-1.7183,-1.8258,-2.0877,-2.1892,-2.5621,-3.0473,-2.961,-2.9192,-2.9109,-2.9603,-3.048,-3.1514,-3.1834,0.0,0.0,0.0,0.0,0.0,0.0,0.0,0.0,0.0,0.0,0.0,0.0,0.0,0.0,0.0,0.0,0.0,0.0,0.0,0.0,0.0,0.0,0.0,0.0,-3.4095,-3.5589,-3.5889,-3.7812,-3.9445,-4.0293,-4.098,-4.149,-4.1675,-4.1532,-4.1677,-4.2239,-4.2535,-4.2656,-4.2523,-4.2066,-4.1491,-4.0747,-4.032,-3.9701,-3.8908,-3.858,-3.8246,-3.7822,-3.7456,-3.7279,-3.7263,-3.6698,-3.6401,-3.6421,-3.6102,-3.6002,-3.6062,-3.604,-3.5652,-3.5224,0.0,0.0,0.0,0.0,-3.5065,-3.4792,0.0,0.0,0.0,0.0,0.0,0.0,0.0,1.207,1.0555,0.7936,0.6195,0.4912,0.4096,0.2656,0.2603,0.4756,0.427,0.3933,0.4293,-0.0881,-0.564,-0.9311,-1.3116,-1.6042,-1.7947,-1.7999,-1.7089,-1.5346,-1.4619,-1.2926,-1.0198,-1.0889,-1.0212,-0.8392,-0.7262,-0.6276,-0.5349,-0.4517,-0.4624,-0.5366,-0.5694,-1.3536,-2.5035,-2.5044,-2.5116,-2.5465,-2.7282,-2.8965,-3.0636,-3.2205,0.0,0.0,0.0,0.0,0.0,0.0,0.0,0.0,0.0,0.0,0.0,0.0,0.0,0.0,0.0,0.0,0.0,0.0,0.0,0.0,0.0,0.0,0.0,0.0,-3.6716,-3.8302,-3.8377,-3.8856,-3.9469,-4.0202,-4.0741,-4.0846,-4.0337,-4.0399,-4.0575,-4.0753,-4.0323,-4.0348,-4.0908,-4.0961,0.0,0.0,0.0,-3.9424,-3.8559,-3.7906,-3.7472,-3.7292,-3.6642,-3.6338,-3.6184,-3.5059,-3.4439,-3.4349,-3.3785,-3.3521,-3.3594,-3.3535,-3.3112,-3.2626,-3.4459,-3.4762,-3.4081,-3.3524,-3.3512,-3.363,0.0,0.0,0.0,0.0,0.0,0.0,0.0,1.3186,1.1896,0.9753,0.8019,0.6826,0.6471,0.6574,0.6625,0.6518,0.7608,0.6479,0.209,-0.1272,-0.4807,-0.8546,-1.0701,-1.2468,-1.3851,-1.2867,-1.1579,-0.99,-0.792,-0.5976,-0.4081,-0.2995,-0.2272,-0.1788,-0.0501,0.0088,0.0211,0.1235,0.1216,0.0446,0.0232,-0.4631,-1.1865,-1.3092,-1.5904,-1.9408,-2.1221,-2.4925,-2.9161,-3.0231,-3.1991,-3.3771,-3.404,-3.4334,0.0,0.0,0.0,0.0,0.0,0.0,0.0,0.0,0.0,0.0,0.0,0.0,0.0,0.0,0.0,0.0,0.0,0.0,0.0,-3.5863,-3.6941,-3.7778,-3.8317,-3.8048,-3.8257,-3.9469,-3.923,-3.914,-3.9574,-3.9283,-3.9349,-3.99,-3.9957,-3.9839,-3.9405,-3.9356,-3.8991,-3.8294,-3.8221,-3.7604,-3.6236,-3.6076,-3.5471,-3.4334,-3.4695,0.0,-3.4105,-3.4355,-3.4222,-3.3668,-3.3587,-3.3525,-3.3505,-3.3559,-3.2867,-3.1742,-3.2175,-3.222,-3.2061,-3.2525,-3.2055,-3.123,0.0,0.0,0.0,0.0,0.0,0.0,0.0,1.3329,1.2051,0.9948,0.867,0.7671,0.6949,0.7529,0.7942,0.7839,0.8312,0.6749,0.2378,-0.0296,-0.3069,-0.6153,-0.7532,-0.8486,-0.9069,-0.7699,-0.6006,-0.3967,-0.208,0.0109,0.2554,0.3896,0.5344,0.6908,0.8676,1.0076,1.1125,1.2313,1.2576,1.214,1.1508,0.9046,0.4923,-0.2879,-0.7979,-1.1473,-1.5364,-1.9777,-2.4331,-2.7736,-3.0026,-3.1676,-3.3059,-3.3476,-3.3436,0.0,0.0,0.0,0.0,0.0,0.0,0.0,0.0,0.0,0.0,0.0,0.0,0.0,0.0,-3.0875,-3.2691,0.0,-3.5908,-3.7225,-3.7704,-3.8018,-3.8347,-3.7554,-3.7315,-3.8287,-3.8108,-3.8033,-3.8377,-3.7903,-3.7881,-3.8629,-3.8419,-3.8312,-3.835,-3.8318,-3.7998,-3.7351,-3.6917,-3.6193,-3.5186,-3.4772,-3.4213,-3.3499,-3.3829,-3.3612,-3.2882,-3.3285,-3.3106,-3.2338,-3.2477,-3.2338,-3.1926,-3.1365,-3.0649,-2.9886,-2.9312,-2.9641,-3.0461,-3.0819,-3.0315,-2.9508,0.0,0.0,0.0,0.0,0.0,0.0,0.0,1.3339,1.2184,1.0166,0.9409,0.8663,0.7538,0.8165,0.8816,0.9201,0.8218,0.6454,0.383,0.1499,-0.0752,-0.283,-0.3645,-0.3996,-0.3871,-0.2455,-0.0568,0.1797,0.3322,0.5646,0.8567,0.9883,1.1887,1.4519,1.6617,1.8817,2.0916,2.2037,2.2748,2.304,2.1876,2.102,1.9241,0.7678,0.106,-0.2819,-0.8736,-1.3672,-1.8228,-2.4107,-2.69,-2.8345,-3.0702,-3.131,-3.1128,-3.0888,-3.1212,0.0,0.0,0.0,0.0,0.0,0.0,0.0,0.0,-3.0357,-3.0236,-3.0822,-3.1257,-3.2155,-3.4126,-3.5465,-3.6645,-3.778,-3.7908,-3.7901,-3.7901,-3.6954,-3.6395,-3.6669,-3.6728,-3.6856,-3.721,-3.6507,-3.6415,-3.7336,-3.6769,-3.6692,-3.7294,-3.7354,-3.7022,-3.6353,-3.5711,-3.5058,-3.4272,-3.3442,-3.2971,-3.2852,-3.2847,-3.2368,-3.1575,-3.1904,-3.1506,-3.0635,-3.0793,-3.0708,-3.0223,-2.8936,-2.8342,-2.8097,-2.6898,-2.7348,-2.8677,-2.8812,-2.8402,-2.785,0.0,0.0,0.0,0.0,0.0,0.0,0.0,0.0,1.3436,1.1807,1.1583,1.1232,1.0427,1.0931,1.1277,1.1003,0.8911,0.7039,0.5778,0.3801,0.2277,0.1332,0.1163,0.1355,0.2012,0.2983,0.447,0.653,0.8474,1.059,1.2779,1.458,1.6103,1.7408,1.8971,2.0701,2.2484,2.2979,2.4335,2.5991,2.4503,2.3943,2.3729,2.0828,1.4337,0.5972,-0.011,-0.622,-1.2225,-1.7981,-2.189,-2.4551,-2.5664,-2.7117,-2.8296,-2.7164,-2.7418,-2.7762,-2.6198,-2.6836,-2.8449,-3.0788,-3.0333,-3.0283,0.0,-3.2465,-3.0851,-3.2138,-3.2777,-3.337,-3.4269,-3.498,-3.5662,-3.6317,-3.6305,-3.6201,-3.6201,-3.5849,-3.5347,-3.4448,-3.438,-3.4966,-3.6455,-3.5175,-3.4946,-3.6484,-3.5979,-3.5683,-3.5733,-3.5733,-3.548,-3.4785,-3.4645,-3.4044,-3.2751,-3.1863,-3.1203,-3.0681,-3.0453,-3.0043,-2.9414,-3.0015,-2.9624,-2.8563,-2.8655,-2.9119,-2.9579,-2.8233,-2.769,-2.7569,-2.6216,-2.5843,-2.609,-2.6638,-2.6457,-2.5969,0.0,0.0,0.0,0.0,0.0,0.0,0.0,0.0,0.0,1.3099,1.2575,1.2167,1.1748,1.2122,1.2157,1.1557,1.0038,0.8488,0.7001,0.6355,0.5758,0.5216,0.5955,0.6511,0.6818,0.797,0.9329,1.0863,1.2471,1.4204,1.6019,1.765,1.8933,1.9896,2.1311,2.2501,2.3504,2.4081,2.4861,2.5635,2.5346,2.4986,2.4534,2.3737,2.0146,1.4458,0.6898,0.0371,0.0,-1.2192,-1.6384,-1.9172,-2.0949,-2.2647,-2.3813,-2.2999,-2.4216,-2.5657,-2.4934,-2.5445,-2.6551,-2.784,-2.9137,-3.0486,-3.2117,-3.1378,-3.0804,-3.2286,-3.2668,-3.2935,-3.3762,-3.4679,-3.5424,-3.5659,-3.5362,-3.5026,-3.5026,-3.4328,-3.3685,-3.3241,-3.2678,-3.2846,-3.4125,-3.4117,-3.4278,-3.499,-3.4771,-3.4728,-3.4921,-3.4906,-3.4427,-3.3365,-3.3335,-3.2629,-3.1247,-3.0841,-3.033,-2.9566,-2.9442,-2.8995,-2.8233,-2.8716,-2.8504,-2.7631,-2.7383,-2.7453,-2.773,-2.6792,-2.6169,-2.5747,-2.4852,-2.4256,-2.4068,-2.547,-2.5362,-2.4523,0.0,0.0,0.0,0.0,0.0,0.0,0.0,0.0,0.0,0.0,1.3896,1.3579,1.3282,1.3273,1.2939,1.2064,1.0986,0.9742,0.8256,0.8725,0.8821,0.8404,0.985,1.0756,1.0927,1.19,1.3135,1.4614,1.5727,1.7022,1.8478,1.9817,2.0813,2.157,2.277,2.3591,2.4137,2.5064,2.5456,2.5532,2.6203,2.6075,2.5395,2.4787,2.3179,2.0172,1.1895,0.5774,0.049,-0.6557,-1.0802,-1.3493,-1.5635,-1.7533,-1.8927,-1.8449,-2.01,-2.2116,-2.2611,-2.3224,-2.3949,-2.4987,-2.717,-2.9143,-2.9393,-2.9235,-2.9349,-3.0451,-3.1018,-3.1487,-3.2199,-3.3359,-3.4373,-3.4456,-3.4068,-3.3758,-3.3935,-3.3147,-3.2536,-3.2249,-3.1815,-3.1683,-3.1829,-3.2526,-3.314,-3.3346,-3.3414,-3.3413,-3.3554,-3.3671,-3.3187,-3.1833,-3.1789,-3.1137,-2.9754,-2.9497,-2.8982,-2.8193,-2.794,-2.7586,-2.7144,-2.721,-2.6992,-2.6466,-2.5819,-2.5605,-2.5659,-2.5003,-2.4465,-2.4019,-2.3382,-2.2751,-2.2383,-2.3941,-2.3963,-2.3169,0.0,0.0,0.0,0.0,0.0,0.0,0.0,0.0,0.0,0.0,0.0,0.0,0.0,1.4882,1.4094,1.2851,1.1563,1.0452,0.9688,1.0725,1.1156,1.0605,1.2382,1.3693,1.436,1.4395,1.5476,1.7671,1.8214,1.9053,2.0156,2.1036,2.1674,2.2118,2.2934,2.3673,2.4379,2.5768,2.6469,2.6728,2.7584,2.7802,2.7455,2.5998,2.4274,2.1694,1.4378,0.9738,0.5977,-0.0917,-0.5211,-0.7902,-0.9361,-1.17,-1.3961,-1.3536,-1.4394,-1.6039,-1.8408,-1.9418,-2.0449,-2.3447,-2.4491,-2.5111,-2.6406,-2.6287,-2.5972,-2.5984,-2.758,-2.9032,-2.9032,-3.0417,-3.1669,-3.2198,-3.2212,-3.2262,-3.2751,-3.2705,-3.2249,-3.1315,-3.2033,-3.1829,-3.0075,-3.029,-3.0864,-3.1806,-3.1875,-3.1666,-3.1135,-3.1582,-3.136,-3.0137,-3.0095,-2.9525,-2.8269,-2.7449,-2.6741,-2.6184,-2.5345,-2.5199,-2.5665,-2.5149,-2.4717,-2.4363,-2.3755,-2.3582,-2.3715,-2.3053,-2.2776,-2.2693,-2.2021,-2.1425,-2.1042,-2.1578,-2.1799,-2.1866,0.0,0.0,0.0,0.0,0.0,0.0,0.0,0.0,0.0,0.0,0.0,0.0,0.0,0.0,0.0,0.0,1.342,1.2736,1.2675,1.3042,1.3402,1.3882,1.4888,1.5757,1.6386,1.6723,1.8045,2.0382,2.0123,2.0891,2.2654,2.3409,2.4074,2.4668,2.5518,2.6397,2.7333,2.7969,2.8637,2.9261,2.9533,2.9187,2.8374,2.7157,2.55,2.3054,0.0,1.2318,0.7628,0.1986,-0.1798,-0.4631,-0.6885,-0.8588,-1.0255,-1.2318,-1.3157,-1.3933,-1.6085,-1.7309,-1.836,-2.002,-2.1011,-2.2112,-2.386,-2.4106,-2.4293,-2.5251,-2.5524,-2.5844,-2.6728,-2.7714,-2.8827,-2.9864,-2.9953,-3.0306,-3.1207,-3.0352,-2.9782,-3.019,-3.057,-3.0495,-2.9869,-3.0141,-3.0652,-3.1361,-3.1039,-3.0837,-3.0906,-3.1059,-3.0549,-2.9334,-2.937,-2.8666,-2.7373,-2.7057,-2.6334,-2.5243,-2.4936,-2.472,-2.4531,-2.4356,-2.3775,-2.2968,-2.2777,-2.2525,-2.2293,-2.2041,-2.202,-2.1952,-2.134,-2.0764,-2.0382,-2.0898,-2.039,-1.9577,0.0,0.0,0.0,0.0,0.0,0.0,0.0,0.0,0.0,0.0,0.0,0.0,0.0,0.0,0.0,0.0,0.0,1.4294,1.4925,1.516,1.5501,1.6068,1.7107,1.7996,1.8574,1.9107,2.0395,2.2498,2.2061,2.2607,2.4129,2.5138,2.5809,2.6267,2.7531,2.8474,2.9159,2.974,3.0011,3.0086,3.0611,3.0047,2.8806,2.7865,2.6242,0.0,1.9177,1.4341,0.9467,0.479,0.1195,-0.1686,-0.3633,-0.546,-0.7444,-1.0513,-1.1261,-1.1621,-1.3855,-1.4776,-1.5343,-1.6451,-1.769,-1.8896,-2.0082,-2.084,-2.1669,-2.2897,-2.297,-2.3106,-2.4277,-2.53,-2.6232,-2.7221,-2.7633,-2.8282,-2.9561,-2.8827,-2.8497,-2.9651,-2.9792,-2.9792,-2.9792,-2.9856,-3.0008,-3.0345,-3.006,-2.9791,-2.9589,-2.9749,-2.9227,-2.7822,-2.7795,-2.7165,-2.5907,-2.5831,-2.5179,-2.3762,-2.3959,-2.3634,-2.2781,-2.2974,-2.237,-2.116,-2.1464,-2.1176,-2.059,-2.063,-2.0841,-2.0948,-2.0188,-1.9642,-1.9404,-1.972,-1.8885,-1.784,0.0,0.0,0.0,0.0,0.0,0.0,0.0,0.0,0.0,0.0,0.0,0.0,0.0,0.0,0.0,0.0,0.0,0.0,1.6485,1.7107,1.7408,1.7402,1.9094,2.0277,2.0805,2.14,2.2456,2.4017,2.3984,2.418,2.4642,2.6131,2.6845,2.6952,2.8829,2.9716,2.9902,3.0987,3.0681,2.9613,3.0963,3.0528,2.8998,2.8241,2.6603,2.4179,2.0011,1.5759,1.1455,0.735,0.3663,0.0705,0.0118,-0.2326,-0.547,-0.7999,-0.8472,-0.876,-1.136,-1.1617,-1.1488,-1.2994,-1.4258,-1.5257,-1.5302,-1.6595,-1.8037,-1.9172,-1.9891,-2.0721,-2.1805,-2.2963,-2.397,-2.4568,-2.5261,-2.6308,-2.7985,-2.8133,-2.8437,-2.9576,-2.9702,-2.9702,-2.9702,-2.9137,-2.8812,-2.8812,-2.8787,-2.8374,-2.7297,-2.7663,-2.7189,-2.5503,-2.5453,-2.4941,-2.3879,-2.3842,-2.3169,-2.1815,-2.2377,-2.1894,-2.0602,-2.1138,-2.0553,-1.9171,-1.982,-1.9577,-1.8679,-1.8818,-1.9208,-1.9609,-1.8557,-1.8144,-1.8166,-1.8144,-1.737,-1.6701,0.0,0.0,0.0,0.0,0.0,0.0,0.0,0.0,0.0,0.0,0.0,0.0,0.0,0.0,0.0,0.0,0.0,0.0,1.8765,1.8735,1.9055,1.9926,2.0422,2.1109,2.2099,2.2179,2.3291,2.5452,2.4959,2.5213,2.6166,2.6861,2.7412,2.7867,2.8686,2.9975,3.1581,3.1863,3.2525,3.3355,3.3034,3.2366,3.1386,2.9464,2.7293,2.4595,1.9238,1.4903,1.1046,0.7233,0.295,-0.0778,-0.0909,-0.2022,-0.3585,-0.4923,-0.5551,-0.6095,-0.7391,-0.7785,-0.8102,-0.9276,-0.9736,-1.048,-1.2956,-1.3959,-1.4813,-1.6598,-1.7036,-1.7552,-1.8924,-2.0526,-2.2138,-2.3559,-2.4536,-2.5524,-2.6744,-2.6909,-2.7334,-2.8402,-2.8518,-2.8518,-2.8518,-2.7669,-2.7105,-2.7105,-2.7459,-2.742,-2.6831,-2.6153,-2.5073,-2.3618,-2.3572,-2.3086,-2.2066,-2.1684,-2.1302,-2.091,-2.1035,-2.0971,-2.059,-2.0725,-2.0165,-1.9112,-1.929,-1.8839,-1.7861,-1.7594,-1.7883,-1.8328,-1.7738,-1.7552,-1.7593,-1.7543,-1.6786,-1.5873,0.0,0.0,0.0,0.0,0.0,0.0,0.0,0.0,0.0,0.0,0.0,0.0,0.0,0.0,0.0,0.0,0.0,0.0,0.0,2.0006,2.0409,2.1541,2.1886,2.2565,2.3636,2.4185,2.4891,2.583,2.6098,2.6235,2.6234,2.7336,2.8105,2.8631,2.9509,3.0676,3.2048,3.2405,3.2641,0.0,0.0,3.2169,3.0854,2.9162,2.6809,2.3743,1.8544,1.3009,0.7752,0.4772,0.1993,-0.0277,-0.0548,-0.0991,-0.1547,-0.1978,-0.2405,-0.2945,-0.399,-0.4386,-0.4856,-0.5787,-0.6788,-0.7915,-0.9668,-1.1224,-1.2692,-1.4169,-1.456,-1.5078,-1.6369,-1.8216,-1.9885,-2.0884,-2.2569,-2.4196,-2.5354,-2.5632,-2.6141,-2.7233,-2.7371,-2.7359,-2.7127,-2.6758,-2.6386,-2.5947,-2.6404,-2.6453,-2.593,-2.496,-2.3846,-2.2576,-2.2542,-2.2092,-2.1319,-2.0837,-2.0398,-2.0009,-2.0009,-1.9814,-1.942,-1.9284,-1.8797,-1.8025,-1.8175,-1.7843,-1.7092,-1.6777,-1.6974,-1.7438,-1.6534,-1.6315,-1.6513,-1.628,-1.5591,-1.4812,0.0,0.0,0.0,0.0,0.0,0.0,0.0,0.0,0.0,0.0,0.0,0.0,0.0,0.0,0.0,0.0,0.0,0.0,0.0,0.0,2.1611,2.2679,2.3318,2.4089,2.5124,2.631,2.6576,2.5761,2.7046,2.7012,2.5778,2.7526,2.8526,2.8936,3.0249,3.1083,3.1541,3.2219,3.1635,3.0405,3.1587,3.0936,2.9177,0.0,2.5795,2.2344,1.7268,1.054,0.3763,0.2,0.123,0.0882,0.05,0.0366,0.0379,0.0525,0.0456,0.0156,-0.087,-0.1373,-0.1718,-0.2657,-0.4632,-0.6441,-0.6384,-0.8693,-1.1182,-1.2058,-1.2692,-1.3316,-1.4215,-1.6236,-1.775,-1.7755,-2.0361,-2.2621,-2.3463,-2.432,-2.5087,-2.5937,-2.6157,-2.6039,-2.5616,-2.5743,-2.561,-2.4848,-2.5024,-2.5013,-2.467,-2.3771,-2.2756,-2.1567,-2.1468,-2.1237,-2.0753,-2.0413,-1.9879,-1.911,-1.9034,-1.8576,-1.7998,-1.7359,-1.6944,-1.6709,-1.685,-1.6677,-1.6306,-1.607,-1.6229,-1.6629,-1.5163,-1.4909,-1.5339,-1.4762,-1.4236,-1.3779,0.0,0.0,0.0,0.0,0.0,0.0,0.0,0.0,0.0,0.0,2.2106,2.1832,0.0,0.0,0.0,0.0,0.0,0.0,0.0,0.0,0.0,2.404,2.4189,2.4753,2.5779,2.6063,2.6293,2.6505,2.6776,2.6759,2.6505,2.7184,2.7556,2.7648,2.8227,2.9053,2.9958,2.9818,3.0152,3.0776,3.08,3.0369,2.9508,2.7671,0.0,0.0,1.3262,0.7833,0.4271,0.3355,0.1718,0.0318,0.1084,0.1333,0.1511,0.221,0.2526,0.2476,0.2016,0.1431,0.0691,-0.0458,-0.2326,-0.4307,-0.5757,-0.7806,-0.9622,-1.0116,-1.1553,-1.2781,-1.2825,-1.5044,-1.6902,-1.7081,-1.9539,-2.1202,-2.0403,-2.2928,-2.4493,-2.367,-2.4168,-2.453,-2.4527,-2.3382,-2.2601,-2.2441,-2.216,-2.2176,-2.268,-2.1686,-2.0517,-1.9264,-1.8873,-1.8652,-1.8572,-1.8502,-1.8405,-1.8202,-1.7472,-1.7413,-1.793,-1.6026,-1.5707,-1.6646,-1.5737,-1.5432,-1.5515,-1.4809,-1.486,-1.5351,-1.4361,-1.4337,-1.4775,-1.4176,-1.3909,-1.3732,0.0,0.0,0.0,0.0,0.0,0.0,0.0,2.0868,2.1591,2.1726,2.2378,2.2457,2.1464,2.1666,2.1939,0.0,0.0,0.0,0.0,0.0,0.0,0.0,2.5089,2.5598,2.6367,2.6751,2.6689,2.6133,0.0,2.6877,2.6133,2.6926,2.7409,2.7619,2.7794,2.8316,2.8971,2.8765,2.8864,2.9176,2.9197,2.8923,2.8255,2.6132,0.0,0.0,1.1388,0.7706,0.5619,0.4334,0.3134,0.2334,0.2992,0.3153,0.3308,0.4124,0.4469,0.4336,0.3653,0.2885,0.2037,0.083,-0.1304,-0.3401,-0.4084,-0.6222,-0.8068,-0.8096,-0.9771,-1.1142,-1.0995,-1.3332,-1.5402,-1.5651,-1.7787,-1.9497,-1.9939,-2.1624,-2.2803,-2.3037,-2.3428,-2.3476,-2.3021,-2.2522,-2.1934,-2.125,-2.1221,-2.1263,-2.1328,-2.0212,-1.9277,-1.8652,-1.7719,-1.7389,-1.7544,-1.6903,-1.6515,-1.6515,-1.6079,-1.6044,-1.626,-1.4984,-1.4609,-1.5007,-1.4232,-1.4264,-1.469,-1.3811,-1.3907,-1.4518,-1.3679,-1.3515,-1.3752,-1.342,-1.3112,-1.2696,0.0,0.0,0.0,0.0,0.0,0.0,0.0,2.0553,2.1659,2.1549,2.2737,2.3359,2.2591,2.2703,2.3007,0.0,0.0,0.0,0.0,0.0,0.0,0.0,0.0,0.0,2.6691,0.0,0.0,2.6082,2.7418,0.0,0.0,0.0,0.0,0.0,2.7971,2.8021,2.7966,2.7702,2.7369,0.0,0.0,2.6869,2.6126,0.0,0.0,0.0,0.0,0.8787,0.7586,0.6037,0.5316,0.5171,0.5505,0.5065,0.4668,0.5495,0.58,0.561,0.4446,0.3566,0.2676,0.1571,-0.091,-0.3047,-0.2783,-0.4988,-0.7045,-0.673,-0.8134,-0.9449,-0.9655,-1.1778,-1.367,-1.4156,-1.5963,-1.7713,-1.9032,-2.0125,-2.1213,-2.2171,-2.2698,-2.2715,-2.1963,-2.21,-2.1768,-2.0654,-2.0556,-2.042,-2.0312,-1.8923,-1.8206,-1.8206,-1.6939,-1.6439,-1.6759,-1.5655,-1.5118,-1.5118,-1.4833,-1.4645,-1.4622,-1.38,-1.3485,-1.3575,-1.2972,-1.3141,-1.3797,-1.3032,-1.3086,-1.3705,-1.2955,-1.2666,-1.2666,-1.2666,-1.2187,-1.1566,0.0,0.0,0.0,0.0,0.0,0.0,0.0,1.8828,1.9854,2.2262,2.3821,2.49,2.5581,2.5025,2.4895,0.0,0.0,0.0,0.0,0.0,0.0,0.0,0.0,0.0,0.0,0.0,0.0,2.7587,2.8467,0.0,0.0,0.0,0.0,0.0,0.0,2.7732,2.6621,2.5688,0.0,0.0,0.0,0.0,0.0,0.0,0.0,0.0,0.0,1.0346,0.9902,0.9239,0.8562,0.8084,0.8325,0.6736,0.4836,0.5415,0.58,0.5695,0.4406,0.344,0.2617,0.1595,-0.0948,-0.2996,-0.2762,-0.4988,-0.7045,-0.673,-0.7669,-0.8767,-0.9583,-1.0757,-1.1941,-1.2825,-1.4674,-1.5833,-1.5535,-1.8345,-2.0273,-1.9859,-2.1452,-2.2383,-2.1934,-2.1562,-2.1133,-2.0605,-1.9108,-1.8536,-1.9404,-1.7731,-1.676,-1.676,-1.5816,-1.5321,-1.5355,-1.4988,-1.4736,-1.4728,-1.3611,-1.3506,-1.4255,-1.2204,-1.2101,-1.352,-1.2406,-1.2216,-1.273,-1.2181,-1.2258,-1.262,-1.2104,-1.1913,-1.1913,-1.1913,-1.1466,-1.0914,0.0,0.0,0.0,0.0,0.0,0.0,1.8093,1.8794,1.975,2.1163,2.3283,2.5116,2.6225,2.69,2.7393,2.7484,0.0,0.0,0.0,0.0,0.0,0.0,0.0,0.0,0.0,0.0,2.8061,2.8518,2.8822,0.0,0.0,0.0,0.0,0.0,0.0,2.6838,2.5824,2.3728,0.0,0.0,0.0,0.0,0.0,0.0,0.0,0.0,0.0,0.0,1.2726,1.1471,1.0647,0.9973,0.8901,0.7821,0.6861,0.6503,0.6084,0.5529,0.445,0.3514,0.2642,0.1558,-0.0446,-0.2286,-0.25,-0.4031,-0.5431,-0.5665,-0.6637,-0.7489,-0.7824,-0.8735,-0.9863,-1.0994,-1.2058,-1.3286,-1.4792,-1.6398,-1.7863,-1.8816,-1.9679,-2.031,-2.0755,-2.0588,-2.0123,-1.9378,-1.7623,-1.6811,-1.7178,-1.6297,-1.579,-1.579,-1.4676,-1.4081,-1.4081,-1.3186,-1.2672,-1.2672,-1.2223,-1.2133,-1.2262,-1.1366,-1.1279,-1.1784,-1.1283,-1.1465,-1.2085,-1.1464,-1.1543,-1.2072,-1.1456,-1.1216,-1.1216,-1.1216,-1.0762,-1.0218,0.0,0.0,0.0,0.0,0.0,1.8143,1.7704,1.8523,1.9738,2.1255,2.3515,2.5725,2.7436,2.8858,2.97,2.9658,2.8188,0.0,0.0,0.0,0.0,0.0,0.0,0.0,0.0,0.0,2.8772,2.9313,2.9753,2.9837,0.0,0.0,2.9343,2.8012,0.0,0.0,0.0,0.0,0.0,0.0,0.0,0.0,0.0,0.0,0.0,0.0,0.0,0.0,0.0,0.0,0.0,1.1397,1.0001,0.9153,0.8391,0.7229,0.6462,0.5801,0.4506,0.3584,0.2691,0.1658,-0.015,-0.1698,-0.2045,-0.3,-0.3986,-0.4672,-0.5404,-0.6152,-0.6739,-0.7523,-0.8424,-0.9647,-1.0408,-1.1564,-1.3684,-1.4843,-1.611,-1.7709,-1.8341,-1.87,-1.8896,-1.8682,-1.8348,-1.7852,-1.6346,-1.5316,-1.5097,-1.4498,-1.4371,-1.4654,-1.352,-1.2866,-1.2771,-1.1785,-1.1296,-1.1296,-1.1209,-1.1062,-1.0868,-1.0868,-1.0755,-1.0618,-1.053,-1.0788,-1.1218,-1.0523,-1.0699,-1.1351,-1.0749,-1.0517,-1.0517,-1.0517,-1.0064,-0.9517,0.0,0.0,0.0,0.0,0.0,0.0,1.712,1.7641,1.9432,2.3442,2.5223,2.7148,2.9975,3.0955,3.1796,3.2461,3.0461,0.0,0.0,0.0,0.0,0.0,0.0,0.0,0.0,0.0,3.0091,3.0091,3.1546,3.1884,3.119,3.1316,2.9868,2.7137,0.0,0.0,0.0,0.0,0.0,0.0,0.0,0.0,0.0,0.0,0.0,0.0,0.0,0.0,0.0,0.0,0.0,0.0,0.0,1.0826,0.8952,0.7181,0.6856,0.6683,0.4705,0.3559,0.2706,0.1801,0.0,-0.1517,-0.1335,-0.2165,-0.3092,-0.3828,-0.4095,-0.4842,-0.6887,-0.7432,-0.7921,-0.91,-1.0115,-1.1047,-1.1665,-1.3888,-1.5693,-1.6269,-1.7672,-1.7977,-1.6354,-1.565,-1.5544,-1.6177,-1.5091,-1.4101,-1.3374,-1.2431,-1.236,-1.3267,-1.2431,-1.173,-1.143,-1.1142,-1.0995,-1.0995,-1.0708,-1.0631,-1.0624,-1.0624,-1.0624,-1.0611,-1.0247,-1.012,-1.0074,-0.9486,-0.9673,-1.0285,-0.9948,-0.9814,-0.9814,-0.9814,-0.9361,-0.8804,0.0,0.0,0.0,0.0,0.0,0.0,0.0,1.9148,2.076,2.338,2.5699,2.7968,3.0188,3.1068,3.1796,3.2547,3.152,0.0,0.0,0.0,0.0,0.0,0.0,0.0,0.0,0.0,3.0135,3.0227,3.0208,2.987,2.9217,2.8748,2.7781,2.6382,2.4519,2.2954,0.0,0.0,0.0,0.0,0.0,0.0,1.8297,0.0,0.0,0.0,0.0,0.0,0.0,0.0,0.0,0.0,0.0,0.0,0.0,0.7897,0.7301,0.6688,0.5403,0.4027,0.2691,0.1616,0.0434,-0.0635,-0.1096,-0.197,-0.2954,-0.3682,-0.4564,-0.5388,-0.5992,-0.6288,-0.6895,-0.8053,-0.8649,-0.9531,-1.1278,-1.2432,-1.3553,-1.494,-1.6307,-1.6967,-1.6174,-1.5433,-1.5033,-1.525,-1.3637,-1.2562,-1.2367,-1.181,-1.1702,-1.1971,-1.1506,-1.1223,-1.1129,-1.0842,-1.0438,-0.9851,-1.0347,-0.997,-0.8865,-0.946,-0.9289,-0.8601,-0.8522,-0.8398,-0.8343,-0.848,-0.867,-0.8854,-0.9064,-0.8784,-0.8402,-0.8942,-0.8685,-0.8103,0.0,0.0,0.0,0.0,0.0,0.0,0.0,2.0192,2.1781,2.4065,2.6446,2.8557,3.0332,3.1332,3.2323,3.3309,3.2997,0.0,0.0,0.0,0.0,0.0,0.0,0.0,0.0,3.0303,3.0094,2.9897,2.9148,2.8136,2.6862,2.6468,2.5416,2.3854,2.2407,2.1247,0.0,0.0,0.0,0.0,0.0,0.0,1.7404,0.0,0.0,0.0,0.0,0.0,0.0,0.0,0.0,0.0,0.0,0.0,0.0,0.0,0.6455,0.578,0.5614,0.4239,0.2759,0.2107,0.0928,-0.021,-0.1097,-0.1772,-0.2639,-0.3789,-0.4709,-0.5393,-0.5684,-0.5996,-0.6437,-0.7092,-0.7679,-0.8591,-1.009,-1.1288,-1.2681,-1.4282,-1.4906,-1.5186,-1.512,-1.4188,-1.3599,-1.3841,-1.267,-1.1629,-1.1127,-1.0844,-1.0498,-0.9988,-1.0261,-1.023,-0.9896,-0.9592,-0.9208,-0.873,-0.9208,-0.8844,-0.784,-0.8346,-0.8258,-0.7614,-0.7531,-0.7465,0.0,-0.7542,-0.7683,-0.7801,-0.7931,-0.767,-0.7343,-0.7777,-0.767,-0.7348,0.0,0.0,0.0,0.0,0.0,0.0,0.0,2.0828,2.2523,2.5263,2.7238,2.8951,3.0362,3.1748,3.3161,3.4526,0.0,0.0,0.0,0.0,0.0,0.0,0.0,0.0,3.1151,3.0502,2.9751,2.8971,2.8103,2.6518,2.4204,2.4349,2.2908,2.0229,1.9882,1.908,0.0,0.0,0.0,0.0,0.0,0.0,0.0,0.0,0.0,0.0,0.0,0.0,0.0,0.0,0.0,0.0,0.0,0.0,0.0,0.0,0.0,0.0,0.0,0.4138,0.2759,0.2759,0.1358,-0.0352,-0.1402,-0.1681,0.0,-0.4142,-0.4675,-0.5061,-0.5907,-0.6295,-0.6451,-0.6329,-0.7335,-0.8111,-0.8218,-1.0557,-1.2727,-1.4095,-1.3311,-1.2825,-1.33,-1.2178,-1.157,-1.2042,-1.1867,-1.1083,-0.965,-0.9438,-0.8851,-0.7603,-0.8674,-0.8862,-0.7981,-0.7629,-0.7521,-0.7593,-0.7516,-0.7423,-0.7305,-0.7359,-0.7354,-0.7269,-0.7062,-0.7082,-0.7224,-0.6754,-0.6709,-0.6987,-0.6723,-0.6588,-0.6534,-0.6588,-0.6588,-0.6534,0.0,0.0,0.0,0.0,0.0,0.0,0.0,0.0,0.0,0.0,2.7328,2.9074,3.0387,3.1748,3.2958,0.0,0.0,0.0,0.0,0.0,0.0,0.0,0.0,0.0,3.0518,2.9383,2.8122,2.6811,2.4778,2.291,2.1282,2.0785,2.0153,1.9446,1.9426,1.9253,0.0,0.0,0.0,0.0,0.0,0.0,0.0,0.0,0.0,0.0,1.1957,1.1235,0.0,0.0,0.0,0.0,0.0,0.0,0.0,0.0,0.3665,0.3054,0.332,0.0,0.1671,0.1671,0.0217,-0.1297,0.0,-0.2732,-0.3972,-0.457,-0.5312,-0.6002,-0.6346,-0.6522,-0.6675,-0.6759,-0.6996,-0.7629,-0.8748,-1.0461,-1.1605,-1.1693,-1.1391,-1.1158,-1.0784,-1.0363,-1.0129,-1.0137,-0.9652,-0.9129,-0.8581,-0.8265,-0.7654,-0.6592,-0.6721,-0.7101,-0.7638,-0.7535,-0.7205,-0.6587,-0.72,-0.6828,-0.5517,-0.6224,-0.6087,-0.5378,-0.5281,-0.527,-0.523,-0.558,-0.5786,-0.5936,-0.6386,-0.6258,-0.5814,-0.6367,-0.6253,-0.5814,0.0,0.0,0.0,0.0,0.0,0.0,0.0,0.0,0.0,0.0,0.0,0.0,0.0,0.0,0.0,0.0,0.0,0.0,0.0,0.0,0.0,0.0,0.0,3.0626,3.0238,2.8698,2.7077,2.5467,2.2745,2.0404,1.8481,1.8205,1.7562,1.6725,1.7201,1.7387,0.0,0.0,0.0,0.0,1.2274,0.0,0.0,0.0,0.0,0.0,0.8689,0.7995,0.0,0.6451,0.5248,0.3901,0.0,0.0,0.0,0.0,0.0302,-0.0077,-0.0157,0.0077,0.0376,0.0381,-0.1146,-0.2676,-0.3132,-0.3936,-0.4822,-0.5351,-0.5938,-0.638,-0.6458,-0.6709,-0.6885,-0.6831,-0.6524,-0.6613,-0.7392,-0.8649,-0.9596,-0.9894,-1.0386,-1.0418,-0.9896,-0.9684,-0.9483,-0.9081,-0.8638,-0.8097,-0.7437,-0.7069,-0.6497,-0.5514,-0.5396,-0.5661,-0.6289,-0.6173,-0.5893,-0.551,-0.5951,-0.5624,-0.4707,-0.5223,-0.5113,-0.4585,-0.4585,-0.4538,-0.4515,-0.4893,-0.5058,-0.5058,-0.5496,-0.5386,-0.5113,-0.5496,-0.5386,-0.5113,0.0,0.0,0.0,0.0,0.0,0.0,0.0,0.0,0.0,0.0,0.0,0.0,0.0,0.0,0.0,0.0,0.0,0.0,0.0,0.0,0.0,0.0,0.0,3.0606,2.9848,2.7794,2.5877,2.4235,2.135,1.8689,1.6251,1.6462,1.5675,1.3943,1.4506,1.4561,0.0,0.0,1.2024,1.0881,0.9089,0.0,0.0,0.0,0.0,0.0,0.0,0.0,0.0,0.354,0.2196,0.0504,-0.0353,0.0,0.0,0.0,0.0,0.0,-0.3613,-0.2559,-0.145,-0.1216,-0.2606,-0.4168,-0.4718,-0.4885,-0.5061,-0.572,-0.5971,-0.6059,-0.6021,-0.6294,-0.6533,-0.6238,-0.5703,-0.5351,-0.5393,-0.6183,-0.7133,-0.8062,-0.8846,-0.9138,-0.8709,-0.8551,-0.8296,-0.7751,-0.7502,-0.693,-0.5845,-0.56,-0.5128,-0.4362,-0.4188,-0.4241,-0.4483,-0.4475,-0.4584,-0.4653,-0.458,-0.4519,-0.4519,-0.4519,-0.4519,-0.4519,-0.4519,-0.4519,-0.4519,-0.4519,-0.4519,-0.4463,-0.4349,-0.4349,-0.4294,-0.4184,-0.4125,-0.4125,0.0,0.0,0.0,0.0,0.0,0.0,0.0,0.0,0.0,0.0,0.0,0.0,0.0,0.0,0.0,0.0,0.0,0.0,0.0,0.0,0.0,3.1014,2.9596,2.8824,2.8673,2.5382,2.32,2.2164,1.9565,1.725,1.5421,1.621,1.606,1.4976,1.331,1.2184,1.1303,0.9383,0.7895,0.6922,0.5765,0.0,0.0,0.0,0.0,0.0,0.0,0.0,0.0,0.1083,-0.0072,-0.1306,-0.2239,0.0,0.0,0.0,0.0,0.0,-0.3762,-0.4424,-0.4901,-0.3477,-0.4139,-0.4857,-0.3849,-0.432,-0.4668,-0.3908,-0.3763,-0.3813,-0.4039,-0.4127,-0.4119,-0.4076,-0.4096,-0.4122,-0.406,-0.4196,-0.428,-0.424,-0.436,-0.4309,-0.4008,-0.4043,-0.4001,-0.3797,-0.3738,-0.3526,-0.3098,-0.3045,-0.2892,-0.2587,-0.2571,-0.2577,-0.2604,-0.3866,-0.4529,-0.4553,-0.4529,-0.4519,-0.4519,-0.4519,-0.4519,-0.4519,-0.4519,-0.4519,-0.4519,-0.4519,-0.4519,-0.4463,-0.379,-0.3566,-0.3511,-0.2788,-0.2565,-0.2565,0.0,0.0,0.0,0.0,0.0,0.0,0.0,0.0,0.0,0.0,0.0,0.0,0.0,0.0,0.0,0.0,0.0,0.0,0.0,0.0,3.0615,2.9319,2.7449,2.6469,2.6469,2.417,2.2273,2.085,1.8345,1.6711,1.593,1.4759,1.4027,1.3484,1.0923,0.921,0.8232,0.6623,0.5081,0.3643,0.0,0.0,0.0,0.0,0.0,0.0,0.0,0.0,0.0,0.0,-0.1851,-0.3257,-0.3702,0.0,0.0,0.0,0.0,0.0,-0.5292,-0.5078,-0.4683,-0.461,-0.5199,-0.5317,-0.3888,-0.3826,-0.3868,-0.3299,-0.3233,-0.3369,-0.3432,-0.357,-0.3452,-0.2887,-0.2753,-0.2518,-0.1853,-0.2137,-0.2483,-0.2418,-0.2844,-0.3061,-0.2982,-0.3034,-0.2983,-0.287,-0.2779,-0.2656,-0.2523,-0.2406,-0.2324,-0.2176,-0.2174,-0.2174,-0.2174,-0.2899,-0.3234,-0.3234,-0.3234,-0.3234,-0.3234,-0.3234,-0.3234,-0.3234,-0.3234,-0.3234,-0.3234,-0.3234,-0.3234,-0.3231,-0.2899,-0.2732,-0.2732,-0.2343,-0.2174,-0.2174,0.0,0.0,0.0,0.0,0.0,0.0,0.0,0.0,0.0,0.0,0.0,0.0,0.0,0.0,0.0,0.0,0.0,0.0,0.0,0.0,2.889,2.7441,2.5511,2.4429,2.4241,2.2676,2.0955,1.9226,1.7116,1.6026,1.5774,1.3129,1.1624,1.0997,0.8223,0.6283,0.5087,0.3969,0.2657,0.1188,0.0,0.0,0.0,0.0,0.0,0.0,0.0,0.0,0.0,0.0,0.0,0.0,0.0,0.0,0.0,-0.5788,-0.5241,-0.4814,-0.5869,-0.4988,-0.3809,-0.448,-0.5054,-0.5096,-0.3553,-0.3012,-0.2855,-0.2423,-0.2441,-0.2556,-0.2543,-0.2699,-0.2591,-0.1681,-0.1153,-0.0565,0.0287,-0.0091,-0.0602,-0.0762,-0.1631,-0.2272,-0.233,-0.2278,-0.2223,-0.2221,-0.2061,-0.1907,-0.1907,-0.1794,-0.1675,-0.1675,-0.1675,-0.1675,-0.1675,-0.1675,-0.1842,-0.2174,-0.2174,-0.2174,-0.2174,-0.2174,-0.2174,-0.2174,-0.2174,-0.2174,-0.2174,-0.2174,-0.2174,-0.2174,-0.2009,-0.1842,-0.1675,-0.1675,-0.1675,-0.1675,0.0,0.0,0.0,0.0,0.0,0.0,0.0,0.0,0.0,0.0,0.0,0.0,0.0,0.0,0.0,0.0,0.0,0.0,0.0,0.0,2.6501,2.5103,2.4124,2.3287,2.2706,1.9791,1.7765,1.6693,1.5764,1.4746,1.3562,1.1747,0.9825,0.7873,0.5781,0.3851,0.2016,0.087,0.0238,0.0081,0.0081,0.0,0.0,0.0,0.0,0.0,0.0,0.0,0.0,0.0,0.0,0.0,0.0,0.0,-0.3508,-0.3593,-0.3646,-0.3725,-0.3984,-0.3976,-0.3673,-0.2491,-0.3145,-0.3557,-0.2231,-0.1926,-0.1622,-0.0485,-0.0195,-0.0194,-0.019,-0.0285,-0.0286,-0.0191,0.087,0.1755,0.1662,0.1725,0.1756,0.1567,0.0509,-0.0243,-0.0221,-0.0219,-0.0214,-0.0204,-0.0192,-0.0185,-0.0185,-0.0174,-0.0168,-0.0168,-0.0168,-0.0168,-0.0168,-0.0168,-0.0838,-0.2174,-0.2174,-0.2174,-0.2174,-0.2174,-0.2174,-0.2174,-0.2174,-0.2174,-0.2174,-0.2174,-0.2174,-0.212,-0.1452,-0.0783,-0.0168,-0.0168,-0.0168,-0.0168,0.0,0.0,0.0,0.0,0.0,0.0,0.0,0.0,0.0,0.0,0.0,0.0,0.0,0.0,0.0,0.0,0.0,0.0,0.0,2.6196,2.4988,2.357,2.2111,2.0528,1.8747,1.8451,1.7905,1.7006,1.5774,1.3663,1.0777,0.9435,0.7732,0.5671,0.3597,0.2356,0.1586,0.0472,0.0,0.0,0.0,0.0,0.0,0.0,0.0,0.0,0.0,0.0,0.0,0.0,-0.1931,-0.247,-0.2931,-0.3094,-0.3188,-0.3222,-0.2776,-0.2501,-0.3273,-0.2532,-0.1541,-0.1812,-0.1646,-0.131,-0.079,-0.0695,-0.0297,0.0996,0.1196,0.1481,0.2198,0.2422,0.2451,0.2424,0.285,0.3169,0.3037,0.3046,0.2931,0.2789,0.224,0.1803,0.1829,0.1718,0.1665,0.1577,0.1575,0.1526,0.1376,0.1375,0.1341,0.1341,0.0951,0.0671,0.0671,0.0224,-0.0056,-0.0167,-0.0614,-0.0838,-0.0838,-0.0838,-0.0838,-0.0838,-0.0838,-0.0838,-0.0838,-0.0838,-0.0838,-0.0783,-0.0504,-0.0224,0.0,0.0,0.0,0.0,0.0,0.0,0.0,0.0,0.0,0.0,0.0,0.0,0.0,0.0,0.0,0.0,0.0,0.0,0.0,0.0,0.0,0.0,2.493,2.4241,2.3223,2.177,2.0651,1.9056,1.6733,1.7704,1.7579,1.6256,1.4796,1.2104,0.8192,0.7083,0.5328,0.2986,0.1644,0.0861,0.0548,0.0156,0.0,0.0,0.0,0.0,0.0,0.0,0.0,0.0,0.0,0.0,0.0,0.0,-0.1489,-0.2036,-0.2112,-0.2146,-0.2099,-0.2146,-0.1619,-0.1245,-0.2071,-0.1121,-0.018,-0.0994,-0.0274,0.0657,0.0598,0.0602,0.0903,0.1824,0.2291,0.2827,0.3652,0.3876,0.391,0.391,0.4246,0.4548,0.4367,0.421,0.4121,0.3925,0.3318,0.291,0.2813,0.275,0.2661,0.2518,0.2501,0.2426,0.223,0.2214,0.2174,0.2174,0.173,0.1452,0.1452,0.095,0.095,0.1452,0.095,0.0671,0.0671,0.0671,0.0671,0.0671,0.0671,0.0671,0.0671,0.0671,0.0671,0.0671,0.0671,0.056,0.0336,0.0336,0.0224,0.0,0.0,0.0,0.0,0.0,0.0,0.0,0.0,0.0,0.0,0.0,0.0,0.0,0.0,0.0,0.0,0.0,0.0,0.0,2.2306,2.2019,2.1164,1.9573,1.9874,1.9225,1.7402,1.7383,1.6197,1.3665,1.2515,0.989,0.5983,0.4725,0.2592,-0.0226,-0.0231,-0.0702,-0.1487,-0.0459,0.0,0.0,0.0,0.0,-0.0084,0.0,0.0,0.0,0.0,0.0,0.0,0.0,0.0,0.0,0.0,0.0,0.0,0.0,0.0,0.0,0.0,0.0,0.0,0.0,0.1017,0.2063,0.1987,0.1983,0.1977,0.2053,0.2921,0.3731,0.398,0.3788,0.3736,0.3983,0.5079,0.5818,0.5606,0.5496,0.5321,0.4978,0.3728,0.2887,0.2742,0.272,0.2661,0.2518,0.2502,0.2426,0.223,0.2216,0.2232,0.2232,0.2232,0.223,0.223,0.223,0.223,0.223,0.223,0.223,0.2174,0.2174,0.2174,0.2174,0.2174,0.2174,0.2174,0.2174,0.2174,0.2174,0.2174,0.173,0.1118,0.1118,0.0671,0.0,0.0,0.0,0.0,0.0,0.0,0.0,0.0,0.0,0.0,0.0,0.0,0.0,0.0,0.0,0.0,0.0,0.0,0.0,2.1579,2.0015,1.9098,1.887,1.8451,1.7744,1.6884,1.6198,1.4977,1.3186,1.1037,0.8257,0.498,0.2429,0.0756,-0.0076,-0.0836,-0.0916,-0.0459,-0.0152,0.0,0.0,0.0,0.0,0.0,0.0,0.0,0.0,0.0,0.0,0.0,0.0,0.0,0.0,0.0868,0.0646,0.0166,0.0898,0.0588,0.0,0.0,0.0618,0.1279,0.1359,0.2307,0.3323,0.3427,0.3338,0.3543,0.4435,0.577,0.6657,0.6643,0.6651,0.6657,0.664,0.6934,0.7142,0.6907,0.664,0.6314,0.5899,0.533,0.4893,0.4766,0.4662,0.4541,0.4374,0.425,0.4122,0.3993,0.386,0.379,0.379,0.3289,0.3065,0.3065,0.251,0.251,0.3065,0.3065,0.2732,0.2174,0.2174,0.2174,0.2174,0.2174,0.2174,0.2174,0.2174,0.2174,0.2174,0.2174,0.2063,0.1898,0.1898,0.173,0.1452,0.0,0.0,0.0,0.0,0.0,0.0,0.0,0.0,0.0,0.0,2.3635,0.0,0.0,0.0,0.0,0.0,0.0,0.0,0.0,1.7927,1.7071,1.6809,1.6834,1.6796,1.6627,1.4917,1.3359,1.206,1.0027,0.7289,0.3908,0.1145,-0.0303,-0.0671,-0.1354,-0.1278,-0.0596,-0.0149,0.0,0.0,0.0,0.0247,0.0651,0.0,0.0,0.0,0.0,0.0,0.0,0.0,0.0,0.0,0.1965,0.1768,0.1487,0.2117,0.1528,0.08,0.1402,0.1726,0.1982,0.263,0.3701,0.4814,0.5356,0.511,0.5044,0.635,0.7265,0.7767,0.7733,0.7702,0.7692,0.7723,0.7675,0.7553,0.7312,0.7024,0.6671,0.6224,0.5952,0.5722,0.5518,0.5416,0.5298,0.5142,0.4999,0.4853,0.4701,0.4601,0.4625,0.4893,0.4446,0.4223,0.4223,0.3779,0.3616,0.3846,0.3846,0.3566,0.3121,0.3121,0.3121,0.3121,0.3121,0.3121,0.3121,0.3121,0.3121,0.3121,0.3121,0.2877,0.2575,0.2607,0.2434,0.2083,0.0,0.0,0.0,0.0,0.0,0.0,0.0,0.0,0.0,0.0,2.1977,2.19,0.0,0.0,0.0,0.0,0.0,0.0,0.0,0.0,1.5111,1.4057,1.5326,1.6052,1.6192,1.3598,1.1624,1.0427,0.9249,0.6734,0.3085,0.069,-0.0755,-0.1446,-0.1707,-0.163,-0.1377,-0.0435,0.0,0.0,0.0,0.0648,0.162,0.1623,0.0,0.0,0.0,0.0,0.0,0.0,0.0,0.0,0.3212,0.3346,0.3412,0.3419,0.2763,0.2204,0.3497,0.3123,0.2639,0.3887,0.5147,0.646,0.7714,0.7122,0.6677,0.7721,0.7761,0.7615,0.7851,0.7636,0.7538,0.7736,0.7643,0.7385,0.7143,0.6865,0.6512,0.6061,0.5957,0.5755,0.5456,0.5491,0.5432,0.5162,0.5006,0.4857,0.4718,0.4555,0.4787,0.5487,0.5487,0.5538,0.5597,0.5597,0.5273,0.468,0.468,0.468,0.468,0.4574,0.4519,0.4519,0.4519,0.4519,0.4515,0.4501,0.4505,0.4515,0.4501,0.3926,0.3197,0.3348,0.2887,0.2188,0.0,0.0,0.0,0.0,0.0,0.0,0.0,0.0,0.0,0.0,0.0,0.0,0.0,0.0,0.0,0.0,0.0,0.0,0.0,0.0,1.2743,1.3053,1.4599,1.4695,1.3165,1.2517,1.0965,0.8447,0.7319,0.5549,0.3076,0.0881,-0.0144,-0.0412,-0.1266,-0.1136,-0.0354,-0.0071,0.0,0.0,0.0,0.0633,0.1583,0.1613,0.2237,0.0,0.0,0.0,0.0,0.0,0.0,0.0,0.4259,0.4001,0.3503,0.4411,0.389,0.3184,0.3653,0.4264,0.4989,0.5456,0.6538,0.7855,0.8891,0.8979,0.8764,0.8973,0.8975,0.9204,1.0163,1.0278,0.9976,0.9056,0.8717,0.8189,0.708,0.6712,0.6352,0.5905,0.6391,0.6452,0.5522,0.6009,0.6125,0.538,0.5067,0.4904,0.487,0.4613,0.4787,0.5487,0.5487,0.576,0.6367,0.6367,0.6312,0.6154,0.6154,0.6154,0.61,0.5007,0.4519,0.4519,0.4519,0.4519,0.4508,0.4341,0.4362,0.4508,0.4338,0.4115,0.3986,0.4015,0.39,0.3667,0.0,0.0,0.0,0.0,0.0,0.0,0.0,0.0,0.0,0.0,0.0,0.0,0.0,0.0,0.0,0.0,0.0,0.0,0.0,0.0,1.1192,1.2751,1.2997,1.2823,1.2225,1.0822,0.9341,0.7783,0.6768,0.5139,0.3034,0.1497,0.0514,0.0,-0.0567,-0.0496,0.0,0.0,0.0,0.0074,0.0534,0.1396,0.235,0.2855,0.3714,0.4608,0.4608,0.0,0.0,0.0,0.0,0.0,0.0,0.0,0.5117,0.5778,0.518,0.4572,0.5309,0.5603,0.601,0.755,0.8943,0.9947,1.0327,1.04,1.0459,1.0798,1.039,1.0181,1.0796,1.078,1.0446,0.9832,0.9488,0.9056,0.8284,0.7936,0.7588,0.7199,0.707,0.6769,0.6098,0.6461,0.6527,0.6075,0.6009,0.6048,0.6048,0.5697,0.5823,0.6524,0.6573,0.674,0.7128,0.7128,0.6966,0.6588,0.6588,0.6588,0.6588,0.5496,0.4787,0.4515,0.4389,0.4362,0.4348,0.4199,0.4226,0.4345,0.4195,0.413,0.4197,0.4197,0.4197,0.4141,0.0,0.0,0.0,0.0,0.0,0.0,0.0,0.0,0.0,0.0,0.0,0.0,0.0,0.0,0.0,0.0,0.0,0.0,0.0,0.0,0.0,1.2258,1.1331,1.0929,1.1414,0.903,0.7689,0.7507,0.6707,0.5197,0.3057,0.2245,0.1293,0.0291,0.0073,0.0,0.0,0.0,0.0,0.0073,0.0974,0.2067,0.3202,0.4062,0.5237,0.6338,0.6338,0.6338,0.6281,0.6424,0.0,0.0,0.0,0.0,0.6922,0.6898,0.6268,0.5899,0.7192,0.714,0.7298,0.9697,1.1044,1.1874,1.179,1.1683,1.1844,1.2639,1.1861,1.1097,1.1165,1.1059,1.0747,1.0538,1.0259,0.9938,0.9516,0.9214,0.8916,0.8554,0.7853,0.7261,0.6933,0.7046,0.7111,0.6915,0.7173,0.7289,0.7289,0.6875,0.6912,0.767,0.7723,0.7777,0.7883,0.7883,0.7563,0.6966,0.6966,0.6912,0.675,0.614,0.5471,0.4794,0.4612,0.4539,0.4451,0.4243,0.4221,0.4299,0.407,0.4046,0.416,0.4184,0.4177,0.4157,0.0,0.0,0.0,0.0,0.0,0.0,0.0,0.0,0.0,0.0,1.2307,1.2414,0.0,0.0,0.0,0.0,0.0,0.0,0.4622,0.0,0.0,1.0278,1.0367,0.9723,0.818,0.7916,0.7323,0.6207,0.627,0.5204,0.3125,0.2934,0.2391,0.1382,0.0437,0.0,0.0,0.0,0.0,0.0,0.0151,0.1379,0.3124,0.3279,0.453,0.6338,0.6338,0.6338,0.6281,0.6424,0.6559,0.0,0.0,0.0,0.6902,0.677,0.6672,0.6814,0.7963,0.9331,1.0524,1.1114,1.1601,1.2026,1.2618,1.2763,1.2974,1.3728,1.2912,1.2375,1.3476,1.362,1.3168,1.1898,1.1578,1.0931,0.9387,0.8981,0.8682,0.8323,0.8783,0.8799,0.7917,0.8484,0.8613,0.7897,0.7481,0.7289,0.7289,0.6875,0.6912,0.767,0.7723,0.7996,0.8646,0.8646,0.8586,0.848,0.848,0.8156,0.7563,0.745,0.6897,0.5972,0.5948,0.5779,0.5555,0.4879,0.4678,0.4741,0.4225,0.4033,0.4016,0.4147,0.4113,0.405,0.0,0.0,0.0,0.0,0.0,0.0,0.0,0.0,0.0,0.0,0.0,0.9349,0.0,0.0,0.0,0.5205,0.3987,0.3668,0.4671,0.6554,0.8064,0.9043,0.8785,0.826,0.7407,0.7009,0.6543,0.603,0.6183,0.5855,0.5009,0.3724,0.2203,0.0711,0.0231,0.0,0.0,0.0,0.0,0.0076,0.0681,0.1468,0.2312,0.2906,0.4095,0.5413,0.5419,0.5786,0.6281,0.6424,0.6573,0.6702,0.6702,0.0,0.0,0.0,0.7109,0.782,0.9195,1.0594,1.1904,1.2412,1.3094,1.368,1.4088,1.4002,1.3875,1.4083,1.3646,1.3419,1.3778,1.3561,1.3127,1.2501,1.2176,1.1702,1.0777,1.0426,1.0118,0.9825,0.952,0.919,0.8759,0.9075,0.9139,0.8748,0.8653,0.8663,0.8663,0.8116,0.799,0.8315,0.8315,0.848,0.8804,0.8804,0.8804,0.8804,0.8804,0.8646,0.8315,0.8315,0.7524,0.6181,0.6117,0.5893,0.558,0.5183,0.4951,0.4741,0.4353,0.4159,0.4093,0.4076,0.4182,0.4256,0.0,0.0,0.0,0.0,0.0,0.0,0.0,0.0,0.0,0.0,0.0,0.0,0.0,0.0,0.0,0.0,0.2854,0.3107,0.5137,0.6356,0.7297,0.8015,0.748,0.7074,0.6867,0.6252,0.5952,0.5918,0.6108,0.6119,0.5934,0.4275,0.2542,0.0755,0.0244,0.0,0.0,0.0,0.0,0.0078,0.0844,0.1335,0.1715,0.2468,0.336,0.4313,0.4293,0.4988,0.5988,0.6086,0.6381,0.6759,0.6759,0.6837,0.0,0.0,0.0,0.9143,1.0262,1.1635,1.2741,1.3399,1.4269,1.4943,1.487,1.4676,1.4416,1.4048,1.3915,1.3774,1.3474,1.3173,1.2926,1.2849,1.2559,1.2258,1.1817,1.1563,1.1289,1.0922,1.0168,0.9658,0.9658,0.9658,0.9658,0.9658,0.9646,0.9686,0.9686,0.9125,0.8804,0.8804,0.8804,0.8804,0.8804,0.8804,0.8804,0.8804,0.8804,0.8804,0.8804,0.8804,0.8053,0.6743,0.6564,0.6276,0.5992,0.5662,0.5272,0.4824,0.4595,0.4363,0.4133,0.4148,0.425,0.4392,0.0,0.0,0.0,0.0,0.0,0.0,0.0,0.0,0.0,0.0,0.0,0.0,0.4151,0.3047,0.2457,0.2736,0.1766,0.2312,0.4918,0.6104,0.6813,0.6997,0.6945,0.0,0.5738,0.5742,0.5745,0.5613,0.5901,0.5503,0.4618,0.4644,0.4014,0.2847,0.0839,0.0,0.0,0.0,0.0,0.0,0.008,0.0725,0.1586,0.1634,0.2299,0.3167,0.3177,0.3934,0.5009,0.5092,0.5936,0.6915,0.6915,0.6922,0.7038,0.0,0.0,0.0,1.1093,1.2344,1.3658,1.3984,1.4563,1.489,1.4609,1.4529,1.4355,1.3788,1.3447,1.316,1.2929,1.3233,1.3407,1.2916,1.2808,1.2425,1.157,1.1436,1.1216,1.0648,1.0568,1.0561,1.0561,1.0561,1.0561,1.0561,1.002,0.9686,0.9686,0.9125,0.8804,0.8804,0.8804,0.8804,0.8804,0.8804,0.8804,0.8804,0.8804,0.8804,0.8804,0.8804,0.8592,0.825,0.796,0.7656,0.7352,0.6501,0.5793,0.5232,0.4979,0.4504,0.4063,0.4338,0.4362,0.4207,0.0,0.0,0.0,0.0,0.0,0.0,0.0,0.0,0.0,0.0,0.0,0.0,0.0,0.0385,0.0065,0.0866,0.1658,0.2505,0.3484,0.4446,0.496,0.5011,0.5628,0.5773,0.5511,0.5589,0.5684,0.5725,0.583,0.5829,0.575,0.492,0.4487,0.4181,0.2831,0.217,0.2153,0.212,0.2218,0.2343,0.2189,0.1975,0.1706,0.1727,0.1908,0.221,0.2904,0.3893,0.5017,0.5761,0.6383,0.6895,0.6698,0.6705,0.7051,0.8452,0.9803,1.0992,1.1967,1.2667,1.3186,1.3681,1.3961,1.4088,1.3981,1.3955,1.3848,1.3447,1.328,1.3113,1.2882,1.2766,1.2712,1.2498,1.2458,1.2285,1.1777,1.155,1.1276,1.0882,1.0675,1.0624,1.0624,1.0624,1.0624,1.0624,1.0013,0.9686,0.9686,0.9125,0.8804,0.8804,0.8804,0.8804,0.8804,0.8804,0.8804,0.8804,0.8804,0.8804,0.8804,0.8804,0.8751,0.8637,0.8343,0.8043,0.7742,0.7212,0.6789,0.6441,0.6132,0.5499,0.4837,0.4963,0.4774,0.4385,0.0,0.0,0.0,0.0,0.0,0.0,0.0,0.0,0.0,-0.1012,0.0,0.0,0.0,0.0,-0.1668,-0.0667,0.0807,0.1744,0.1711,0.2589,0.3072,0.3072,0.4319,0.5026,0.5026,0.5444,0.5705,0.58,0.6208,0.6325,0.6322,0.5873,0.5509,0.5368,0.4752,0.3973,0.3227,0.3258,0.3296,0.3465,0.3442,0.2759,0.1835,0.1781,0.1453,0.1221,0.2249,0.3423,0.4607,0.5756,0.6534,0.6963,0.6759,0.7188,0.8016,0.9418,1.049,1.1502,1.2388,1.2741,1.2923,1.324,1.342,1.35,1.35,1.35,1.3447,1.3253,1.3126,1.2993,1.2862,1.2505,1.2305,1.2305,1.2305,1.2204,1.1911,1.1697,1.1463,1.1176,1.0882,1.0701,1.0701,1.0678,1.0624,1.0624,1.0013,0.9686,0.9686,0.9125,0.8804,0.8804,0.8804,0.8804,0.8804,0.8804,0.8804,0.8804,0.8804,0.8804,0.8804,0.8804,0.8804,0.8798,0.8604,0.8357,0.8056,0.7749,0.741,0.7086,0.6901,0.6341,0.5695,0.5715,0.5342,0.4842,0.0,0.0,0.0,0.0,0.0,0.0,0.0,0.0,-0.201,-0.2833,0.0,0.0,0.0,0.0,0.0,-0.1949,-0.0888,-0.0271,-0.0256,0.0656,0.1202,0.1268,0.3092,0.4191,0.4191,0.5228,0.5803,0.581,0.6964,0.6982,0.604,0.7239,0.7322,0.6342,0.6482,0.5328,0.3311,0.3234,0.3242,0.3364,0.3383,0.2786,0.1879,0.1789,0.1075,0.018,0.1431,0.259,0.3826,0.505,0.6141,0.7139,0.7129,0.8276,0.9852,1.0551,1.1539,1.2305,0.0,0.0,0.0,1.2808,1.2966,1.32,1.3186,1.3186,1.3193,1.3186,1.2946,1.2808,1.2808,1.2498,1.2305,1.2305,1.2305,1.2204,1.1924,1.187,1.1764,1.147,1.1182,1.1009,1.1009,1.0742,1.0638,1.0638,1.002,0.9686,0.9686,0.9125,0.8804,0.8804,0.8804,0.8804,0.8804,0.8804,0.8804,0.8804,0.8804,0.8804,0.8804,0.8804,0.8804,0.8804,0.8804,0.8644,0.835,0.8063,0.7608,0.7146,0.7298,0.6985,0.6442,0.6561,0.6145,0.5538,0.0,0.0,0.0,0.0,0.0,-0.5329,-0.4494,-0.4222,-0.4176,0.0,0.0,0.0,-0.4065,-0.4133,-0.4065,-0.3935,-0.2884,-0.2278,-0.2315,-0.1477,-0.0565,0.0212,0.2061,0.3432,0.4166,0.5275,0.5857,0.5966,0.6901,0.6996,0.627,0.7913,0.8248,0.7403,0.8214,0.8146,0.7525,0.6165,0.5732,0.5786,0.487,0.3933,0.3032,0.211,0.1061,0.0268,0.216,0.3219,0.3914,0.5837,0.6757,0.7186,0.7727,0.8642,0.9729,1.0581,1.1539,1.2305,1.2305,0.0,0.0,0.0,0.0,0.0,1.2599,1.2719,1.2812,1.2599,1.2485,1.2425,1.2425,1.2358,1.2305,1.2305,1.2305,1.2271,1.2191,1.2004,1.1837,1.1757,1.1483,1.1309,1.1309,1.1042,1.0875,1.0875,1.0134,0.9686,0.9686,0.9125,0.8804,0.8804,0.8804,0.8804,0.8804,0.8804,0.8804,0.8804,0.8804,0.8804,0.8804,0.8804,0.8804,0.8804,0.8804,0.8644,0.842,0.8283,0.827,0.8287,0.8164,0.7768,0.7353,0.7374,0.6907,0.6312,0.0,0.0,0.0,0.0,0.0,-0.7119,-0.6397,-0.5619,-0.5183,0.0,0.0,0.0,-0.5402,-0.5402,-0.5407,-0.5431,-0.4906,-0.4448,-0.4284,-0.3528,-0.2485,-0.1378,0.0947,0.2714,0.3689,0.5214,0.6037,0.6125,0.7064,0.7343,0.6945,0.8491,0.8946,0.8466,0.9069,0.9069,0.8623,0.7508,0.7196,0.7323,0.6142,0.4813,0.3479,0.2847,0.1518,0.0269,0.2635,0.3524,0.392,0.625,0.7071,0.726,0.8442,0.9138,0.9848,1.1045,1.1842,1.2305,1.2305,1.2305,1.2305,1.2305,0.0,0.0,1.2184,1.2351,1.2512,1.2338,1.2305,1.2338,1.2465,1.2385,1.2305,1.2305,1.2405,1.2445,1.2318,1.2158,1.2051,1.2051,1.179,1.161,1.161,1.1236,1.0995,1.0995,1.0294,0.976,0.9512,0.9058,0.8804,0.8804,0.8804,0.8804,0.8804,0.8804,0.8804,0.8804,0.8804,0.8804,0.8804,0.8804,0.8804,0.8804,0.8804,0.8644,0.8427,0.8427,0.8477,0.8611,0.8437,0.8287,0.8156,0.8156,0.767,0.7074,0.0,0.0,-1.1445,-1.1119,-0.9787,-0.8598,-0.8298,-0.6645,-0.5761,0.0,-0.5785,-0.5676,-0.6669,-0.6746,-0.6685,-0.658,-0.6525,-0.6393,-0.6146,-0.5333,-0.436,-0.3165,-0.0298,0.1808,0.2877,0.5027,0.618,0.6338,0.7326,0.7706,0.7629,0.877,0.9226,0.9145,0.9221,0.8765,0.7936,0.7859,0.7911,0.7914,0.694,0.5326,0.3578,0.3463,0.2001,0.027,0.2556,0.3447,0.3926,0.6334,0.7139,0.7348,0.9018,0.9624,1.0023,1.1627,1.2224,1.2305,1.2305,1.2305,1.2305,1.2305,1.2278,0.0,1.1924,1.2044,1.2204,1.2204,1.2204,1.2298,1.2674,1.2432,1.2265,1.2298,1.2552,1.2728,1.2385,1.2351,1.2351,1.2351,1.2091,1.1917,1.1917,1.139,1.1042,1.1042,1.0468,0.986,0.9216,0.8991,0.8838,0.8804,0.8804,0.8804,0.8804,0.8804,0.8804,0.8804,0.8804,0.8804,0.8804,0.8804,0.8804,0.8804,0.8778,0.8597,0.8323,0.829,0.836,0.8427,0.8427,0.855,0.8804,0.8804,0.8374,0.783,0.0,-1.507,-1.4672,-1.2492,-1.1474,-1.0319,-0.8651,-0.8036,-0.7503,-0.6905,-0.6668,-0.6767,-0.721,-0.7027,-0.697,-0.7177,-0.6865,-0.6685,-0.6749,-0.6357,-0.5656,-0.4523,-0.2257,-0.0077,0.1854,0.3966,0.547,0.6338,0.7326,0.7403,0.6644,0.8466,0.8846,0.8161,0.8922,0.9221,0.8917,0.8161,0.7427,0.6651,0.5684,0.4556,0.3482,0.2515,0.1259,0.018,0.1619,0.278,0.3926,0.6334,0.7139,0.726,0.8197,0.9059,0.9857,1.0784,1.1694,1.2305,1.2305,1.2305,1.2305,1.2305,1.2124,0.0,1.1884,1.173,1.1597,1.1597,1.1597,1.1683,1.1984,1.1991,1.2031,1.2265,1.2552,1.2802,1.2741,1.2735,1.2735,1.2735,1.2398,1.2218,1.2218,1.1683,1.1343,1.1343,1.0581,0.986,0.9216,0.913,0.9051,0.8818,0.8804,0.8804,0.8804,0.8804,0.8804,0.8804,0.8804,0.8804,0.8804,0.8804,0.8804,0.8791,0.8564,0.829,0.7996,0.7749,0.7977,0.8427,0.8427,0.855,0.8804,0.8804,0.8699,0.8593,-1.6816,-1.6531,-1.5807,-1.4237,-1.2207,-1.0345,-0.9415,-0.8363,-0.7562,-0.7207,-0.7217,-0.7559,-0.8261,-0.8278,-0.8438,-0.9152,-0.9164,-0.8974,-0.87,-0.8098,-0.7221,-0.5912,-0.3241,-0.0961,0.0634,0.3333,0.4983,0.5473,0.6556,0.7022,0.7099,0.8089,0.8542,0.8537,0.9069,0.8993,0.8546,0.8108,0.7027,0.559,0.5105,0.4357,0.3345,0.2227,0.1424,0.0884,0.1517,0.2949,0.4641,0.5891,0.6562,0.7263,0.869,0.9466,1.0038,1.1407,1.2136,1.2492,1.2345,1.2305,1.2305,1.2305,1.2084,0.0,0.0,1.153,1.1383,1.1236,1.1323,1.147,1.1623,1.177,1.1917,1.2064,1.2458,1.2822,1.2822,1.2956,1.2919,1.2842,1.2612,1.2465,1.2318,1.1904,1.1523,1.1229,1.0668,1.008,0.9492,0.9459,0.9259,0.8824,0.8945,0.8958,0.8804,0.8804,0.8804,0.8804,0.8804,0.8804,0.8804,0.8804,0.8804,0.8791,0.8504,0.8203,0.7855,0.7595,0.7695,0.7983,0.809,0.833,0.8552,0.8324,0.848,0.8752,-1.8169,-1.7321,-1.6269,-1.5591,-1.2498,-1.0105,-1.0098,-0.8275,-0.6949,-0.7248,-0.7649,-0.8296,-0.9283,-0.967,-1.0265,-1.1146,-1.14,-1.115,-1.0307,-0.9548,-0.848,-0.701,-0.4016,-0.182,-0.0569,0.2265,0.4086,0.4719,0.5562,0.6483,0.748,0.748,0.7795,0.843,0.843,0.7833,0.6872,0.6994,0.6087,0.4555,0.4384,0.3929,0.3227,0.2202,0.1758,0.1661,0.1779,0.3217,0.5087,0.5245,0.6057,0.7172,0.8937,0.9645,1.0209,1.1664,1.247,1.2679,1.2149,1.1996,1.1983,1.171,1.1486,1.1205,0.0,0.0,0.0,1.0482,1.0756,1.0999,1.1057,1.1398,1.1717,1.1777,1.2278,1.2735,1.2735,1.2979,1.3093,1.2856,1.2768,1.2565,1.2325,1.2037,1.1623,1.1035,1.0775,1.0388,0.98,0.9766,0.9526,0.8991,0.9145,0.907,0.8891,0.8838,0.8804,0.8804,0.8804,0.8804,0.8804,0.8804,0.8804,0.8791,0.8444,0.815,0.7855,0.7528,0.7426,0.7415,0.7789,0.811,0.8353,0.7899,0.8103,0.848,-1.9754,-1.8775,-1.7393,-1.5421,-1.2723,-1.055,-1.0019,-0.7971,-0.6634,-0.6939,-0.8313,-0.9393,-0.9733,-1.0801,-1.1547,-1.1819,-1.1584,-1.1046,-0.9956,-0.9409,-0.8511,-0.7173,-0.5546,-0.3752,-0.1662,-0.0326,0.1773,0.4676,0.4815,0.5392,0.649,0.649,0.6006,0.5231,0.5231,0.4642,0.3652,0.3662,0.3547,0.3364,0.2417,0.2621,0.3456,0.2226,0.1815,0.1785,0.1788,0.2681,0.3916,0.4802,0.5895,0.6881,0.693,0.8286,0.9857,0.976,1.1158,1.2527,1.1309,1.0932,1.073,0.9704,0.9185,0.8953,0.8785,0.0,0.8354,0.8327,0.0,0.9628,0.9856,0.0,0.0,1.1436,1.1971,1.2351,1.2351,1.2846,1.3093,1.2856,1.2512,1.2338,1.2305,1.2037,1.1623,1.1035,1.0962,1.0688,1.01,1.0067,0.992,0.9593,0.9359,0.917,0.9137,0.8938,0.8804,0.8804,0.8804,0.8804,0.8804,0.8804,0.8804,0.8778,0.8223,0.7915,0.7842,0.7308,0.7074,0.7128,0.7656,0.811,0.8353,0.7899,0.7777,0.7723,-2.0182,-1.9142,-1.7851,-1.636,-1.3815,-1.1682,-1.0952,-0.978,-0.9095,-0.9345,-1.0237,-1.1172,-1.1994,-1.2579,-1.3222,-1.3862,-1.3978,-1.3665,-1.2917,-1.1456,-1.0318,-0.9569,-0.6985,-0.4721,-0.3039,-0.1203,0.076,0.289,0.417,0.5015,0.5424,0.6064,0.5775,0.4695,0.4695,0.4097,0.3101,0.3142,0.2834,0.2252,0.1906,0.209,0.2453,0.1207,0.0774,0.0778,0.0778,0.1898,0.3524,0.3916,0.5218,0.6737,0.7419,0.8184,0.9007,0.9383,1.0252,1.0815,1.0111,0.9895,0.9761,0.9233,0.8862,0.8568,0.8409,0.8184,0.8027,0.8027,0.0,0.0,0.0,0.0,0.0,0.0,1.1523,1.1797,1.1797,1.2164,1.2512,1.2795,1.2714,1.2492,1.2318,1.2191,1.1877,1.1289,1.1243,1.0915,1.0154,1.0281,1.016,0.9699,0.9559,0.9412,0.9183,0.8951,0.8804,0.8804,0.8804,0.8804,0.8804,0.8804,0.8804,0.8784,0.837,0.809,0.7848,0.7455,0.7281,0.7308,0.7562,0.7849,0.8072,0.7786,0.7723,0.7616,-2.1037,-1.9851,-1.853,-1.7493,-1.5086,-1.2802,-1.1462,-1.1017,-1.0894,-1.1199,-1.189,-1.2778,-1.3626,-1.4153,-1.4677,-1.5438,-1.5705,-1.5363,-1.4197,-1.262,-1.1258,-1.0371,-0.7336,-0.509,-0.3751,-0.1783,0.0,0.1607,0.3528,0.4568,0.474,0.5681,0.5456,0.4287,0.4014,0.324,0.2222,0.2346,0.2099,0.1662,0.14,0.1477,0.1632,0.0775,0.0255,0.0,0.0336,0.1678,0.3432,0.3658,0.492,0.6642,0.7507,0.7961,0.8361,0.9008,0.9418,0.9564,0.8978,0.8874,0.8764,0.8288,0.8036,0.7854,0.7604,0.7465,0.7315,0.7326,0.7967,0.0,0.0,0.0,1.0542,1.0542,0.0,1.1309,1.1309,1.163,1.2058,1.2565,1.2775,1.2701,1.2331,1.2305,1.2058,1.147,1.1423,1.1076,1.0281,1.0441,1.0423,0.9933,0.9846,0.9659,0.9365,0.9072,0.8884,0.8804,0.8804,0.8804,0.8804,0.8804,0.8764,0.8671,0.8377,0.8083,0.7782,0.7468,0.7439,0.7513,0.7513,0.7709,0.8006,0.7689,0.7505,0.7289,-2.2915,-2.1557,-1.9889,-1.8507,-1.6243,-1.3768,-1.1056,-1.0724,-1.0942,-1.1384,-1.2783,-1.3708,-1.3837,-1.5038,-1.573,-1.5812,-1.5825,-1.4752,-1.2216,-1.1708,-1.0362,-0.7785,-0.6244,-0.4838,-0.366,-0.2413,-0.0619,0.1558,0.2879,0.3936,0.4853,0.491,0.4394,0.328,0.2198,0.1117,0.009,0.009,0.0717,0.1699,0.0538,0.0699,0.1594,0.1679,0.0995,0.0163,0.1165,0.2347,0.3506,0.4408,0.5505,0.6451,0.6393,0.7223,0.8177,0.7919,0.8763,0.9374,0.7974,0.7714,0.7501,0.6061,0.5885,0.5978,0.5602,0.5613,0.5607,0.5522,0.6207,0.6785,0.6785,0.8161,0.935,0.935,1.0288,0.0,0.0,1.1503,1.1984,1.2278,1.2572,1.2701,1.2331,1.2305,1.2058,1.147,1.1423,1.1169,1.0638,1.0618,1.0618,1.0598,1.0254,0.9967,0.9673,0.9372,0.903,0.8804,0.8804,0.8804,0.8804,0.8804,0.8657,0.837,0.8076,0.7769,0.75,0.7161,0.7208,0.7513,0.7513,0.7883,0.8307,0.7556,0.7037,0.6534,-2.4142,-2.2975,-2.1574,-2.0329,-1.7872,-1.5412,-1.343,-1.3244,-1.3471,-1.4285,-1.5013,-1.5422,-1.5512,-1.5822,-1.6046,-1.5845,-1.5832,-1.5051,-1.3295,-1.2278,-1.0957,-0.9235,-0.7043,-0.5227,-0.3892,-0.2627,-0.1108,0.0543,0.2564,0.3646,0.3852,0.5355,0.5092,0.3303,0.2773,0.1621,0.0088,0.0891,0.1433,0.1786,0.217,0.2465,0.2756,0.2672,0.239,0.2056,0.2354,0.3207,0.4126,0.4334,0.5127,0.602,0.5973,0.6282,0.6607,0.6478,0.6795,0.706,0.6615,0.6585,0.6488,0.5864,0.5803,0.5786,0.544,0.5403,0.5423,0.5439,0.6075,0.685,0.7437,0.8484,0.9466,1.0047,1.045,1.0708,0.0,1.1376,1.1904,1.2004,1.2278,1.2412,1.2311,1.1951,1.1643,1.1443,1.1069,1.0768,1.0631,1.0624,1.0624,1.0624,1.0274,0.9973,0.9686,0.9385,0.9044,0.8804,0.8804,0.8804,0.8804,0.8804,0.8651,0.842,0.827,0.7936,0.7506,0.7361,0.7419,0.7493,0.7248,0.7669,0.8377,0.8119,0.7396,0.6426,-2.4026,-2.334,-2.2479,-2.1779,-1.9114,-1.6558,-1.4939,-1.4397,-1.4479,-1.5115,-1.496,-1.4863,-1.4863,-1.4783,-1.4661,-1.4388,-1.437,-1.3884,-1.2619,-1.1671,-1.0572,-0.9315,-0.6611,-0.4785,-0.3927,-0.2193,-0.0843,0.0,0.2332,0.3432,0.3336,0.5183,0.5317,0.3851,0.3323,0.236,0.1217,0.2024,0.2399,0.2493,0.3496,0.3936,0.3918,0.4137,0.373,0.3079,0.3334,0.3896,0.4449,0.5026,0.5718,0.6226,0.6226,0.6226,0.623,0.5871,0.58,0.5813,0.5861,0.5949,0.5979,0.5776,0.6015,0.6297,0.5977,0.6167,0.6352,0.635,0.6672,0.7278,0.8243,0.8713,0.9389,1.0595,1.0718,1.08,0.0,1.1977,1.2336,1.2186,1.2376,1.2378,1.2171,1.1897,1.161,1.1296,1.1116,1.0954,1.0645,1.0719,1.0668,1.0624,1.0374,1.008,0.9686,0.9492,0.9198,0.8804,0.8804,0.8804,0.8804,0.8804,0.8651,0.842,0.8263,0.7929,0.7506,0.7348,0.7412,0.7493,0.7255,0.7669,0.8363,0.8257,0.7526,0.6426,-2.2835,-2.2733,-2.2673,-2.2529,-1.9923,-1.7172,-1.5287,-1.421,-1.3756,-1.4034,-1.2966,-1.2169,-1.2169,-1.2087,-1.196,-1.1945,-1.1945,-1.1356,-1.0083,-0.9912,-0.914,-0.7797,-0.5172,-0.3764,-0.369,-0.1318,0.0,0.0087,0.2215,0.3322,0.3522,0.4503,0.4918,0.4846,0.3678,0.3233,0.328,0.3374,0.3505,0.3824,0.4688,0.5027,0.5085,0.5965,0.492,0.3161,0.4208,0.4438,0.4563,0.641,0.7053,0.7049,0.7041,0.7045,0.6907,0.6044,0.5769,0.5749,0.5682,0.5858,0.6012,0.5797,0.6572,0.7292,0.7005,0.7604,0.8153,0.8007,0.7721,0.7866,0.8995,0.878,0.9076,1.0865,1.0944,1.1295,1.2607,1.3143,1.3252,1.2811,1.2832,1.2628,1.1995,1.2078,1.1877,1.1076,1.1516,1.1463,1.0692,1.0868,1.0895,1.0658,1.0645,1.0294,0.9693,0.9686,0.9385,0.8804,0.8804,0.8804,0.8804,0.8804,0.8651,0.8357,0.8076,0.7776,0.7513,0.7181,0.7235,0.7533,0.7533,0.7896,0.8343,0.7973,0.73,0.6426,-2.3794,-2.3482,-2.2374,-1.9934,-1.8662,-1.7328,-1.5561,-1.4093,-1.3444,-1.4172,-1.3171,-1.2379,-1.2379,-1.2328,-1.2127,-1.196,-1.1945,-1.1293,-0.9987,-0.9836,-0.8791,-0.6404,-0.4662,-0.3411,-0.2455,-0.0842,0.0462,0.1364,0.2656,0.373,0.4711,0.5603,0.5681,0.49,0.4463,0.3828,0.322,0.4178,0.5252,0.6222,0.622,0.6197,0.6239,0.6089,0.5619,0.5125,0.5343,0.5405,0.5275,0.5712,0.6273,0.6643,0.5858,0.6168,0.6614,0.5463,0.5301,0.5666,0.6285,0.6563,0.6786,0.7377,0.7766,0.7912,0.7778,0.7917,0.8032,0.8037,0.7721,0.7943,0.9401,0.9385,0.9771,1.1748,1.2249,1.2554,1.2923,1.349,1.3852,1.3743,1.3953,1.3502,1.2019,1.1411,1.1096,1.1296,1.1256,1.1122,1.0895,1.1369,1.141,1.0902,1.0882,1.0494,0.9693,0.9686,0.9385,0.8804,0.8804,0.8804,0.8804,0.8804,0.8651,0.837,0.8297,0.809,0.7802,0.7682,0.7742,0.7816,0.7816,0.8043,0.8283,0.7275,0.6812,0.6426,-2.2921,-2.2524,-2.1362,-1.8986,-1.8048,-1.6903,-1.4851,-1.3467,-1.2614,-1.2506,-1.1372,-1.058,-1.058,-1.0501,-1.0406,-1.0203,-1.0112,-0.9732,-0.896,-0.8398,-0.7367,-0.5881,-0.4047,-0.2711,-0.204,-0.0183,0.1084,0.1773,0.3197,0.4329,0.504,0.6,0.606,0.5504,0.5424,0.5159,0.4692,0.5595,0.6443,0.7112,0.6817,0.6661,0.0,0.6176,0.5895,0.5708,0.5708,0.5613,0.5535,0.5767,0.6157,0.6442,0.5763,0.6014,0.6369,0.5307,0.5428,0.6075,0.6588,0.706,0.7618,0.8097,0.8498,0.873,0.8662,0.8879,0.925,0.9615,0.9248,0.9424,1.1152,1.0887,1.095,1.2558,1.3467,1.3917,1.3808,1.4301,1.4559,1.4182,1.4453,1.4206,1.2952,1.2153,1.202,1.2647,1.2062,1.1647,1.1579,1.1628,1.1463,1.1009,1.0995,1.0635,0.988,0.9873,0.9512,0.8804,0.8804,0.8804,0.8804,0.8804,0.8717,0.8557,0.843,0.8277,0.8116,0.7935,0.7882,0.7895,0.8076,0.8303,0.8474,0.7458,0.6858,0.6426,-2.1115,-2.0734,-2.0167,-1.8848,-1.7854,-1.6394,-1.3625,-1.2533,-1.1681,-1.0588,-0.9105,-0.8204,-0.8184,-0.8062,-0.798,-0.798,-0.7664,-0.7571,-0.7531,-0.6283,-0.546,-0.5322,-0.3135,-0.1905,-0.1777,0.0355,0.1571,0.2021,0.3678,0.4712,0.5122,0.594,0.6338,0.6338,0.6338,0.6424,0.6719,0.6973,0.7105,0.7112,0.6817,0.661,0.6437,0.6118,0.583,0.5589,0.5566,0.5474,0.547,0.6069,0.632,0.6349,0.6073,0.6197,0.6212,0.5362,0.5855,0.6642,0.6874,0.7555,0.8276,0.841,0.9031,0.9651,0.9778,1.0329,1.0975,1.172,1.1388,1.1478,1.3233,1.2773,1.2525,1.369,1.4614,1.5118,1.5028,1.5341,1.5321,1.4533,1.4891,0.0,1.4516,1.3801,1.3631,1.4321,1.3395,1.2721,1.25,1.2002,1.1567,1.1062,1.1049,1.0768,1.018,1.01,0.9659,0.8864,0.8824,0.8804,0.8804,0.8804,0.8804,0.8791,0.8544,0.843,0.841,0.815,0.7995,0.807,0.833,0.8584,0.8699,0.7996,0.7289,0.6534,-1.9393,-1.9457,-1.9307,-1.8141,-1.778,-1.6355,-1.2748,-1.1884,-1.1622,-1.1436,-0.9332,-0.7848,-0.7729,-0.7692,-0.7678,-0.7678,-0.6783,-0.6112,-0.6006,-0.4869,-0.3621,-0.2578,-0.2087,-0.139,-0.0341,0.0085,0.1281,0.3274,0.3319,0.4428,0.6404,0.6307,0.6338,0.6338,0.6338,0.6424,0.6705,0.6756,0.6919,0.7112,0.6817,0.661,0.6427,0.6003,0.5735,0.5576,0.5447,0.5452,0.5404,0.5371,0.5821,0.6204,0.5285,0.5533,0.6152,0.5608,0.576,0.6415,0.7602,0.828,0.8873,0.9575,1.0065,1.0558,1.1227,1.1498,1.1697,1.2214,1.2354,1.259,1.3152,1.4042,1.5023,1.617,1.5935,1.5745,1.6136,1.6347,1.6305,1.5805,1.6152,1.6325,1.6265,1.4945,1.4272,1.463,1.4661,1.414,1.2855,1.3371,1.3014,1.1376,1.1349,1.1069,1.0488,1.0,0.9559,0.9103,0.8925,0.8804,0.8804,0.8804,0.8804,0.8804,0.8751,0.8731,0.8731,0.8677,0.8651,0.8657,0.8711,0.8764,0.8699,0.7996,0.7616,0.7396,-1.9158,-1.8835,-1.8411,-1.7777,-1.7131,-1.5846,-1.3227,-1.2152,-1.1128,-0.9806,-0.8571,-0.7465,-0.6753,-0.6641,-0.6452,-0.579,-0.512,-0.474,-0.465,-0.3446,-0.2512,-0.1847,-0.1188,-0.0592,0.0,0.0579,0.1752,0.3578,0.3822,0.4854,0.6695,0.6396,0.6567,0.7103,0.7188,0.6965,0.6705,0.6783,0.6902,0.701,0.679,0.6519,0.621,0.5915,0.5937,0.6187,0.6102,0.6278,0.6365,0.5318,0.5264,0.5575,0.5232,0.5526,0.6039,0.6192,0.6687,0.7387,0.8097,0.8774,0.9398,0.9768,1.0285,1.0785,1.1413,1.182,1.2373,1.3274,1.3396,1.3537,1.4291,1.5213,1.6145,1.6908,1.6632,1.6331,1.6476,1.6246,1.5967,1.5752,1.5918,1.623,1.6689,1.6427,1.6102,1.5731,1.5455,1.4706,1.3322,1.3569,1.3013,1.1443,1.1423,1.1223,1.0788,1.02,0.9686,0.9183,0.8945,0.8804,0.8804,0.8804,0.8804,0.8804,0.8804,0.8804,0.8804,0.8804,0.8804,0.8804,0.8804,0.8804,0.8752,0.8427,0.8049,0.7616,-1.8613,-1.7649,-1.6815,-1.6743,-1.5705,-1.4396,-1.3008,-1.1885,-1.0485,-0.8379,-0.7617,-0.6893,-0.5818,-0.5506,-0.4935,-0.4007,-0.3602,-0.3341,-0.3414,-0.2131,-0.142,-0.1406,-0.05,0.0083,0.0323,0.1124,0.2263,0.38,0.4377,0.5492,0.6923,0.6824,0.7262,0.8231,0.8418,0.7951,0.7037,0.7161,0.7066,0.6912,0.6725,0.642,0.6057,0.6089,0.6321,0.6766,0.6815,0.714,0.7278,0.5828,0.5344,0.5351,0.5652,0.587,0.6111,0.6839,0.7643,0.8259,0.8431,0.901,0.9643,0.9815,1.0244,1.086,1.1515,1.2117,1.2889,1.4215,1.444,1.4713,1.5948,1.6508,1.6943,1.7383,1.7077,1.6752,1.6532,1.5944,1.5518,1.542,1.5605,1.6019,1.6572,1.7636,1.7882,1.7133,1.6383,1.5451,1.4098,1.3799,1.2998,1.153,1.1523,1.141,1.1182,1.0414,0.9793,0.9325,0.8978,0.8804,0.8804,0.8804,0.8804,0.8804,0.8804,0.8804,0.8804,0.8804,0.8804,0.8804,0.8804,0.8804,0.8804,0.8804,0.8427,0.783,-1.6026,-1.4855,-1.3938,-1.3689,-1.2631,-1.1441,-0.9962,-0.9719,-0.9582,-0.9237,-0.7207,-0.5702,-0.5492,-0.4418,-0.3758,-0.3671,-0.265,-0.2007,-0.1966,-0.0833,-0.0165,-0.0158,-0.0081,0.0484,0.1416,0.1385,0.2382,0.4562,0.4696,0.5705,0.7687,0.8053,0.8662,0.9526,0.9827,0.9285,0.8086,0.8176,0.7708,0.6902,0.661,0.639,0.636,0.6783,0.695,0.6933,0.7291,0.7456,0.7439,0.6905,0.6711,0.6672,0.6554,0.649,0.6673,0.743,0.7668,0.7901,0.8558,0.9024,0.939,1.0093,1.0465,1.1084,1.2462,1.2811,1.3131,1.4195,1.5348,1.6551,1.7718,1.7984,1.8153,1.851,1.7588,1.6752,1.6532,1.6216,1.5859,1.5459,1.6402,1.6877,1.6535,1.8002,1.8814,1.838,1.8307,1.747,1.5515,1.5027,1.3899,1.1908,1.183,1.1817,1.179,1.0414,0.9699,0.9633,0.9072,0.8804,0.8804,0.8804,0.8804,0.8804,0.8804,0.8804,0.8804,0.8804,0.8804,0.8804,0.8804,0.8804,0.8804,0.8804,0.8752,0.8699,-1.3028,-1.2484,-1.2147,-1.1899,-1.162,-1.087,-0.9305,-0.8519,-0.7888,-0.687,-0.6133,-0.5001,-0.3452,-0.2817,-0.2209,-0.1532,-0.0494,0.008,0.0079,0.1107,0.1721,0.1764,0.1803,0.2053,0.2503,0.2368,0.3052,0.4688,0.5369,0.6451,0.7787,0.8746,0.9242,0.9509,1.0209,0.9933,0.8955,0.903,0.8519,0.7613,0.8108,0.7727,0.6849,0.7704,0.8132,0.8401,0.9087,0.9525,0.984,1.0189,0.8775,0.6925,0.7198,0.7235,0.7396,0.8156,0.8374,0.8427,0.8699,0.9143,0.9652,0.991,1.068,1.1572,1.2467,1.2954,1.3474,1.4233,1.5452,1.6676,1.756,1.8254,1.8573,1.8295,1.7691,1.7082,1.6574,1.6024,1.5518,1.5088,1.5848,1.6434,1.6472,1.8317,1.9587,1.9947,1.9397,1.8209,1.6423,1.5396,1.4237,1.305,1.1957,1.151,1.1864,1.0588,0.986,0.9679,0.9265,0.8978,0.8804,0.8804,0.8804,0.8804,0.8804,0.8804,0.8804,0.8804,0.8804,0.8804,0.8804,0.8804,0.8804,0.8804,0.8804,0.8804,-1.1075,-1.0733,-1.042,-0.9928,-0.9584,-0.894,-0.7481,-0.6672,-0.5728,-0.4241,-0.4309,-0.3787,-0.2017,-0.1167,-0.0499,0.0417,0.1275,0.1782,0.1782,0.2421,0.2835,0.2835,0.2956,0.3146,0.3475,0.3398,0.3834,0.5047,0.6129,0.7084,0.7982,0.9661,1.0362,1.0201,1.1395,1.1218,1.0,1.0301,0.9678,0.851,0.9155,0.8788,0.7875,0.8946,0.9513,0.9965,1.0836,1.1337,1.1721,1.2159,1.0475,0.8306,0.8676,0.8831,0.8878,0.9022,0.9211,0.9361,0.9159,0.9562,1.0167,1.0364,1.1116,1.1945,1.2466,1.2957,1.3511,1.4104,1.5398,1.6513,1.6951,1.7934,1.8432,1.7624,1.7355,1.698,1.6136,1.5568,1.5156,1.499,1.5825,1.66,1.6981,1.8759,2.01,2.0569,1.9684,1.8581,1.7417,1.5856,1.4584,1.3738,1.2096,1.145,1.1864,1.0701,0.9973,0.9679,0.9379,0.903,0.8804,0.8804,0.8804,0.8804,0.8804,0.8804,0.8804,0.8804,0.8804,0.8804,0.8804,0.8804,0.8804,0.8804,0.8804,0.8804,-1.0669,-0.97,-0.8535,-0.7184,-0.5927,-0.4782,-0.3544,-0.35,-0.3192,-0.1832,-0.1735,-0.1799,-0.184,0.0247,0.1543,0.1543,0.2409,0.2869,0.2869,0.28,0.2687,0.2687,0.2688,0.3233,0.444,0.4267,0.472,0.5806,0.6822,0.7655,0.8451,1.1019,1.2305,1.2325,1.3892,1.3206,1.1093,1.2145,1.1449,0.9438,0.9387,0.9296,0.9386,1.0606,1.1083,1.1236,1.224,1.2597,1.248,1.1739,1.1472,1.1464,1.1464,1.1456,1.1231,1.0112,1.0261,1.061,0.9969,1.0261,1.0965,1.1616,1.1765,1.1972,1.2725,1.2891,1.3065,1.3695,1.5173,1.6386,1.6226,1.7132,1.763,1.668,1.6482,1.611,1.4956,1.4795,1.4941,1.5352,1.68,1.789,1.827,1.9575,2.0208,1.9638,1.9,1.8628,1.8701,1.67,1.5016,1.3753,1.2506,1.1864,1.187,1.0701,0.9973,0.9679,0.9379,0.903,0.8804,0.8804,0.8804,0.8804,0.8804,0.8804,0.8804,0.8804,0.8804,0.8804,0.8804,0.8804,0.8804,0.8804,0.8804,0.8804,-0.6612,-0.5745,-0.4943,-0.4443,-0.4106,-0.3716,-0.322,-0.263,-0.208,-0.1628,-0.0379,0.0542,0.0546,0.1182,0.1811,0.24,0.3298,0.3719,0.3654,0.426,0.4666,0.4666,0.4742,0.502,0.5355,0.5782,0.619,0.6545,0.8333,0.9727,1.0804,1.1383,1.2157,1.2998,1.3489,1.3775,1.3857,1.4229,1.3411,1.1952,1.2607,1.2103,1.1222,1.2255,1.258,1.2531,1.3374,1.3503,1.3305,1.3663,1.3558,1.3224,1.2945,1.2032,1.0962,1.06,1.061,1.0762,1.0517,1.0965,1.1516,1.1765,1.2187,1.2608,1.2832,1.2881,1.3065,1.3684,1.4758,1.5714,1.6093,1.7006,1.733,1.6242,1.6111,1.568,1.4503,1.4336,1.4394,1.4521,1.5704,1.6547,1.6643,1.8126,1.8907,1.8375,1.8376,1.8188,1.767,1.5949,1.4712,1.4074,1.2221,1.1463,1.1864,1.0902,1.0267,0.9973,0.9679,0.9285,0.8804,0.8804,0.8804,0.8804,0.8804,0.8804,0.8804,0.8804,0.8804,0.8804,0.8804,0.8804,0.8804,0.8804,0.8804,0.8804,-0.4215,-0.3601,-0.3122,-0.2604,-0.2582,-0.2518,-0.1994,-0.1419,-0.0896,-0.0575,0.0659,0.1793,0.2636,0.2655,0.281,0.3469,0.4235,0.4689,0.461,0.5186,0.5504,0.5504,0.5928,0.6139,0.6205,0.6996,0.7414,0.7414,0.9029,1.0374,1.1444,1.1296,1.1824,1.2893,1.3423,1.4005,1.4759,1.5103,1.4525,1.3407,1.399,1.3592,1.2767,1.357,1.378,1.3743,1.4387,1.4369,1.412,1.4424,1.4258,1.3828,1.3408,1.251,1.1534,1.1266,1.1375,1.1534,1.1266,1.1674,1.2187,1.2187,1.2559,1.2881,1.2881,1.2881,1.3017,1.3372,1.4084,1.4771,1.5124,1.5834,1.6127,1.5326,1.5208,1.4905,1.4008,1.3844,1.4014,1.4336,1.529,1.5962,1.5951,1.6948,1.7259,1.6417,1.6553,1.636,1.5578,1.5047,1.4527,1.4052,1.2131,1.1329,1.1697,1.0942,1.0354,0.9953,0.9546,0.9158,0.8804,0.8804,0.8804,0.8804,0.8804,0.8804,0.8804,0.8804,0.8804,0.8804,0.8804,0.8804,0.8804,0.8804,0.8804,0.8804,-0.3177,-0.289,-0.2604,-0.1667,-0.148,-0.1111,-0.0071,0.0073,0.037,0.1262,0.1426,0.2265,0.4256,0.4403,0.4385,0.4559,0.517,0.5586,0.5576,0.5507,0.5491,0.5491,0.6334,0.6867,0.698,0.7803,0.8275,0.8342,0.9026,0.9748,1.0631,1.0815,1.1393,1.233,1.3566,1.4065,1.4156,1.4997,1.485,1.4049,1.4049,1.4032,1.404,1.4585,1.4772,1.478,1.5252,1.5117,1.4678,1.4268,1.3786,1.3389,1.3008,1.2881,1.2774,1.208,1.2344,1.2764,1.208,1.2393,1.2881,1.2881,1.2881,1.2881,1.2881,1.2881,1.2881,1.2881,1.3354,1.3728,1.3529,1.4003,1.4337,1.4076,1.4038,1.3945,1.3525,1.3486,1.3818,1.4639,1.5454,1.5894,1.589,1.5898,1.5374,1.4058,1.3971,1.3643,1.2683,1.3911,1.4297,1.3622,1.2144,1.1423,1.1423,1.0828,1.0247,0.9679,0.9112,0.8838,0.8838,0.8818,0.8804,0.8804,0.8804,0.8804,0.8804,0.8804,0.8804,0.8804,0.8804,0.8804,0.8804,0.8804,0.8804,0.8804,-0.1777,-0.1164,-0.0691,-0.0423,-0.0356,-0.0071,0.0841,0.099,0.1337,0.2241,0.3048,0.3743,0.4189,0.488,0.53,0.5332,0.5487,0.5542,0.5423,0.6032,0.6396,0.6396,0.7242,0.7722,0.771,0.8571,0.9356,1.0007,0.9768,0.9938,1.0618,1.0401,1.1358,1.3283,1.3564,1.4597,1.6064,1.6265,1.6075,1.5576,1.5576,1.5378,1.5087,1.5172,1.5203,1.5252,1.5391,1.4922,1.4268,1.4116,1.3643,1.3018,1.291,1.2881,1.2881,1.2666,1.2774,1.2871,1.2666,1.2774,1.2881,1.2881,1.2881,1.2881,1.2881,1.2881,1.2881,1.2881,1.3273,1.3581,1.3486,1.3864,1.4054,1.3691,1.3652,1.3506,1.3086,1.3311,1.3701,1.4228,1.422,1.4325,1.4584,1.4081,1.342,1.2672,1.2922,1.275,1.2102,1.2597,1.281,1.2666,1.18,1.1423,1.1423,1.0621,1.004,0.9679,0.9312,0.9084,0.9077,0.8911,0.8804,0.8804,0.8804,0.8804,0.8804,0.8804,0.8804,0.8804,0.8804,0.8804,0.8804,0.8804,0.8804,0.8804,-0.0806,-0.0337,0.0,0.0,0.0,0.0279,0.1168,0.1316,0.1797,0.309,0.3797,0.4267,0.4809,0.5248,0.5716,0.6123,0.5795,0.5649,0.5951,0.6461,0.685,0.7307,0.8156,0.8613,0.8613,0.9277,0.9854,1.0221,0.984,0.9846,1.0154,0.9993,1.0959,1.2846,1.2846,1.3965,1.584,1.584,1.5989,1.6226,1.594,1.5851,1.5864,1.5526,1.5584,1.5921,1.5921,1.5346,1.4578,1.4578,1.3861,1.2881,1.2881,1.2881,1.2881,1.2881,1.2881,1.2881,1.2881,1.2881,1.2881,1.2881,1.2881,1.2881,1.2881,1.2881,1.2881,1.2881,1.3066,1.3223,1.3223,1.3408,1.3486,1.3262,1.3379,1.3428,1.3203,1.3525,1.3787,1.3874,1.3727,1.3482,1.3141,1.2833,1.2183,1.1059,1.1303,1.1201,1.0443,1.0951,1.1526,1.2098,1.1663,1.1363,1.1229,1.0488,1.004,0.9873,0.9446,0.9183,0.9176,0.8938,0.8804,0.8804,0.8804,0.8804,0.8804,0.8804,0.8804,0.8804,0.8804,0.8804,0.8804,0.8804,0.8804,0.8804,-0.0135,0.0,0.0067,0.0202,0.0206,0.0553,0.1547,0.1709,0.2338,0.3961,0.4215,0.4593,0.5672,0.5635,0.5992,0.6911,0.6187,0.604,0.6742,0.6936,0.7307,0.8052,0.8891,0.9346,0.9346,0.9768,0.9886,0.9686,0.9599,0.9599,0.9686,0.9748,1.0528,1.1894,1.2064,1.309,1.4697,1.4824,1.5491,1.6388,1.5786,1.6036,1.6595,1.5968,1.614,1.6652,1.6652,1.6093,1.5339,1.5339,1.4295,1.3065,1.3065,1.2968,1.2881,1.2881,1.2881,1.2881,1.2881,1.2881,1.2881,1.2881,1.2881,1.2881,1.2881,1.2881,1.2881,1.2881,1.2881,1.2881,1.2881,1.2881,1.29,1.2969,1.333,1.3603,1.3603,1.4023,1.4105,1.3657,1.3566,1.3016,1.1735,1.1694,1.1142,0.9579,0.9649,0.9513,0.8783,0.9518,1.0441,1.1447,1.1401,1.1182,1.0802,1.0254,0.9987,0.998,0.9376,0.9143,0.9176,0.8938,0.8804,0.8804,0.8804,0.8804,0.8804,0.8804,0.8804,0.8804,0.8804,0.8804,0.8804,0.8804,0.8804,0.8804,0.0,0.0,0.0202,0.0939,0.1077,0.1683,0.3347,0.356,0.3969,0.5027,0.516,0.5495,0.6432,0.6544,0.6733,0.7365,0.7259,0.724,0.7366,0.8042,0.8449,0.8366,0.9151,0.9636,0.9636,0.9411,0.9472,0.9686,0.9185,0.9198,0.9679,1.003,1.08,1.1967,1.2915,1.3663,1.4277,1.501,1.5582,1.6027,1.6213,1.6754,1.7413,1.7302,1.7357,1.7413,1.7413,1.6846,1.6025,1.6025,1.4979,1.3637,1.3637,1.3334,1.2881,1.2881,1.2881,1.2881,1.2881,1.2881,1.2881,1.2881,1.2881,1.2881,1.2881,1.2881,1.2881,1.2881,1.2881,1.2881,1.2881,1.2881,1.2998,1.335,1.376,1.398,1.398,1.4717,1.4811,1.372,1.327,1.244,1.0864,1.011,0.9643,0.9327,0.8706,0.8678,0.9495,0.9437,0.9539,0.9711,1.056,1.0681,0.9893,0.9546,0.9316,0.9316,0.9031,0.9005,0.9176,0.8938,0.8804,0.8804,0.8804,0.8804,0.8804,0.8804,0.8804,0.8804,0.8804,0.8804,0.8804,0.8804,0.8804,0.8804,0.1477,0.1477,0.161,0.2009,0.2076,0.2476,0.3813,0.4015,0.435,0.5292,0.5676,0.6,0.6378,0.6732,0.7187,0.7941,0.799,0.8115,0.8405,0.8515,0.8723,0.9084,0.9499,0.9613,0.9446,0.9256,0.9232,0.9212,0.8938,0.9152,0.9733,0.996,1.0798,1.2217,1.2503,1.3171,1.4107,1.4561,1.5159,1.5921,1.5899,1.6368,1.7034,1.7034,1.7246,1.7633,1.8058,1.7583,1.6776,1.6776,1.566,1.4236,1.3909,1.36,1.3324,1.3027,1.2881,1.2881,1.2881,1.2881,1.2881,1.2881,1.2881,1.2881,1.2881,1.2881,1.2881,1.2881,1.2881,1.2881,1.2881,1.3066,1.3281,1.3477,1.4248,1.4824,1.4824,1.5134,1.4885,1.3752,1.2609,1.1368,0.9958,0.9244,0.8607,0.8077,0.7679,0.7525,0.7482,0.7652,0.7726,0.7726,0.9413,1.0094,0.9686,0.9546,0.9479,0.9479,0.9178,0.9057,0.9176,0.8938,0.8804,0.8804,0.8804,0.8804,0.8804,0.8804,0.8804,0.8804,0.8804,0.8804,0.8804,0.8804,0.8804,0.8804,0.2678,0.2678,0.2737,0.2918,0.2998,0.3272,0.4114,0.4369,0.4766,0.5498,0.6054,0.6498,0.6679,0.7154,0.7747,0.8515,0.8567,0.8744,0.9103,0.8708,0.8769,0.9479,0.9479,0.9372,0.909,0.9084,0.9031,0.8804,0.8804,0.9159,0.9814,0.9961,1.0875,1.2344,1.2218,1.2776,1.3857,1.4,1.4737,1.5699,1.5578,1.6105,1.7034,1.7034,1.7468,1.8167,1.8768,1.8316,1.7533,1.7533,1.6338,1.4835,1.4365,1.4133,1.3873,1.3286,1.291,1.2666,1.2832,1.2881,1.2881,1.2881,1.2881,1.2881,1.2881,1.2881,1.2881,1.2881,1.2881,1.2881,1.2881,1.3223,1.3545,1.3633,1.4727,1.5469,1.5186,1.5263,1.4749,1.3068,1.166,1.0218,0.8823,0.8245,0.7673,0.6937,0.6747,0.6527,0.6086,0.6374,0.6709,0.6922,0.8534,0.9407,0.9579,0.9512,0.9479,0.9479,0.9252,0.9084,0.9077,0.8911,0.8804,0.8804,0.8804,0.8804,0.8804,0.8804,0.8804,0.8804,0.8804,0.8804,0.8804,0.8804,0.8804,0.8804,0.2678,0.2678,0.292,0.3616,0.3813,0.4177,0.491,0.5583,0.6081,0.6148,0.6669,0.732,0.8145,0.8305,0.8503,0.9062,0.9154,0.9035,0.8858,0.8805,0.8818,0.8871,0.8871,0.8864,0.8838,0.8838,0.8831,0.8804,0.8804,0.9159,0.9814,1.0415,1.1133,1.1877,1.2919,1.3221,1.3027,1.3799,1.4556,1.5279,1.5689,1.6938,1.8555,1.8555,1.898,1.9643,1.9695,1.9058,1.8144,1.8144,1.6956,1.5543,1.5499,1.5096,1.4514,1.3909,1.2851,1.203,1.2715,1.2881,1.2881,1.2881,1.2881,1.2881,1.2881,1.2881,1.2881,1.2881,1.2881,1.2881,1.2881,1.3223,1.3633,1.397,1.5176,1.5629,1.4437,1.4952,1.4307,1.1087,1.0577,0.9551,0.7107,0.6863,0.6802,0.6741,0.5966,0.6094,0.7312,0.7147,0.7544,0.859,0.8417,0.8596,0.9216,0.9005,0.8871,0.8871,0.8851,0.8838,0.8838,0.8818,0.8804,0.8804,0.8804,0.8804,0.8804,0.8804,0.8804,0.8804,0.8804,0.8804,0.8804,0.8804,0.8804,0.8804,0.4353,0.4353,0.4443,0.4574,0.5175,0.5745,0.5907,0.6505,0.7001,0.7001,0.7369,0.772,0.8063,0.8441,0.8751,0.8924,0.8971,0.8925,0.8818,0.8804,0.8804,0.8804,0.8804,0.8804,0.8804,0.8804,0.8804,0.8804,0.9211,0.9762,1.0415,1.1116,1.1908,1.2881,1.3055,1.3174,1.3291,1.3613,1.3886,1.4174,1.4616,1.5468,1.6528,1.6996,1.7549,1.8165,1.8647,1.8555,1.8154,1.7815,1.7252,1.6606,1.5828,1.5454,1.505,1.4097,1.313,1.2395,1.2227,1.1882,1.1584,1.1584,1.1882,1.2236,1.2236,1.2559,1.2881,1.2881,1.2881,1.2881,1.2881,1.3437,1.3945,1.4058,1.4801,1.5195,1.4723,1.3727,1.2527,1.1053,0.939,0.8164,0.7582,0.6531,0.6098,0.6497,0.5728,0.5594,0.6528,0.6802,0.7351,0.8115,0.7985,0.8256,0.8918,0.8864,0.8804,0.8804,0.8804,0.8804,0.8804,0.8804,0.8804,0.8804,0.8804,0.8804,0.8804,0.8804,0.8804,0.8804,0.8804,0.8804,0.8804,0.8804,0.8804,0.8804,0.5428,0.562,0.5763,0.5534,0.6403,0.7044,0.6849,0.7382,0.7767,0.7767,0.8005,0.8196,0.8196,0.8536,0.8804,0.8804,0.8804,0.8804,0.8804,0.9008,0.9106,0.9106,0.9309,0.9413,0.9413,0.9413,0.9413,0.9413,0.9865,1.0466,1.1116,1.1566,1.2336,1.3301,1.3008,1.3037,1.3311,1.3491,1.3671,1.3811,1.4307,1.4883,1.5536,1.6227,1.6776,1.7266,1.7941,1.8091,1.789,1.7513,1.7262,1.6979,1.6324,1.6015,1.562,1.4411,1.3301,1.2318,1.1657,1.0864,1.0261,1.0712,1.1166,1.1466,1.1466,1.203,1.2559,1.2559,1.2725,1.2881,1.2881,1.3457,1.383,1.3609,1.4155,1.4264,1.3442,1.218,1.0896,0.9768,0.8062,0.7109,0.7426,0.6383,0.5928,0.656,0.6051,0.5969,0.6561,0.7151,0.768,0.8055,0.8049,0.8262,0.8804,0.8804,0.8804,0.8804,0.8804,0.8804,0.8804,0.8804,0.8804,0.8804,0.8804,0.8804,0.8804,0.8804,0.8804,0.8804,0.8804,0.8804,0.8804,0.8804,0.8804,0.8804,0.5428,0.6141,0.666,0.6417,0.7305,0.7945,0.7716,0.8094,0.8416,0.8416,0.8656,0.8811,0.8804,0.8804,0.8804,0.8804,0.8804,0.8804,0.8811,0.9413,0.9814,0.9814,1.0466,1.0813,1.0813,1.0813,1.0813,1.0813,1.0813,1.1166,1.1814,1.1814,1.2187,1.2881,1.2881,1.2881,1.2929,1.3552,1.4031,1.444,1.5017,1.5619,1.6277,1.6851,1.7157,1.7376,1.7977,1.784,1.7375,1.7375,1.6999,1.6595,1.7118,1.687,1.6176,1.505,1.327,1.1563,1.0956,0.9814,0.9106,1.0466,1.0762,1.0813,1.0813,1.1316,1.1814,1.1814,1.2344,1.2881,1.2881,1.3223,1.325,1.2611,1.3223,1.2831,1.0157,1.0288,0.9612,0.6715,0.6608,0.6578,0.627,0.6186,0.6485,0.7076,0.7121,0.731,0.7875,0.846,0.8804,0.8804,0.8804,0.8804,0.8804,0.8804,0.8804,0.8804,0.8804,0.8804,0.8804,0.8804,0.8804,0.8804,0.8804,0.8804,0.8804,0.8804,0.8804,0.8804,0.8804,0.8804,0.8804,0.8804,0.8804,0.8804,0.7246,0.7442,0.7564,0.7346,0.8196,0.8856,0.8657,0.9175,0.9543,0.9343,0.9177,0.9031,0.8831,0.8804,0.8804,0.8804,0.8804,0.9008,0.9458,1.0115,1.0712,1.1166,1.0965,1.0813,1.0813,1.0813,1.0813,1.0813,1.1266,1.1616,1.1814,1.2344,1.2666,1.2881,1.2881,1.2881,1.2929,1.3104,1.3222,1.3342,1.3527,1.3987,1.4516,1.4707,1.5088,1.5556,1.6166,1.6526,1.6706,1.6766,1.6936,1.7093,1.6807,1.6625,1.6225,1.5062,1.359,1.2155,1.109,0.9814,0.891,0.9309,0.9762,1.0115,1.0115,1.0618,1.1116,1.1116,1.1275,1.1434,1.1434,1.1799,1.2053,1.1842,1.1762,1.1368,1.013,0.9095,0.7939,0.6576,0.6608,0.6836,0.7202,0.7188,0.7409,0.8091,0.7756,0.7588,0.7726,0.8419,0.8804,0.8804,0.8804,0.8804,0.8804,0.8804,0.8804,0.8804,0.8804,0.8804,0.8804,0.8804,0.8804,0.8804,0.8804,0.8804,0.8804,0.8804,0.8804,0.8804,0.8804,0.8804,0.8804,0.8804,0.8804,0.8804,0.7962,0.8291,0.8506,0.8354,0.9156,0.9793,0.9625,0.9875,1.0053,0.988,0.9599,0.9305,0.9011,0.8978,0.8931,0.8818,0.8804,0.9061,0.9762,1.0415,1.1116,1.1765,1.1674,1.1633,1.1633,1.1633,1.1633,1.1633,1.2039,1.2236,1.2236,1.2666,1.2881,1.2881,1.2881,1.2881,1.2929,1.3152,1.3238,1.3286,1.3525,1.3695,1.3815,1.405,1.4236,1.4422,1.5005,1.561,1.6107,1.6118,1.6679,1.7268,1.6665,1.6497,1.617,1.471,1.3344,1.2018,1.0746,0.9614,0.8804,0.8804,0.9113,0.9413,0.9413,0.9917,1.0415,1.0415,1.0618,1.0813,1.0813,1.1046,1.1151,1.089,1.0647,1.0014,0.8819,0.8063,0.7305,0.6285,0.6573,0.7106,0.7735,0.7719,0.7924,0.8607,0.8342,0.8156,0.8156,0.854,0.8804,0.8804,0.8804,0.8804,0.8804,0.8804,0.8804,0.8804,0.8804,0.8804,0.8804,0.8804,0.8804,0.8804,0.8804,0.8804,0.8804,0.8804,0.8804,0.8804,0.8804,0.8804,0.8804,0.8804,0.8804,0.8804,0.7962,0.8748,0.9338,0.9402,1.0047,1.0624,1.0624,1.0327,1.0147,1.012,0.9886,0.9606,0.9256,0.9223,0.9172,0.8911,0.8911,0.9187,0.9865,1.0517,1.1166,1.1873,1.2501,1.2774,1.2774,1.2774,1.2774,1.2774,1.2725,1.2725,1.2774,1.2725,1.2774,1.2881,1.2832,1.2822,1.2929,1.3505,1.3732,1.3779,1.4236,1.4143,1.3779,1.4283,1.4143,1.3779,1.4376,1.496,1.5454,1.5499,1.6232,1.6967,1.6497,1.6299,1.5891,1.415,1.2676,1.1306,1.0049,0.9145,0.8646,0.8699,0.8699,0.8699,0.8804,0.9256,0.971,0.971,1.0218,1.0618,1.0618,1.0618,1.0415,0.9814,0.9658,0.8928,0.6987,0.7356,0.7378,0.6059,0.6728,0.749,0.7892,0.7975,0.8208,0.8771,0.8804,0.8804,0.8804,0.8804,0.8804,0.8804,0.8804,0.8804,0.8804,0.8804,0.8804,0.8804,0.8804,0.8804,0.8804,0.8804,0.8804,0.8804,0.8804,0.8804,0.8804,0.8804,0.8804,0.8804,0.8804,0.8804,0.8804,0.8804,0.8804,0.8804,0.8877,0.9139,0.953,1.0174,1.0498,1.0624,1.0624,1.0571,1.0381,1.0147,1.006,0.9913,0.9619,0.9586,0.9559,0.9499,0.9818,1.0143,1.0584,1.1216,1.1931,1.2618,1.2236,1.203,1.203,1.203,1.203,1.203,1.1525,1.1525,1.203,1.1475,1.1841,1.2881,1.2295,1.2344,1.2929,1.3065,1.3113,1.3055,1.2609,1.2716,1.3055,1.2609,1.2716,1.3152,1.3779,1.4097,1.4272,1.4744,1.505,1.5231,1.5152,1.5062,1.4812,1.3385,1.2018,1.0605,0.929,0.8013,0.7235,0.7777,0.7937,0.8103,0.8646,0.891,0.9008,0.9008,0.9106,0.9211,0.9211,0.9211,0.9159,0.9061,0.8521,0.8051,0.7644,0.748,0.7211,0.6696,0.7962,0.8655,0.817,0.8614,0.8893,0.8824,0.8804,0.8804,0.8804,0.8804,0.8804,0.8804,0.8804,0.8804,0.8804,0.8804,0.8804,0.8804,0.8804,0.8804,0.8804,0.8804,0.8804,0.8804,0.8804,0.8804,0.8804,0.8804,0.8804,0.8804,0.8804,0.8804,0.8804,0.8804,0.8804,0.8804,0.9204,0.9658,1.004,1.0491,1.0624,1.0624,1.0624,1.0441,1.0341,1.0327,1.0207,1.006,0.9907,0.9886,1.0003,1.025,1.0475,1.0888,1.1584,1.1968,1.2351,1.2891,1.2187,1.1814,1.1814,1.1166,1.1015,1.1316,1.0965,1.0965,1.1316,1.1316,1.1674,1.2344,1.2344,1.2559,1.2881,1.2881,1.2881,1.2881,1.2501,1.2559,1.2881,1.2452,1.2735,1.3372,1.3684,1.4179,1.4675,1.4698,1.488,1.5062,1.4789,1.4261,1.3585,1.2551,1.1081,0.9511,0.8475,0.7433,0.6804,0.7509,0.7723,0.7883,0.8646,0.8804,0.8804,0.8804,0.8804,0.8699,0.8321,0.8262,0.8199,0.7936,0.7571,0.7334,0.7392,0.7515,0.7553,0.7548,0.8415,0.8901,0.8526,0.8815,0.8971,0.8818,0.8804,0.8804,0.8804,0.8804,0.8804,0.8804,0.8804,0.8871,0.9011,0.9011,0.9085,0.9225,0.8945,0.8804,0.8804,0.8804,0.8804,0.8804,0.8804,0.8804,0.8804,0.8804,0.8804,0.8804,0.8804,0.8804,0.8804,0.8804,0.8804,0.8804,0.9262,0.9849,1.0428,1.0561,1.0624,1.0624,1.0624,1.0347,1.0342,1.0773,1.0588,1.0424,1.0606,1.0606,1.0773,1.1134,1.1275,1.1718,1.2429,1.2611,1.2744,1.29,1.208,1.1616,1.1616,1.0312,0.9961,1.0618,1.0618,1.0669,1.0813,1.1366,1.1765,1.2021,1.251,1.2774,1.2881,1.2881,1.2881,1.2881,1.2774,1.2861,1.3065,1.291,1.3324,1.3956,1.3956,1.4595,1.5365,1.4744,1.4869,1.5174,1.456,1.3595,1.2473,1.176,1.0199,0.858,0.7871,0.7182,0.6804,0.7509,0.7723,0.7883,0.8646,0.8804,0.8804,0.8804,0.8699,0.8427,0.783,0.7651,0.7417,0.6987,0.6939,0.7016,0.7131,0.7681,0.8154,0.8407,0.8725,0.8905,0.8951,0.8864,0.8831,0.8878,0.8838,0.8804,0.8804,0.8804,0.8831,0.8878,0.8884,0.9018,0.9256,0.9263,0.9439,0.9679,0.9192,0.8931,0.8884,0.8884,0.8851,0.8804,0.8804,0.8804,0.8804,0.8804,0.8804,0.8804,0.8804,0.8804,0.8804,0.8804,0.8804,0.8804,0.9099,0.9402,0.9722,1.0498,1.0624,1.0624,1.0624,1.0591,1.0815,1.1524,1.1611,1.1828,1.2509,1.2631,1.2546,1.2373,1.2917,1.3017,1.2552,1.3035,1.3219,1.29,1.1633,1.0965,1.0965,0.9614,0.9263,0.9909,0.9909,1.021,1.0813,1.0914,1.1584,1.2715,1.2187,1.2295,1.2881,1.2881,1.2881,1.2822,1.2187,1.2657,1.3589,1.3034,1.3548,1.456,1.456,1.4698,1.4744,1.4143,1.3956,1.3956,1.3334,1.2579,1.1805,1.1107,0.9872,0.858,0.7871,0.7182,0.6804,0.7509,0.7723,0.7883,0.8646,0.8804,0.8804,0.8804,0.8321,0.783,0.7723,0.7345,0.6982,0.6899,0.7123,0.748,0.813,0.8562,0.8986,0.9472,0.9303,0.9285,0.9539,0.9105,0.8911,0.911,0.8945,0.8804,0.8804,0.8804,0.8925,0.9117,0.913,0.9325,0.9619,0.9626,0.9646,0.9686,0.9606,0.9432,0.913,0.913,0.9045,0.8804,0.8804,0.8804,0.8804,0.8804,0.8804,0.8804,0.8804,0.8804,0.8804,0.8804,0.8804,0.8699,0.9314,0.9722,1.0295,1.1101,1.1288,1.1413,1.1841,1.1813,1.1882,1.2427,1.2345,1.2426,1.2923,1.3009,1.3124,1.344,1.3776,1.3889,1.3815,1.3835,1.3561,1.2954,1.1713,1.0918,1.0506,0.9517,0.9279,0.9814,0.9814,1.0167,1.0813,1.1166,1.1674,1.2295,1.2393,1.2608,1.2881,1.2881,1.3104,1.3372,1.3044,1.3464,1.4283,1.3982,1.4435,1.5186,1.5186,1.5186,1.505,1.4143,1.3815,1.3684,1.3104,1.2147,1.1166,1.0864,0.9518,0.8078,0.7771,0.7182,0.6804,0.7509,0.7723,0.7883,0.8646,0.8804,0.8699,0.8262,0.7943,0.745,0.6627,0.6369,0.6147,0.5851,0.6379,0.7049,0.778,0.8482,0.9078,0.9655,0.9713,0.9713,0.9686,0.9299,0.9172,0.9466,0.9065,0.8878,0.9038,0.9051,0.905,0.9183,0.9406,0.9633,0.992,0.9927,1.0013,1.0174,1.0174,0.9933,0.9486,0.9486,0.9419,0.9299,0.9299,0.9299,0.9285,0.9118,0.9051,0.9031,0.9274,0.9361,0.9309,0.8956,0.8804,0.8699]},{"header":{"parameterUnit":"m.s-1","parameterCategory":1,"la1":30.6,"la2":28.766,"lo1":-90.7593,"lo2":-88.6598,"dy":0.0162,"dx":0.0183,"nx":116,"ny":114,"refTime":"2023-08-30T06:00:00:Z","depth":0,"parameterNumber":3,"parameterNumberName":"V-component_of_WINDS"},"data":[0.0,0.0,0.0,0.0,0.0,0.0,0.0,0.0,0.0,0.0,0.0,0.0,0.0,0.0,0.0,0.0,0.0,0.0,0.0,0.0,0.0,0.0,0.0,0.0,0.0,0.0,0.0,0.0,0.0,0.0,0.0,0.0,0.0,0.0,0.0,0.0,0.0,0.0,0.0,0.0,0.0,0.0,0.0,0.0,0.0,0.0,0.0,0.0,0.0,0.0,0.0,0.0,0.0,0.0,0.0,0.0,0.0,0.0,0.0,0.0,0.0,0.0,0.0,0.0,0.0,0.0,0.0,0.0,0.0,0.0,0.0,0.0,0.0,0.0,0.0,0.0,0.0,0.0,0.0,0.0,0.0,0.0,0.0,0.0,0.0,0.0,0.0,0.0,0.0,0.0,0.0,0.0,0.0,0.0,0.0,0.0,0.0,0.0,0.0,0.0,0.0,0.0,0.0,0.0,0.0,0.0,0.0,0.0,0.0,0.0,0.0,0.0,0.0,0.0,0.0,0.0,0.0,0.0,0.0,0.0,0.0,0.0,0.0,0.0,0.0,0.0,0.0,0.0,0.0,0.0,0.0,0.0,0.0,0.0,0.0,0.0,0.0,0.0,0.0,0.0,0.0,0.0,0.0,0.0,0.0,0.0,0.0,0.0,0.0,0.0,0.0,0.0,0.0,0.0,0.0,0.0,0.0,0.0,0.0,0.0,0.0,0.0,0.0,0.0,0.0,0.0,0.0,0.0,0.0,0.0,0.0,0.0,0.0,0.0,0.0,0.0,0.0,0.0,0.0,0.0,0.0,0.0,0.0,0.0,0.0,0.0,0.0,0.0,0.0,0.0,0.0,0.0,0.0,0.0,0.0,0.0,0.0,0.0,0.0,0.0,0.0,0.0,0.0,0.0,0.0,0.0,0.0,0.0,0.0,0.0,0.0,0.0,0.0,0.0,0.0,0.0,0.0,0.0,0.0,0.0,0.0,0.0,0.0,0.0,0.0,0.0,0.0,0.0,0.0,0.0,0.0,0.0,0.0,0.0,0.0,0.0,0.0,0.0,0.0,0.0,0.0,0.0,0.0,0.0,0.0,0.0,0.0,0.0,0.0,0.0,0.0,0.0,0.0,0.0,0.0,0.0,0.0,0.0,0.0,0.0,0.0,0.0,0.0,0.0,0.0,0.0,0.0,0.0,0.0,0.0,0.0,0.0,0.0,0.0,0.0,0.0,0.0,0.0,0.0,0.0,0.0,0.0,0.0,0.0,0.0,0.0,0.0,0.0,0.0,0.0,0.0,0.0,0.0,0.0,0.0,0.0,0.0,0.0,0.0,0.0,0.0,0.0,0.0,0.0,0.0,0.0,0.0,0.0,0.0,0.0,0.0,0.0,0.0,0.0,0.0,0.0,0.0,0.0,0.0,0.0,0.0,0.0,0.0,0.0,0.0,0.0,0.0,0.0,0.0,0.0,0.0,0.0,0.0,0.0,0.0,0.0,0.0,0.0,0.0,0.0,0.0,0.0,0.0,0.0,0.0,0.0,0.0,0.0,0.0,0.0,0.0,0.0,0.0,0.0,0.0,0.0,0.0,0.0,0.0,0.0,0.0,0.0,0.0,0.0,0.0,0.0,0.0,0.0,0.0,0.0,0.0,0.0,0.0,0.0,0.0,0.0,0.0,0.0,0.0,0.0,0.0,0.0,0.0,0.0,0.0,0.0,0.0,0.0,0.0,0.0,0.0,0.0,0.0,0.0,0.0,0.0,0.0,0.0,0.0,0.0,0.0,0.0,0.0,0.0,0.0,0.0,0.0,0.0,0.0,0.0,0.0,0.0,0.0,0.0,0.0,0.0,0.0,0.0,0.0,0.0,0.0,0.0,0.0,0.0,0.0,0.0,0.0,0.0,0.0,0.0,0.0,0.0,0.0,0.0,0.0,0.0,0.0,0.0,0.0,0.0,0.0,0.0,0.0,0.0,0.0,0.0,0.0,0.0,0.0,0.0,0.0,0.0,0.0,0.0,0.0,0.0,0.0,0.0,0.0,0.0,0.0,0.0,0.0,0.0,0.0,0.0,0.0,0.0,0.0,0.0,0.0,0.0,0.0,0.0,0.0,0.0,0.0,0.0,0.0,0.0,0.0,0.0,0.0,0.0,0.0,0.0,0.0,0.0,0.0,0.0,0.0,0.0,0.0,0.0,0.0,0.0,0.0,0.0,0.0,0.0,0.0,0.0,0.0,0.0,0.0,0.0,0.0,0.0,0.0,0.0,0.0,0.0,0.0,0.0,0.0,0.0,0.0,0.0,0.0,0.0,0.0,0.0,0.0,0.0,0.0,0.0,0.0,0.0,0.0,0.0,0.0,0.0,0.0,0.0,0.0,0.0,0.0,0.0,0.0,0.0,0.0,0.0,0.0,0.0,0.0,0.0,0.0,0.0,0.0,0.0,0.0,0.0,0.0,0.0,0.0,0.0,0.0,0.0,0.0,0.0,0.0,0.0,0.0,0.0,0.0,0.0,0.0,0.0,0.0,0.0,0.0,0.0,0.0,0.0,0.0,0.0,0.0,0.0,0.0,0.0,0.0,0.0,0.0,0.0,0.0,0.0,0.0,0.0,0.0,0.0,0.0,0.0,0.0,0.0,0.0,0.0,0.0,0.0,0.0,0.0,0.0,0.0,0.0,0.0,0.0,0.0,0.0,0.0,0.0,0.0,0.0,0.0,0.0,0.0,0.0,0.0,0.0,0.0,0.0,0.0,0.0,0.0,0.0,0.0,0.0,0.0,0.0,0.0,0.0,0.0,0.0,0.0,0.0,0.0,0.0,0.0,0.0,0.0,0.0,0.0,0.0,0.0,0.0,0.0,0.0,0.0,0.0,0.0,0.0,0.0,0.0,0.0,0.0,0.0,0.0,0.0,0.0,0.0,0.0,0.0,0.0,0.0,0.0,0.0,0.0,0.0,0.0,0.0,0.0,0.0,0.0,0.0,0.0,0.0,0.0,0.0,0.0,0.0,0.0,0.0,0.0,0.0,0.0,0.0,0.0,0.0,0.0,0.0,0.0,0.0,0.0,0.0,0.0,0.0,0.0,0.0,0.0,0.0,0.0,0.0,0.0,0.0,0.0,0.0,0.0,0.0,0.0,0.0,0.0,0.0,0.0,0.0,0.0,0.0,0.0,0.0,0.0,0.0,0.0,0.0,0.0,0.0,0.0,0.0,0.0,0.0,0.0,0.0,0.0,0.0,0.0,0.0,0.0,0.0,0.0,0.0,0.0,0.0,0.0,0.0,0.0,0.0,0.0,0.0,0.0,0.0,0.0,0.0,0.0,0.0,0.0,0.0,0.0,0.0,0.0,0.0,0.0,0.0,0.0,0.0,0.0,0.0,0.0,0.0,0.0,0.0,0.0,0.0,0.0,0.0,0.0,0.0,0.0,0.0,0.0,0.0,0.0,0.0,0.0,0.0,0.0,0.0,0.0,0.0,0.0,0.0,0.0,0.0,0.0,0.0,0.0,0.0,0.0,0.0,0.0,0.0,0.0,0.0,0.0,0.0,0.0,0.0,0.0,0.0,0.0,0.0,0.0,0.0,0.0,0.0,0.0,0.0,0.0,0.0,0.0,0.0,0.0,0.0,0.0,0.0,0.0,0.0,0.0,0.0,0.0,0.0,0.0,0.0,0.0,0.0,0.0,0.0,0.0,0.0,0.0,0.0,0.0,0.0,0.0,0.0,0.0,0.0,0.0,0.0,0.0,0.0,0.0,0.0,0.0,0.0,0.0,0.0,0.0,0.0,0.0,0.0,0.0,0.0,0.0,0.0,0.0,0.0,0.0,0.0,0.0,0.0,0.0,0.0,0.0,0.0,0.0,0.0,0.0,0.0,0.0,0.0,0.0,0.0,0.0,0.0,0.0,0.0,0.0,0.0,0.0,0.0,0.0,0.0,0.0,0.0,0.0,0.0,0.0,0.0,0.0,0.0,0.0,0.0,0.0,0.0,0.0,0.0,0.0,0.0,0.0,0.0,0.0,0.0,0.0,0.0,0.0,0.0,0.0,0.0,0.0,0.0,0.0,0.0,0.0,0.0,0.0,0.0,0.0,0.0,0.0,0.0,0.0,0.0,0.0,0.0,0.0,0.0,0.0,0.0,0.0,0.0,0.0,0.0,0.0,0.0,0.0,0.0,0.0,0.0,0.0,0.0,0.0,0.0,0.0,0.0,0.0,0.0,0.0,0.0,0.0,0.0,0.0,0.0,0.0,0.0,0.0,0.0,0.0,0.0,0.0,0.0,0.0,0.0,0.0,0.0,0.0,0.0,0.0,0.0,0.0,0.0,0.0,0.0,0.0,0.0,0.0,0.0,0.0,0.0,0.0,0.0,0.0,0.0,0.0,0.0,0.0,0.0,0.0,0.0,0.0,0.0,0.0,0.0,0.0,0.0,0.0,0.0,0.0,0.0,0.0,0.0,0.0,0.0,0.0,0.0,0.0,0.0,0.0,0.0,0.0,0.0,0.0,0.0,0.0,0.0,0.0,0.0,0.0,0.0,0.0,0.0,0.0,0.0,0.0,0.0,0.0,0.0,0.0,0.0,0.0,0.0,0.0,0.0,0.0,0.0,0.0,0.0,0.0,0.0,0.0,0.0,0.0,0.0,0.0,0.0,0.0,0.0,0.0,0.0,0.0,0.0,0.0,0.0,0.0,0.0,0.0,0.0,0.0,0.0,0.0,0.0,0.0,0.0,0.0,0.0,0.0,0.0,0.0,0.0,0.0,0.0,0.0,0.0,0.0,0.0,0.0,0.0,0.0,0.0,0.0,0.0,0.0,0.0,0.0,0.0,0.0,0.0,0.0,0.0,0.0,0.0,0.0,0.0,0.0,0.0,0.0,0.0,0.0,0.0,0.0,0.0,0.0,0.0,0.0,0.0,0.0,0.0,0.0,0.0,0.0,0.0,0.0,0.0,0.0,0.0,0.0,0.0,0.0,0.0,0.0,0.0,0.0,0.0,0.0,0.0,0.0,0.0,0.0,0.0,0.0,0.0,0.0,0.0,0.0,0.0,0.0,0.0,0.0,0.0,0.0,0.0,0.0,0.0,0.0,0.0,0.0,0.0,0.0,0.0,0.0,0.0,0.0,0.0,0.0,0.0,0.0,0.0,0.0,0.0,0.0,0.0,0.0,0.0,0.0,0.0,0.0,0.0,0.0,0.0,0.0,0.0,0.0,0.0,0.0,0.0,0.0,0.0,0.0,0.0,0.0,0.0,0.0,0.0,0.0,0.0,0.0,0.0,0.0,0.0,0.0,0.0,0.0,0.0,0.0,0.0,0.0,0.0,0.0,0.0,0.0,0.0,0.0,0.0,0.0,0.0,0.0,0.0,0.0,0.0,0.0,0.0,0.0,0.0,0.0,0.0,0.0,0.0,0.0,0.0,0.0,0.0,0.0,0.0,0.0,0.0,0.0,0.0,0.0,0.0,0.0,0.0,0.0,0.0,0.0,0.0,0.0,0.0,0.0,0.0,0.0,0.0,0.0,0.0,0.0,0.0,0.0,0.0,0.0,0.0,0.0,0.0,0.0,0.0,0.0,0.0,0.0,0.0,0.0,0.0,0.0,0.0,0.0,0.0,0.0,0.0,0.0,0.0,0.0,0.0,0.0,0.0,0.0,0.0,0.0,0.0,0.0,0.0,0.0,0.0,0.0,0.0,0.0,0.0,0.0,0.0,0.0,0.0,0.0,0.0,0.0,0.0,0.0,0.0,0.0,0.0,0.0,0.0,0.0,0.0,0.0,0.0,0.0,0.0,0.0,0.0,0.0,0.0,0.0,0.0,0.0,0.0,0.0,0.0,0.0,0.0,0.0,0.0,0.0,0.0,0.0,0.0,0.0,0.0,0.0,0.0,0.0,0.0,0.0,0.0,0.0,0.0,0.0,0.0,0.0,0.0,0.0,0.0,0.0,0.0,0.0,0.0,0.0,0.0,0.0,0.0,0.0,0.0,0.0,0.0,0.0,0.0,0.0,0.0,0.0,0.0,0.0,0.0,0.0,0.0,0.0,0.0,0.0,0.0,0.0,0.0,0.0,0.0,0.0,0.0,0.0,0.0,0.0,0.0,0.0,0.0,1.9703,1.7371,0.0,0.0,0.0,0.0,0.0,0.0,0.0,0.0,0.0,0.0,0.0,0.0,0.0,0.0,0.0,0.0,0.0,0.0,0.0,0.0,0.0,0.0,0.0,0.0,0.0,0.0,0.0,0.0,0.0,0.0,0.0,0.0,0.0,0.0,0.0,0.0,0.0,2.8644,2.8452,2.8521,2.8858,2.8526,2.6977,2.4474,0.0,0.0,0.0,0.0,0.0,0.0,0.0,0.0,0.0,0.0,0.0,0.0,0.0,0.0,0.0,0.0,0.0,0.0,0.0,0.0,0.0,0.0,0.0,0.0,0.0,0.0,0.0,0.0,0.0,0.0,0.0,0.0,0.0,0.0,0.0,0.0,0.0,0.0,0.0,0.0,0.0,0.0,0.0,0.0,0.0,0.0,0.0,0.0,0.0,0.0,0.0,0.0,0.0,0.0,0.0,0.0,0.0,0.0,0.0,0.0,0.0,0.0,0.0,0.0,0.0,0.0,0.0,0.0,0.0,0.0,2.0141,1.8497,0.0,0.0,0.0,0.0,0.0,0.0,0.0,0.0,0.0,0.0,0.0,0.0,0.0,0.0,0.0,0.0,0.0,0.0,0.0,0.0,0.0,0.0,0.0,3.5815,3.8483,4.0456,4.1637,4.1514,0.0,0.0,0.0,0.0,0.0,0.0,3.033,3.0044,3.002,3.035,3.0238,3.0753,3.1778,3.1345,2.8959,2.5017,2.5274,0.0,0.0,0.0,0.0,0.0,0.0,0.0,0.0,0.0,0.0,0.0,0.0,0.0,0.0,0.0,0.0,0.0,0.0,0.0,0.0,0.0,0.0,0.0,0.0,0.0,0.0,0.0,0.0,0.0,0.0,0.0,0.0,0.0,0.0,0.0,0.0,0.0,0.0,0.0,0.0,0.0,0.0,0.0,0.0,0.0,0.0,0.0,0.0,0.0,0.0,0.0,0.0,0.0,0.0,0.0,0.0,0.0,0.0,0.0,0.0,0.0,0.0,0.0,2.0842,2.1193,2.0685,2.1617,2.1995,2.194,2.0918,1.9822,1.8786,1.7503,0.0,0.0,0.0,0.0,0.0,0.0,0.0,0.0,0.0,0.0,0.0,0.0,0.0,0.0,0.0,0.0,0.0,0.0,0.0,0.0,0.0,3.7185,3.9602,4.2461,4.2459,4.2174,4.1874,0.0,0.0,0.0,0.0,0.0,3.3502,3.2406,3.1947,3.2162,3.1854,3.1995,3.2517,3.0345,2.7259,2.3644,2.7294,2.8903,2.8745,0.0,0.0,0.0,0.0,0.0,0.0,0.0,0.0,0.0,0.0,0.0,0.0,0.0,0.0,0.0,0.0,0.0,0.0,0.0,0.0,0.0,0.0,0.0,0.0,0.0,0.0,0.0,0.0,0.0,0.0,0.0,0.0,0.0,0.0,0.0,0.0,0.0,0.0,0.0,0.0,0.0,3.0664,3.0735,0.0,0.0,0.0,0.0,0.0,0.0,0.0,0.0,0.0,0.0,0.0,0.0,0.0,1.5684,1.8181,1.9209,2.0828,2.3079,2.3673,2.3905,2.3769,2.3963,2.4065,2.4045,2.388,0.0,2.0548,2.0712,0.0,0.0,0.0,0.0,0.0,0.0,0.0,0.0,0.0,0.0,0.0,0.0,0.0,0.0,0.0,0.0,0.0,0.0,0.0,0.0,0.0,3.8074,4.0518,4.2893,4.3825,4.3548,4.185,4.0519,0.0,0.0,0.0,3.487,3.4506,3.3655,3.3137,3.2958,3.3172,3.2953,3.2258,2.9925,2.7013,2.3727,2.3941,2.3939,2.3677,2.2745,0.0,0.0,0.0,0.0,0.0,0.0,0.0,0.0,0.0,0.0,0.0,0.0,0.0,0.0,0.0,0.0,0.0,0.0,0.0,0.0,0.0,0.0,0.0,0.0,0.0,0.0,0.0,0.0,0.0,0.0,0.0,0.0,0.0,0.0,0.0,0.0,0.0,0.0,0.0,3.1035,3.1486,3.0719,3.0116,2.8724,0.0,0.0,0.0,0.0,0.0,0.0,0.0,0.0,0.0,1.5037,1.6683,1.7807,1.8331,2.0112,2.1561,2.2775,2.3693,2.4189,2.4414,2.4414,2.4414,2.4414,2.4414,2.3673,2.2577,2.2451,2.1021,1.8566,0.0,0.0,0.0,0.0,1.2213,1.2697,0.0,0.0,0.0,0.0,0.0,0.0,0.0,0.0,0.0,0.0,0.0,0.0,3.6366,3.8707,4.0955,4.3312,4.4364,4.3849,4.1364,4.0881,3.9264,3.6027,3.5947,3.5572,3.4743,3.378,3.3153,3.2934,3.3087,3.2482,3.1115,2.8347,2.5249,2.181,1.8781,1.8374,1.9907,1.8921,2.0126,2.2587,0.0,0.0,0.0,0.0,0.0,0.0,0.0,0.0,0.0,0.0,0.0,0.0,0.0,0.0,0.0,0.0,0.0,0.0,0.0,0.0,0.0,0.0,0.0,0.0,0.0,0.0,0.0,0.0,0.0,0.0,0.0,0.0,0.0,0.0,0.0,0.0,0.0,3.2021,3.2507,3.0551,3.0653,2.947,0.0,0.0,0.0,0.0,0.0,0.0,1.7814,1.8214,1.7872,1.6587,1.8839,1.9808,1.9241,2.1138,2.2262,2.264,2.3482,2.4111,2.4414,2.4414,2.4414,2.4414,2.4414,2.418,2.3769,2.3457,2.2543,2.1007,1.8214,1.7025,1.6559,1.432,1.4046,1.4625,0.0,0.0,0.0,0.0,0.0,0.0,0.0,0.0,0.0,0.0,0.0,3.3291,3.8298,3.9099,4.0703,4.4316,4.3317,4.2027,4.1,3.9434,3.7687,3.5708,3.5626,3.5276,3.4535,3.2427,3.15,3.1869,3.0703,2.9704,2.8807,2.4632,2.0369,1.5959,1.2613,1.5303,2.2119,1.924,2.046,2.4039,2.1279,0.0,0.0,0.0,0.0,0.0,0.0,0.0,0.0,0.0,0.0,0.0,0.0,0.0,0.0,0.0,0.0,0.0,0.0,0.0,0.0,0.0,0.0,0.0,0.0,0.0,0.0,0.0,0.0,0.0,0.0,0.0,0.0,0.0,0.0,0.0,0.0,0.0,0.0,3.068,3.1101,0.0,0.0,0.0,0.0,2.0562,1.9912,1.9117,1.7919,1.9141,1.9382,1.8581,1.9846,2.1111,2.238,2.2389,2.3056,2.4293,2.4385,2.4394,2.4414,2.4414,2.4414,2.4414,2.4414,2.418,2.3789,2.3769,2.3262,2.2149,1.9887,1.8688,1.8046,1.5718,1.511,1.5357,0.0,0.0,0.0,0.0,0.0,0.0,0.0,0.0,2.8943,3.1023,3.2147,3.4125,3.7702,3.9252,4.0785,4.2667,4.2349,4.1199,3.9238,3.8085,3.6738,3.5036,3.4929,3.4244,3.2877,3.1608,3.0363,2.9193,2.874,2.7373,2.5138,2.1388,1.7539,1.3556,0.9485,1.0218,1.4412,1.2729,1.3727,1.6505,1.6387,1.7024,0.0,0.0,0.0,0.0,0.0,0.0,0.0,0.0,0.0,0.0,0.0,0.0,0.0,0.0,0.0,0.0,0.0,0.0,0.0,0.0,0.0,0.0,0.0,0.0,0.0,0.0,0.0,0.0,0.0,0.0,0.0,0.0,0.0,0.0,0.0,0.0,0.0,3.1063,3.1526,0.0,2.6624,2.5638,2.4613,2.3032,2.1873,2.1212,2.1173,2.1465,2.1182,2.0213,2.2039,2.2758,2.2048,2.2889,2.3405,2.3594,2.3594,2.3594,2.3594,2.3594,2.3594,2.3594,2.3594,2.3516,2.3369,2.3369,2.2725,2.1544,2.0018,1.9224,1.8905,1.6981,1.6357,1.6512,0.0,0.0,0.0,0.0,0.0,0.0,0.0,0.0,2.9186,3.0958,3.2424,3.4345,3.7067,3.8803,4.0092,4.0919,4.0776,3.9432,3.657,3.597,3.4963,3.3289,3.3518,3.2992,3.1499,3.0654,2.9427,2.7657,2.6912,2.537,2.305,1.9304,1.5929,1.2935,0.9076,0.8418,1.0129,0.9561,1.0624,1.2706,1.3572,1.468,1.5694,0.0,0.0,0.0,0.0,0.0,0.0,0.0,0.0,0.0,0.0,0.0,0.0,0.0,0.0,0.0,0.0,0.0,0.0,0.0,0.0,0.0,0.0,0.0,0.0,0.0,0.0,0.0,0.0,0.0,0.0,0.0,0.0,0.0,0.0,3.3041,3.3895,3.1433,3.2288,3.1711,2.8386,2.7224,2.6264,2.5315,2.3696,2.2879,2.2955,2.3235,2.2858,2.151,2.3401,2.3741,2.2492,2.3185,2.3428,2.3135,2.3464,2.3637,2.3724,2.4059,2.3978,2.3503,2.3503,2.3176,2.2715,2.2715,2.1987,2.0817,2.0153,1.9771,1.9449,1.7966,1.7443,1.7463,0.0,0.0,0.0,0.0,0.0,0.0,0.0,2.8597,2.9333,3.0791,3.209,3.3893,3.6523,3.7656,3.8474,3.9182,3.8507,3.6582,3.3145,3.3037,3.234,3.0615,3.1526,3.1594,3.0542,2.9654,2.8652,2.7502,2.5392,2.3767,2.2677,1.8436,1.5597,1.3803,1.1397,1.0359,1.0535,1.0843,1.2004,1.3676,1.3397,1.3966,1.4828,0.0,0.0,0.0,0.0,0.0,0.0,0.0,0.0,0.0,0.0,0.0,0.0,0.0,0.0,0.0,0.0,0.0,0.0,0.0,0.0,0.0,0.0,0.0,0.0,0.0,0.0,0.0,0.0,0.0,0.0,0.0,0.0,0.0,3.2334,3.3583,3.3806,3.1729,3.3406,3.3024,2.8809,2.8697,2.8263,2.6999,2.542,2.4059,2.3069,2.4364,2.4269,2.251,2.3718,2.418,2.3859,2.335,2.3135,2.3222,2.4296,2.4872,2.4872,2.5975,2.5722,2.4302,2.4209,2.332,2.1987,2.1894,2.1163,2.0054,2.0535,2.0368,1.9858,1.864,1.821,1.8096,0.0,0.0,0.0,0.0,0.0,0.0,0.0,2.8324,2.9015,3.037,3.1725,3.314,3.4774,3.5605,3.5939,3.565,3.4765,3.3378,3.1392,3.1106,3.1083,3.1219,3.1272,3.0629,2.9249,2.8697,2.7555,2.5813,2.501,2.3912,2.251,1.9939,1.8083,1.6872,1.5382,1.4915,1.5242,1.5794,1.6021,1.599,1.5073,1.4351,1.3882,0.0,0.0,0.0,0.0,0.0,0.0,0.0,0.0,0.0,0.0,0.0,0.0,0.0,0.0,0.0,0.0,0.0,0.0,0.0,0.0,0.0,0.0,0.0,0.0,0.0,0.0,0.0,0.0,0.0,0.0,0.0,2.9266,3.0833,3.1334,3.3488,3.4607,3.3341,3.4085,3.3909,3.1813,3.0194,2.876,2.7483,2.6079,2.5082,2.4584,2.4568,2.421,2.341,2.3473,2.3771,2.4481,2.4444,2.4713,2.5557,2.5891,2.6058,2.6058,2.6389,2.624,2.5837,2.4676,2.397,2.3515,2.2324,2.1516,2.0847,2.0391,2.0126,1.988,1.8897,1.844,1.8091,0.0,0.0,0.0,0.0,0.0,0.0,0.0,2.762,2.8111,2.8951,3.0465,3.1646,3.2104,3.3127,3.33,3.2124,3.1441,3.0429,2.8941,2.8844,2.9502,3.0924,3.042,2.9612,2.8597,2.8435,2.7766,2.6657,2.5527,2.4599,2.384,2.1477,1.9965,1.9185,1.7964,1.7668,1.8111,1.8346,1.8258,1.7989,1.7966,1.72,1.6033,1.5827,1.5196,1.4276,1.3413,1.1776,1.0012,1.042,0.0,0.0,0.0,0.0,0.0,0.0,0.0,0.0,0.0,0.0,0.0,0.0,0.0,0.0,0.0,0.0,0.0,0.0,0.0,0.0,0.0,0.0,0.0,0.0,2.9638,3.1074,3.1473,3.316,3.4289,3.396,3.4387,3.4354,3.3448,3.1439,2.9591,2.8223,2.6579,2.5252,2.4551,2.4287,2.3955,2.3525,2.3869,2.4329,2.4787,2.5294,2.5797,2.6483,2.6964,2.7209,2.7197,2.7404,2.7182,2.6462,2.5397,2.4513,2.3756,2.2302,2.1741,2.1691,0.0,0.0,0.0,0.0,1.8546,1.8015,0.0,0.0,0.0,0.0,0.0,0.0,0.0,2.6952,2.7141,2.7226,2.8834,2.9753,2.9147,3.0353,3.0514,2.8809,2.8569,2.7987,2.6728,2.6919,2.8032,3.0219,2.9287,2.8646,2.8444,2.8527,2.8582,2.856,2.651,2.5505,2.556,2.2829,2.1291,2.0771,1.9554,1.9175,1.9454,1.9182,1.9076,1.9186,2.0534,2.0646,1.9825,1.8363,1.8164,1.8248,1.5279,1.3353,1.1914,1.0542,0.0,0.0,0.0,0.0,0.0,0.0,0.0,0.0,0.0,0.0,0.0,0.0,0.0,0.0,0.0,0.0,0.0,0.0,0.0,0.0,0.0,0.0,0.0,0.0,3.0809,3.2139,3.2202,3.2604,3.3119,3.3734,3.4186,3.4274,3.3847,3.2135,3.0437,2.9069,2.6943,2.5213,2.4217,2.4128,0.0,0.0,0.0,2.5358,2.5041,2.6052,2.6606,2.6723,2.7738,2.8136,2.8143,2.8645,2.8138,2.6716,2.6041,2.5031,2.3632,2.2196,2.202,2.2528,2.122,2.0374,1.9875,1.9551,1.8864,1.8165,0.0,0.0,0.0,0.0,0.0,0.0,0.0,2.749,2.7689,2.7543,2.8198,2.843,2.7752,2.7647,2.7333,2.6636,2.6752,2.7248,2.8126,2.7744,2.8345,3.0302,2.9007,2.8335,2.8556,2.8071,2.7612,2.72,2.6314,2.538,2.4387,2.2753,2.1619,2.0959,2.0853,2.0254,1.9354,1.9492,1.8554,1.7045,1.7694,1.9476,2.1739,2.2005,2.1591,2.0812,2.0226,1.836,1.6081,1.5653,1.4579,1.3388,1.3237,1.3611,0.0,0.0,0.0,0.0,0.0,0.0,0.0,0.0,0.0,0.0,0.0,0.0,0.0,0.0,0.0,0.0,0.0,0.0,0.0,3.0093,3.0997,3.17,3.2152,3.1926,3.2102,3.3119,3.2918,3.2842,3.3206,3.1247,2.9922,3.0067,2.837,2.6998,2.6454,2.6421,2.6299,2.583,2.6146,2.6453,2.6813,2.7062,2.7341,2.7803,2.8473,0.0,2.8114,2.87,2.8462,2.7754,2.6359,2.5609,2.5248,2.3717,2.2695,2.2123,2.1804,2.0924,1.9937,2.0225,2.0422,2.0475,0.0,0.0,0.0,0.0,0.0,0.0,0.0,2.7029,2.7067,2.6432,2.7084,2.7201,2.6163,2.6043,2.5777,2.5052,2.5208,2.6095,2.7887,2.7147,2.7466,2.9262,2.7867,2.7121,2.7303,2.7071,2.6816,2.6541,2.5717,2.4961,2.43,2.2675,2.1635,2.1105,2.0315,1.946,1.8607,1.7749,1.6764,1.5821,1.6667,1.8143,1.9928,2.0817,2.2224,2.3523,2.174,2.057,1.9703,1.8885,1.84,1.8104,1.7578,1.8081,1.8439,0.0,0.0,0.0,0.0,0.0,0.0,0.0,0.0,0.0,0.0,0.0,0.0,0.0,0.0,2.7678,2.7675,0.0,3.0131,3.1235,3.1637,3.1901,3.2177,3.1512,3.1311,3.2127,3.1976,3.1913,3.2202,3.0968,2.9997,2.9641,2.8559,2.7581,2.6853,2.683,2.6606,2.6032,2.6576,2.6904,2.6878,2.7412,2.7829,2.8109,2.8386,2.8581,2.871,2.8303,2.8151,2.8235,2.6772,2.5954,2.5624,2.4285,2.2576,2.0927,2.1789,2.1339,2.0257,2.0495,2.0544,2.0375,0.0,0.0,0.0,0.0,0.0,0.0,0.0,2.6609,2.6428,2.5321,2.6027,2.6079,2.4655,2.4763,2.4725,2.4125,2.421,2.5182,2.7252,2.6403,2.6513,2.81,2.6784,2.5964,2.5904,2.6096,2.6029,2.5699,2.4818,2.4214,2.386,2.2068,2.1011,2.0544,1.8782,1.7624,1.6938,1.4864,1.394,1.3912,1.4755,1.5625,1.6507,1.7554,2.1106,2.5234,2.2609,2.2202,2.2711,2.1328,2.1589,2.2345,2.1498,2.2128,2.2616,1.9963,1.9599,0.0,0.0,0.0,0.0,0.0,0.0,0.0,0.0,2.5473,2.6868,2.6912,2.8392,2.9724,2.9928,3.083,3.1855,3.2841,3.2663,3.2371,3.2371,3.1284,3.0675,3.1318,3.1369,3.1339,3.1223,3.0905,3.0286,2.9301,2.8727,2.8028,2.7221,2.7139,2.6898,2.6291,2.7155,2.7268,2.6656,2.769,2.816,2.8058,2.8303,2.8763,2.9316,2.8226,2.7997,2.8319,2.7005,2.5996,2.536,2.428,2.2444,2.0507,2.1685,2.1559,2.074,2.0551,2.0353,2.0049,0.0,0.0,0.0,0.0,0.0,0.0,0.0,0.0,2.6801,2.5612,2.5565,2.508,2.3557,2.3177,2.3379,2.4284,2.4317,2.5167,2.7186,2.6625,2.67,2.7722,2.6635,2.5863,2.5565,2.5687,2.5034,2.3545,2.3603,2.284,2.1373,2.0067,1.9021,1.8106,1.6491,1.4971,1.351,1.1208,0.9894,0.9396,0.8858,1.0225,1.2617,1.3721,1.8268,2.4176,2.5136,2.5181,2.4655,2.3647,2.3784,2.4338,2.3827,2.4203,2.4489,2.32,2.2501,2.1886,2.0746,2.0499,2.1051,2.2782,2.402,2.541,0.0,2.9618,3.0717,3.1582,3.2492,3.3225,3.3676,3.4375,3.5045,3.5689,3.4152,3.2883,3.2883,3.1163,3.0189,3.1153,3.1228,3.1072,3.0725,3.0984,3.0918,3.0478,2.9924,2.9546,2.9456,2.9456,2.9118,2.8548,2.8687,2.8188,2.7239,2.8066,2.8219,2.7747,2.9026,2.9395,2.9031,2.9367,2.8985,2.7947,2.6605,2.5537,2.482,2.369,2.303,2.2625,2.1901,2.1494,2.1317,2.0532,2.067,2.1218,0.0,0.0,0.0,0.0,0.0,0.0,0.0,0.0,0.0,2.5987,2.6071,2.5509,2.3692,2.2798,2.2624,2.3307,2.4086,2.5005,2.6129,2.5972,2.5971,2.6224,2.5044,2.4299,2.4174,2.3819,2.3089,2.1908,2.16,2.0667,1.9091,1.765,1.6386,1.5267,1.2996,1.1465,1.0403,0.8351,0.7187,0.6809,0.6202,0.7106,0.9112,1.1965,1.5389,1.9186,2.2563,2.4274,0.0,2.5561,2.5966,2.6267,2.6337,2.6634,2.668,2.5099,2.4535,2.4348,2.3974,2.4146,2.4651,2.5961,2.729,2.8679,3.0081,3.1378,3.232,3.2569,3.3535,3.4255,3.391,3.4679,3.5424,3.5659,3.4599,3.3824,3.3824,3.2434,3.1549,3.196,3.2536,3.2561,3.1822,3.14,3.1136,3.0957,3.0763,3.0189,2.9302,2.9289,2.8888,2.7996,2.7971,2.7868,2.7524,2.7891,2.816,2.8427,2.9059,2.9505,2.9752,2.9094,2.8257,2.7391,2.6443,2.5488,2.4425,2.3599,2.2649,2.17,2.1604,2.1366,2.1107,2.0996,2.1187,2.1506,0.0,0.0,0.0,0.0,0.0,0.0,0.0,0.0,0.0,0.0,2.6411,2.5673,2.3476,2.2647,2.2299,2.2452,2.356,2.4417,2.4856,2.4985,2.491,2.458,2.3635,2.2935,2.2529,2.2031,2.1226,2.0115,1.9508,1.8496,1.7156,1.5622,1.4372,1.3283,1.0739,0.9174,0.8311,0.6599,0.5643,0.5194,0.4916,0.5364,0.6568,1.0078,1.2651,1.5063,2.0194,2.3158,2.4937,2.6546,2.7422,2.7818,2.7777,2.8058,2.8061,2.6471,2.596,2.6009,2.6357,2.6834,2.755,2.8744,3.0176,3.1389,3.1797,3.3045,3.4061,3.3819,3.4753,3.5434,3.4681,3.5307,3.5906,3.6151,3.5278,3.4654,3.4836,3.3584,3.2678,3.2961,3.338,3.3533,3.3394,3.2384,3.1586,3.1368,3.1296,3.0752,2.9426,2.9529,2.9104,2.804,2.8001,2.7913,2.7746,2.7991,2.8356,2.8814,2.9059,2.9583,3.0279,2.9052,2.783,2.6815,2.6273,2.5272,2.4032,2.3418,2.2418,2.125,2.1519,2.1309,2.0873,2.1368,2.1577,2.1605,0.0,0.0,0.0,0.0,0.0,0.0,0.0,0.0,0.0,0.0,0.0,0.0,0.0,2.2378,2.2446,2.2147,2.2693,2.3204,2.3533,2.3809,2.3654,2.3005,2.2924,2.2235,2.0797,2.075,1.9808,1.7904,1.7436,1.6635,1.5536,1.4323,1.3412,1.2706,1.0573,0.8851,0.757,0.6365,0.5385,0.4533,0.474,0.4965,0.5337,0.7332,0.9992,1.349,1.961,2.2941,2.4657,2.6273,2.7777,2.8738,2.7576,2.7731,2.8154,2.7449,2.6788,2.6432,2.7163,2.7604,2.8405,3.0556,3.1774,3.2726,3.3798,3.5363,3.6581,3.6596,3.7103,3.7496,3.7496,3.7395,3.7575,3.8202,3.6409,3.5208,3.5899,3.4015,3.2961,3.3876,3.3171,3.3394,3.5213,3.3937,3.2667,3.1668,3.1598,3.1254,3.0596,3.1172,3.0952,2.9745,2.9704,2.9141,2.8023,2.8799,2.8928,2.8326,2.9156,2.9899,3.0451,2.9839,2.8434,2.6472,2.581,2.4742,2.3406,2.2853,2.2578,2.2495,2.1925,2.1332,2.0859,2.1484,2.1704,2.1582,0.0,0.0,0.0,0.0,0.0,0.0,0.0,0.0,0.0,0.0,0.0,0.0,0.0,0.0,0.0,0.0,2.36,2.3953,2.3964,2.3409,2.2866,2.2325,2.1263,2.0627,2.0508,1.9493,1.8604,1.7874,1.7339,1.6469,1.5208,1.3789,1.2465,1.1242,0.9036,0.7569,0.6625,0.5754,0.5178,0.4897,0.5274,0.5739,0.629,0.7087,0.9597,1.3311,0.0,2.0602,2.2965,2.5234,2.6541,2.7305,2.7873,2.8091,2.7985,2.7504,2.8216,2.9211,2.9471,3.0285,3.1483,3.3155,3.3462,3.3567,3.4555,3.5239,3.5679,3.5895,3.5292,3.4767,3.4833,3.5155,3.544,3.5749,3.6336,3.6601,3.6378,3.5695,3.518,3.5037,3.4706,3.4773,3.5439,3.4069,3.3159,3.3192,3.2851,3.2072,3.0772,3.0923,3.0549,2.9334,2.9242,2.9171,2.8845,2.9142,2.9247,2.9167,2.9456,2.946,2.9235,2.9026,2.8085,2.6539,2.6317,2.5238,2.3595,2.343,2.2802,2.2048,2.2292,2.1977,2.1478,2.2119,2.2058,2.1743,0.0,0.0,0.0,0.0,0.0,0.0,0.0,0.0,0.0,0.0,0.0,0.0,0.0,0.0,0.0,0.0,0.0,2.379,2.3769,2.3014,2.2241,2.1518,2.0752,1.9986,1.9234,1.8452,1.7651,1.6877,1.6549,1.5829,1.4714,1.3296,1.2172,1.115,0.8681,0.7298,0.6799,0.6254,0.5698,0.517,0.6089,0.6593,0.6849,0.7466,1.0008,0.0,1.6967,1.983,2.244,2.4935,2.6066,2.6607,2.7594,2.8088,2.8275,2.8118,2.9527,3.129,3.1864,3.2995,3.426,3.5279,3.5287,3.5167,3.5494,3.5915,3.6243,3.629,3.5036,3.3935,3.3879,3.3881,3.4032,3.4375,3.5368,3.6199,3.6505,3.5917,3.5506,3.5494,3.5504,3.5504,3.5504,3.4345,3.3769,3.4149,3.3828,3.2941,3.1454,3.1624,3.107,2.9576,2.9547,2.9387,2.9026,2.9068,2.9094,2.9213,2.9455,2.9316,2.8897,2.9143,2.8376,2.6842,2.6625,2.5574,2.3896,2.3524,2.2944,2.2366,2.2323,2.2104,2.1741,2.2192,2.2014,2.1642,0.0,0.0,0.0,0.0,0.0,0.0,0.0,0.0,0.0,0.0,0.0,0.0,0.0,0.0,0.0,0.0,0.0,0.0,2.3004,2.2496,2.169,2.0557,2.1206,2.0188,1.7227,1.7641,1.6999,1.5154,1.5133,1.4818,1.4155,1.3029,1.2447,1.2212,0.9367,0.8102,0.8012,0.7798,0.6802,0.5488,0.7148,0.7541,0.7297,0.8432,1.1156,1.4745,1.7939,2.0724,2.3228,2.5424,2.6486,2.6924,2.6972,2.7989,2.9159,2.9339,3.0809,3.2694,3.4198,3.5491,3.6435,3.6693,3.7143,3.7293,3.6492,3.7273,3.8029,3.7426,3.607,3.4829,3.4393,3.3725,3.345,3.4127,3.3983,3.4441,3.6306,3.4896,3.4192,3.5404,3.5554,3.5554,3.5554,3.5033,3.4643,3.4643,3.4613,3.3965,3.2676,3.3261,3.2691,3.0664,3.0603,2.9988,2.8711,2.8666,2.8612,2.8559,2.9162,2.9453,2.9422,3.0048,2.9217,2.7253,2.6785,2.5746,2.4343,2.3238,2.3095,2.3473,2.2214,2.1719,2.165,2.1719,2.1546,2.128,0.0,0.0,0.0,0.0,0.0,0.0,0.0,0.0,0.0,0.0,0.0,0.0,0.0,0.0,0.0,0.0,0.0,0.0,2.3381,2.1936,2.0978,2.0724,2.0069,1.9258,1.8298,1.7642,1.6922,1.6137,1.5748,1.5375,1.5031,1.4132,1.3075,1.1829,1.0441,0.9307,0.8462,0.8389,0.8639,0.8937,0.8774,0.9972,1.1813,1.1532,1.4359,1.8703,2.0995,2.3506,2.5865,2.6532,2.8068,2.9697,2.9752,3.0852,3.2085,3.1987,3.3171,3.4564,3.477,3.5484,3.6174,3.6193,3.6335,3.625,3.5357,3.5897,3.6208,3.4799,3.3078,3.1829,3.1808,3.222,3.2821,3.3646,3.5868,3.7487,3.7494,3.7038,3.6604,3.6353,3.6337,3.6337,3.6337,3.6718,3.6967,3.6967,3.5947,3.4939,3.4035,3.4706,3.4195,3.2065,3.2002,3.1341,2.9957,2.9438,2.9186,2.918,2.9354,2.94,2.9406,2.9598,2.8798,2.7294,2.7169,2.629,2.4925,2.4106,2.3624,2.3354,2.2501,2.1675,2.106,2.1858,2.1486,2.0686,0.0,0.0,0.0,0.0,0.0,0.0,0.0,0.0,0.0,0.0,0.0,0.0,0.0,0.0,0.0,0.0,0.0,0.0,0.0,2.1642,2.0498,2.0,1.9534,1.8684,1.741,1.7251,1.6711,1.5751,1.5837,1.5608,1.5146,1.4611,1.3708,1.2375,1.1254,1.019,0.919,0.9292,0.9669,0.0,0.0,1.155,1.3336,1.3988,1.6915,2.0914,2.3209,2.6381,2.9446,2.9301,3.0403,3.1776,3.1401,3.2426,3.3734,3.3535,3.4389,3.5444,3.5715,3.6377,3.6889,3.6537,3.6622,3.6455,3.516,3.533,3.5349,3.379,3.2321,3.126,3.1113,3.2196,3.3259,3.3748,3.5943,3.7617,3.7767,3.7295,3.6988,3.714,3.716,3.6974,3.666,3.734,3.7508,3.6885,3.6342,3.575,3.5043,3.4832,3.3898,3.2093,3.2045,3.155,3.0446,2.9758,2.954,2.9805,2.9805,2.9935,3.0192,2.9838,2.9083,2.8024,2.746,2.6578,2.5459,2.4184,2.3687,2.3566,2.2243,2.1553,2.1327,2.1604,2.1361,2.0958,0.0,0.0,0.0,0.0,0.0,0.0,0.0,0.0,0.0,0.0,0.0,0.0,0.0,0.0,0.0,0.0,0.0,0.0,0.0,0.0,2.0241,1.8945,1.9307,1.8401,1.5852,1.6681,1.6366,1.4873,1.5615,1.5596,1.4883,1.4713,1.4223,1.3416,1.1992,1.0931,1.0248,1.0624,1.0585,1.0321,1.1888,1.2893,1.3683,0.0,1.935,2.254,2.5481,2.9357,3.3028,3.2693,3.3141,3.368,3.273,3.3553,3.4783,3.4351,3.4841,3.5664,3.6259,3.7006,3.748,3.6838,3.7055,3.7002,3.5306,3.5192,3.4933,3.3356,3.2429,3.1755,3.1191,3.2564,3.3917,3.4289,3.5267,3.6555,3.8101,3.7094,3.6674,3.7915,3.7882,3.7536,3.6926,3.7456,3.7263,3.5985,3.641,3.6393,3.5562,3.4426,3.311,3.1675,3.153,3.1191,3.0623,2.998,2.9892,3.0435,3.046,3.0764,3.1173,3.0527,2.9797,2.8941,2.7768,2.6819,2.5969,2.4051,2.3613,2.3859,2.1857,2.1391,2.1805,2.1279,2.1306,2.1628,0.0,0.0,0.0,0.0,0.0,0.0,0.0,0.0,0.0,0.0,2.6579,2.6602,0.0,0.0,0.0,0.0,0.0,0.0,0.0,0.0,0.0,1.8782,1.8814,1.8066,1.6423,1.6524,1.6192,1.5303,1.5459,1.5449,1.5303,1.4606,1.4192,1.4012,1.3087,1.2332,1.1876,1.258,1.2644,1.2356,1.4362,1.5641,1.678,2.0197,0.0,0.0,3.0141,3.2627,3.4168,3.4839,3.5759,3.6444,3.5491,3.5913,3.6433,3.4891,3.5026,3.5402,3.4179,3.4502,3.5169,3.4977,3.549,3.5718,3.4404,3.4499,3.4118,3.1604,3.1107,3.0856,3.0032,3.119,3.2993,3.5217,3.6174,3.7665,4.0699,3.9513,3.8632,3.9393,3.849,3.7773,3.7588,3.7784,3.7802,3.7533,3.7064,3.6187,3.4759,3.5044,3.4315,3.2219,3.1566,3.1197,3.1063,3.0945,3.0935,3.1055,3.1359,3.1414,3.1213,3.1116,3.0335,2.8977,2.8391,2.7555,2.6472,2.4893,2.4131,2.3752,2.2113,2.1356,2.1199,2.1417,2.1521,2.1658,0.0,0.0,0.0,0.0,0.0,0.0,0.0,2.9665,2.9313,2.87,2.8642,2.8107,2.6625,2.6283,2.5801,0.0,0.0,0.0,0.0,0.0,0.0,0.0,1.7731,1.7024,1.5921,1.6153,1.5878,1.5088,0.0,1.5518,1.5088,1.4468,1.3965,1.3545,1.3183,1.2607,1.2074,1.3413,1.4156,1.4626,1.6772,1.8249,1.951,2.3018,0.0,0.0,3.1937,3.338,3.4031,3.4672,3.582,3.684,3.6009,3.6034,3.6001,3.4205,3.3945,3.4081,3.3355,3.3822,3.4549,3.456,3.5132,3.5325,3.3876,3.3569,3.2972,3.0749,3.0525,3.0613,3.021,3.1409,3.3031,3.4743,3.6068,3.7654,3.9774,3.962,3.9495,3.9901,3.9378,3.8688,3.7937,3.8235,3.799,3.6806,3.6755,3.6279,3.5148,3.4314,3.3389,3.2307,3.1803,3.1696,3.2145,3.1958,3.1896,3.1896,3.2074,3.183,3.1236,3.0894,3.012,2.8982,2.839,2.7695,2.6916,2.5438,2.4581,2.4043,2.2542,2.184,2.1691,2.1899,2.2039,2.2214,0.0,0.0,0.0,0.0,0.0,0.0,0.0,2.9765,2.9675,3.0211,3.031,2.9236,2.6451,2.6817,2.6583,0.0,0.0,0.0,0.0,0.0,0.0,0.0,0.0,0.0,1.541,0.0,0.0,1.5059,1.583,0.0,0.0,0.0,0.0,0.0,1.3492,1.3066,1.2671,1.4421,1.5563,0.0,0.0,2.0617,2.1825,0.0,0.0,0.0,0.0,3.3374,3.3527,3.4237,3.5048,3.5662,3.5256,3.548,3.5456,3.328,3.2891,3.3082,3.2668,3.3227,3.3996,3.4261,3.4754,3.4828,3.3498,3.2885,3.2107,3.0357,3.0355,3.0667,3.0623,3.1712,3.3003,3.4176,3.5438,3.6929,3.8807,3.9286,3.9686,4.0412,4.0118,3.9343,3.8041,3.8278,3.7702,3.5774,3.5966,3.5909,3.5182,3.3277,3.2179,3.2179,3.2027,3.2264,3.2891,3.2457,3.2237,3.2237,3.2175,3.1767,3.1002,3.0457,2.9763,2.8947,2.8301,2.7706,2.7078,2.5714,2.4873,2.4224,2.2898,2.2388,2.2388,2.2388,2.2563,2.2822,0.0,0.0,0.0,0.0,0.0,0.0,0.0,2.9272,2.9297,2.9543,2.9416,2.9025,2.8163,2.8788,2.8513,0.0,0.0,0.0,0.0,0.0,0.0,0.0,0.0,0.0,0.0,0.0,0.0,1.6007,1.6436,0.0,0.0,0.0,0.0,0.0,0.0,1.4823,1.5061,1.6602,0.0,0.0,0.0,0.0,0.0,0.0,0.0,0.0,0.0,3.3579,3.3163,3.5093,3.4339,3.2727,3.3392,3.5062,3.6123,3.2798,3.2891,3.3583,3.1352,3.1414,3.2355,3.3204,3.3424,3.3401,3.3245,3.2885,3.2107,3.0357,3.0476,3.0828,3.0626,3.102,3.2151,3.4531,3.4361,3.556,4.0209,3.9567,3.9363,4.1402,4.0134,3.8768,3.799,3.7347,3.6603,3.569,3.4829,3.414,3.3609,3.2488,3.1856,3.1856,3.2248,3.2486,3.2557,3.178,3.1423,3.1405,3.1118,3.0695,3.0225,3.0206,2.9763,2.8995,2.8533,2.7763,2.669,2.5826,2.4857,2.386,2.3006,2.2643,2.2643,2.2643,2.2873,2.3141,0.0,0.0,0.0,0.0,0.0,0.0,2.8537,2.8666,2.8871,2.9262,2.9271,2.9148,2.8871,2.91,2.8366,2.631,0.0,0.0,0.0,0.0,0.0,0.0,0.0,0.0,0.0,0.0,1.6201,1.6465,1.6641,0.0,0.0,0.0,0.0,0.0,0.0,1.6046,1.6059,1.8706,0.0,0.0,0.0,0.0,0.0,0.0,0.0,0.0,0.0,0.0,3.2101,3.3315,3.2767,3.1629,3.1826,3.2892,3.3723,3.1962,3.2045,3.2601,3.2174,3.2742,3.3568,3.3988,3.406,3.3751,3.2678,3.2249,3.1607,2.9838,2.9937,3.0319,3.0255,3.0716,3.152,3.2858,3.3584,3.4838,3.7312,3.7488,3.809,4.0123,3.9686,3.9015,3.8425,3.8116,3.7256,3.5505,3.4401,3.3717,3.3532,3.2686,3.2196,3.2196,3.2204,3.2192,3.2192,3.1639,3.1365,3.1365,3.1228,3.0802,3.0161,3.0198,2.9771,2.8985,2.8828,2.8377,2.7629,2.6365,2.5476,2.4752,2.3488,2.2996,2.2996,2.2996,2.3212,2.35,0.0,0.0,0.0,0.0,0.0,2.7153,2.7789,2.8119,2.8453,2.8856,2.891,2.8822,2.8785,2.8483,2.7575,2.5781,2.4939,0.0,0.0,0.0,0.0,0.0,0.0,0.0,0.0,0.0,1.6611,1.6924,1.7178,1.7227,0.0,0.0,1.6517,1.6091,0.0,0.0,0.0,0.0,0.0,0.0,0.0,0.0,0.0,0.0,0.0,0.0,0.0,0.0,0.0,0.0,0.0,3.0686,3.0553,3.0899,3.1317,3.1004,3.1412,3.2077,3.258,3.3402,3.4191,3.4511,3.4414,3.3805,3.2279,3.189,3.1329,2.9496,2.9886,3.0579,3.0715,3.1336,3.1996,3.2566,3.3519,3.4562,3.5647,3.628,3.7273,3.9085,3.9332,3.9206,3.8743,3.8304,3.7206,3.5227,3.427,3.3608,3.3128,3.2755,3.2469,3.2343,3.2241,3.2045,3.1809,3.1313,3.1035,3.1035,3.0797,3.0393,2.9861,2.9861,2.9549,2.8975,2.8737,2.8474,2.8118,2.6545,2.5672,2.5198,2.3862,2.3346,2.3346,2.3346,2.3566,2.3855,0.0,0.0,0.0,0.0,0.0,0.0,2.7003,2.769,2.8142,2.8186,2.8013,2.7869,2.7709,2.7027,2.6094,2.5134,2.4888,0.0,0.0,0.0,0.0,0.0,0.0,0.0,0.0,0.0,1.7373,1.7373,1.8213,1.8408,1.8008,1.9284,1.9489,1.8825,0.0,0.0,0.0,0.0,0.0,0.0,0.0,0.0,0.0,0.0,0.0,0.0,0.0,0.0,0.0,0.0,0.0,0.0,0.0,2.9544,2.9512,2.9912,3.1249,3.2484,3.196,3.2501,3.3445,3.4367,3.3945,3.309,3.2199,3.1958,3.1391,2.9577,3.0586,3.192,3.2401,3.3182,3.3971,3.4564,3.4423,3.4772,3.644,3.6656,3.7196,3.8797,3.9231,3.9221,3.8762,3.732,3.5964,3.4889,3.45,3.3628,3.209,3.2383,3.2411,3.2029,3.2383,3.2228,3.1403,3.0613,3.021,3.021,2.942,2.9012,2.8994,2.8994,2.8994,2.8957,2.8154,2.7805,2.7677,2.6062,2.5199,2.4829,2.4017,2.3692,2.3692,2.3692,2.3917,2.419,0.0,0.0,0.0,0.0,0.0,0.0,0.0,2.541,2.5637,2.5966,2.5924,2.5967,2.6242,2.6418,2.6094,2.5087,2.4626,0.0,0.0,0.0,0.0,0.0,0.0,0.0,0.0,0.0,1.784,1.8705,1.9431,2.0053,2.0553,2.1467,2.1608,2.1174,2.2964,2.3666,0.0,0.0,0.0,0.0,0.0,0.0,3.0908,0.0,0.0,0.0,0.0,0.0,0.0,0.0,0.0,0.0,0.0,0.0,0.0,2.9731,3.0706,3.1804,3.2285,3.28,3.327,3.3633,3.3122,3.2318,3.1387,3.109,3.0678,2.9458,3.054,3.1773,3.1943,3.3119,3.4274,3.4883,3.5344,3.5885,3.6603,3.7155,3.8007,3.9433,3.986,3.9732,3.9048,3.703,3.563,3.5283,3.3966,3.294,3.2429,3.2012,3.1719,3.1597,3.1187,3.0834,3.0577,2.9787,2.9476,2.9657,2.9218,2.9163,2.9456,2.9332,2.9018,2.8577,2.8316,2.7904,2.7288,2.6098,2.5541,2.5354,2.4406,2.4135,2.4229,2.4077,2.4191,2.4393,0.0,0.0,0.0,0.0,0.0,0.0,0.0,2.4386,2.4619,2.4382,2.4878,2.5376,2.5564,2.5828,2.5596,2.476,2.3864,0.0,0.0,0.0,0.0,0.0,0.0,0.0,0.0,1.7939,1.8623,1.9695,2.0887,2.1884,2.274,2.3728,2.4119,2.3958,2.5551,2.6122,0.0,0.0,0.0,0.0,0.0,0.0,3.1397,0.0,0.0,0.0,0.0,0.0,0.0,0.0,0.0,0.0,0.0,0.0,0.0,0.0,3.1035,3.1962,3.2249,3.2754,3.3206,3.3254,3.2721,3.203,3.1407,3.12,3.0942,3.0311,3.1505,3.2663,3.2653,3.4007,3.5158,3.5251,3.6126,3.6844,3.7009,3.7804,3.8739,3.9779,4.0134,3.982,3.8631,3.696,3.5659,3.4915,3.3442,3.239,3.1863,3.1052,3.0489,3.029,3.0013,2.9921,3.0012,2.8878,2.8552,2.9008,2.8552,2.8483,2.8755,2.8633,2.8333,2.7926,2.7625,2.738,0.0,2.5876,2.5529,2.5718,2.4777,2.4512,2.4591,2.4478,2.4512,2.461,0.0,0.0,0.0,0.0,0.0,0.0,0.0,2.4386,2.4687,2.3455,2.4741,2.5727,2.5589,2.5253,2.4763,2.4175,0.0,0.0,0.0,0.0,0.0,0.0,0.0,0.0,1.8076,1.8967,1.9879,2.0665,2.2555,2.3877,2.4738,2.6112,2.6822,2.6967,2.7874,2.8288,0.0,0.0,0.0,0.0,0.0,0.0,0.0,0.0,0.0,0.0,0.0,0.0,0.0,0.0,0.0,0.0,0.0,0.0,0.0,0.0,0.0,0.0,0.0,3.2531,3.3206,3.3206,3.2745,3.2244,3.2118,3.2085,0.0,3.1999,3.3267,3.4375,3.4379,3.5699,3.6584,3.5892,3.6875,3.7752,3.7849,3.8723,3.9463,3.9804,4.0073,3.9472,3.7558,3.6931,3.5876,3.4005,3.3051,3.1961,3.0605,2.9709,2.8951,2.8374,2.8821,2.9213,2.9526,2.7983,2.7587,2.8336,2.7568,2.7229,2.7261,2.7226,2.7207,2.7129,2.6355,2.6431,2.6959,2.5427,2.5257,2.585,2.5091,2.4804,2.4818,2.4804,2.4804,2.4818,0.0,0.0,0.0,0.0,0.0,0.0,0.0,0.0,0.0,0.0,2.3966,2.4722,2.5498,2.5253,2.4611,0.0,0.0,0.0,0.0,0.0,0.0,0.0,0.0,0.0,1.8977,2.0384,2.1774,2.3102,2.4995,2.6589,2.786,2.874,2.9187,2.9241,2.9629,2.9789,0.0,0.0,0.0,0.0,0.0,0.0,0.0,0.0,0.0,0.0,3.1561,3.1078,0.0,0.0,0.0,0.0,0.0,0.0,0.0,0.0,3.2804,3.3239,3.3704,0.0,3.3278,3.3278,3.3163,3.3021,0.0,3.2875,3.2945,3.3577,3.4515,3.5393,3.5988,3.6988,3.7853,3.8334,3.8689,3.9246,4.0292,4.1192,4.1149,3.9476,3.9402,3.8595,3.6405,3.6141,3.5619,3.4498,3.3114,3.1578,2.9927,2.9062,2.832,2.7723,2.7209,2.7214,2.7778,2.7401,2.7368,2.7704,2.7349,2.7384,2.7738,2.7508,2.7178,2.673,2.655,2.6194,2.5704,2.517,2.5063,2.5209,2.4917,2.4869,2.4937,2.4842,2.485,2.4937,0.0,0.0,0.0,0.0,0.0,0.0,0.0,0.0,0.0,0.0,0.0,0.0,0.0,0.0,0.0,0.0,0.0,0.0,0.0,0.0,0.0,0.0,0.0,2.0079,2.1173,2.1922,2.3331,2.5356,2.6986,2.8605,3.0159,3.0599,3.104,3.1455,3.1353,3.1206,0.0,0.0,0.0,0.0,3.3048,0.0,0.0,0.0,0.0,0.0,3.2713,3.2367,0.0,3.1355,3.1361,3.1773,0.0,0.0,0.0,0.0,3.4549,3.5137,3.6015,3.5332,3.451,3.49,3.5001,3.4976,3.4918,3.4542,3.4311,3.4766,3.5483,3.618,3.6622,3.8046,3.9046,3.8738,4.0058,4.1171,4.1396,4.1132,4.0359,3.8958,3.8426,3.7566,3.5988,3.552,3.4785,3.3599,3.1959,3.0486,2.9285,2.8089,2.7324,2.7101,2.6228,2.6352,2.7513,2.6738,2.6581,2.7082,2.6568,2.646,2.6697,2.6562,2.6304,2.6005,2.6005,2.5736,2.5284,2.5173,2.5141,2.5141,2.5049,2.5072,2.513,2.5049,2.5072,2.513,0.0,0.0,0.0,0.0,0.0,0.0,0.0,0.0,0.0,0.0,0.0,0.0,0.0,0.0,0.0,0.0,0.0,0.0,0.0,0.0,0.0,0.0,0.0,2.1431,2.353,2.3634,2.4881,2.7272,2.8592,3.0054,3.1724,3.1792,3.2317,3.325,3.2773,3.2513,0.0,0.0,3.3036,3.2998,3.3921,0.0,0.0,0.0,0.0,0.0,0.0,0.0,0.0,3.2326,3.2426,3.3004,3.2322,0.0,0.0,0.0,0.0,0.0,3.8405,3.7784,3.6905,3.7148,3.7272,3.7307,3.7084,3.6491,3.6013,3.6112,3.6665,3.7205,3.7488,3.9185,4.0116,3.8838,4.1228,4.2811,4.1664,4.0171,3.8962,3.8341,3.7566,3.6651,3.559,3.4945,3.3902,3.2286,3.0658,2.9429,2.8728,2.7223,2.6381,2.642,2.5716,2.6044,2.7528,2.6044,2.5668,2.639,2.5649,2.5303,2.5303,2.5303,2.5303,2.5303,2.5303,2.5303,2.5303,2.5303,2.5303,2.5313,2.5313,2.5313,2.5322,2.534,2.533,2.533,0.0,0.0,0.0,0.0,0.0,0.0,0.0,0.0,0.0,0.0,0.0,0.0,0.0,0.0,0.0,0.0,0.0,0.0,0.0,0.0,0.0,2.467,2.3753,2.3341,2.3742,2.5716,2.7164,2.8115,2.9842,3.1281,3.2331,3.1986,3.2389,3.344,3.3151,3.3476,3.4278,3.4124,3.4198,3.4408,3.4918,0.0,0.0,0.0,0.0,0.0,0.0,0.0,0.0,3.3068,3.3086,3.3236,3.3049,0.0,0.0,0.0,0.0,0.0,3.998,4.1228,4.141,3.877,3.8568,3.8858,3.8225,3.7919,3.8015,3.8808,3.9077,3.9602,4.1012,4.0984,4.0906,4.1382,4.2538,4.281,4.1226,4.0781,3.9888,3.7947,3.7541,3.6406,3.3865,3.4156,3.3807,3.2081,3.1006,2.9792,2.8288,2.7252,2.6405,2.569,2.5535,2.5593,2.5865,2.549,2.536,2.5495,2.536,2.5303,2.5303,2.5303,2.5303,2.5303,2.5303,2.5303,2.5303,2.5303,2.5303,2.5313,2.5363,2.5376,2.5383,2.5453,2.5477,2.5477,0.0,0.0,0.0,0.0,0.0,0.0,0.0,0.0,0.0,0.0,0.0,0.0,0.0,0.0,0.0,0.0,0.0,0.0,0.0,0.0,2.6496,2.6749,2.6739,2.6701,2.6701,2.7199,2.8253,2.9916,3.0834,3.1595,3.2127,3.2574,3.3045,3.3586,3.3868,3.4373,3.4962,3.4885,3.5044,3.5399,0.0,0.0,0.0,0.0,0.0,0.0,0.0,0.0,0.0,0.0,3.3895,3.3828,3.3802,0.0,0.0,0.0,0.0,0.0,3.953,4.0621,4.1101,4.0461,4.159,4.254,4.1321,4.066,4.0166,3.9707,3.9967,4.0544,4.1303,4.186,4.2673,4.4046,4.3448,4.2699,4.244,4.0784,3.9199,3.8166,3.7176,3.5885,3.4088,3.3829,3.3265,3.2,3.0244,2.8902,2.8129,2.6826,2.5912,2.5513,2.5493,2.5493,2.5493,2.5441,2.542,2.542,2.542,2.542,2.542,2.542,2.542,2.542,2.542,2.542,2.542,2.542,2.542,2.5401,2.5441,2.5459,2.5459,2.5498,2.5493,2.5493,0.0,0.0,0.0,0.0,0.0,0.0,0.0,0.0,0.0,0.0,0.0,0.0,0.0,0.0,0.0,0.0,0.0,0.0,0.0,0.0,2.8143,2.8292,2.909,2.9372,2.9147,2.8507,2.9243,3.1374,3.1688,3.1795,3.1812,3.3117,3.3758,3.3844,3.4583,3.5185,3.5635,3.5521,3.5761,3.6289,0.0,0.0,0.0,0.0,0.0,0.0,0.0,0.0,0.0,0.0,0.0,0.0,0.0,0.0,0.0,3.707,3.729,3.7839,3.9271,3.9904,4.0485,4.1752,4.3516,4.473,4.3919,4.3078,4.2149,4.1081,4.1393,4.1797,4.1582,4.261,4.3927,4.5301,4.4047,4.3141,4.3886,4.1504,3.9448,3.8781,3.7367,3.5866,3.4394,3.3634,3.2815,3.1758,2.9479,2.8158,2.8158,2.6482,2.5551,2.5551,2.5551,2.5551,2.5551,2.5551,2.5539,2.5493,2.5493,2.5493,2.5493,2.5493,2.5493,2.5493,2.5493,2.5493,2.5493,2.5493,2.5493,2.5493,2.5526,2.5539,2.5551,2.5551,2.5551,2.5551,0.0,0.0,0.0,0.0,0.0,0.0,0.0,0.0,0.0,0.0,0.0,0.0,0.0,0.0,0.0,0.0,0.0,0.0,0.0,0.0,2.9175,2.9134,2.9924,2.994,2.8931,3.0044,3.0925,3.156,3.2143,3.2172,3.1757,3.3405,3.4264,3.4444,3.5014,3.5888,3.6918,3.6239,3.6425,3.7207,3.7265,0.0,0.0,0.0,0.0,0.0,0.0,0.0,0.0,0.0,0.0,0.0,0.0,0.0,3.8179,3.8191,3.8755,3.9591,4.0449,4.1293,4.1988,4.2231,4.2325,4.2802,4.4417,4.4118,4.37,4.445,4.4667,4.4453,4.3652,4.3593,4.371,4.3847,4.4288,4.4672,4.4793,4.3892,4.2327,3.9891,3.8883,3.7108,3.3808,3.3417,3.2714,3.1093,2.9296,2.8281,2.8281,2.662,2.5683,2.5683,2.5683,2.5683,2.5683,2.5683,2.5611,2.5493,2.5493,2.5493,2.5493,2.5493,2.5493,2.5493,2.5493,2.5493,2.5493,2.5493,2.5493,2.5517,2.5564,2.5633,2.5683,2.5683,2.5683,2.5683,0.0,0.0,0.0,0.0,0.0,0.0,0.0,0.0,0.0,0.0,0.0,0.0,0.0,0.0,0.0,0.0,0.0,0.0,0.0,2.8713,2.9258,2.9367,3.0433,3.0868,3.0592,3.0109,3.0096,3.068,3.1812,3.2985,3.4181,3.4312,3.4876,3.5804,3.5718,3.5938,3.6332,3.6091,3.6504,3.7344,3.7891,3.7773,0.0,0.0,0.0,0.0,0.0,0.0,0.0,0.0,3.5377,3.5324,3.5269,3.6274,3.7384,3.6832,3.7358,3.816,3.8376,3.9959,4.1534,4.1503,4.1882,4.289,4.5247,4.5522,4.535,4.5634,4.5687,4.5249,4.3773,4.4367,4.4894,4.4406,4.4988,4.5319,4.4839,4.3565,4.1909,3.9883,3.7981,3.5912,3.3505,3.2787,3.1773,3.0095,2.8844,2.7947,2.7407,2.6233,2.559,2.559,2.5627,2.5636,2.5636,2.5683,2.5644,2.5566,2.5598,2.5611,2.5611,2.5611,2.5611,2.5611,2.5611,2.5611,2.5611,2.5611,2.5611,2.5633,2.5659,2.5683,2.5703,2.5703,2.5703,2.5703,0.0,0.0,0.0,0.0,0.0,0.0,0.0,0.0,0.0,0.0,0.0,0.0,0.0,0.0,0.0,0.0,0.0,0.0,2.7567,2.8509,2.9195,2.969,3.0762,3.125,3.1141,3.0056,2.9993,3.1062,3.1912,3.3256,3.5132,3.4814,3.5125,3.5931,3.5861,3.5868,3.5894,3.5683,3.6406,3.7754,3.8359,3.8242,0.0,0.0,0.0,0.0,0.0,0.0,0.0,0.0,3.5907,3.586,3.5817,3.6382,3.6972,3.6382,3.7074,3.8026,3.7932,3.9515,4.125,4.1394,4.1913,4.3042,4.566,4.6012,4.5968,4.6429,4.5626,4.4617,4.395,4.4303,4.4692,4.4692,4.5133,4.5162,4.4336,4.2742,4.0926,3.8982,3.7,3.5016,3.2986,3.2246,3.1195,2.9522,2.8582,2.7726,2.6841,2.596,2.5493,2.5493,2.5547,2.5564,2.5564,2.5607,2.5607,2.5564,2.5607,2.5636,2.5636,2.5636,2.5636,2.5636,2.5636,2.5636,2.5636,2.5636,2.5636,2.5636,2.5636,2.5658,2.5662,2.5662,2.5683,2.5703,0.0,0.0,0.0,0.0,0.0,0.0,0.0,0.0,0.0,0.0,0.0,0.0,0.0,0.0,0.0,0.0,0.0,0.0,2.6232,2.7682,2.8996,3.014,3.0898,3.0916,3.0142,3.0108,3.1115,3.3196,3.2602,3.286,3.393,3.4719,3.4884,3.453,3.5331,3.5755,3.5848,3.5036,3.6191,3.8594,3.8594,3.8594,3.8574,0.0,0.0,0.0,0.0,0.0,0.0,0.0,3.6016,3.6016,3.5996,3.6601,3.7305,3.7305,3.8535,3.9902,3.9883,4.0547,4.1406,4.2187,4.2351,4.2958,4.5503,4.5425,4.5289,4.7025,4.4572,4.2649,4.4373,4.3292,4.2708,4.4411,4.4575,4.4189,4.331,4.1749,3.9743,3.7188,3.6234,3.4743,3.2149,3.1896,3.1195,2.9522,2.8602,2.7726,2.6841,2.598,2.5508,2.5508,2.5508,2.5489,2.5489,2.5489,2.5489,2.5489,2.5489,2.5489,2.5493,2.5493,2.5493,2.5493,2.5493,2.5493,2.5493,2.5493,2.5493,2.5493,2.5493,2.5547,2.5601,2.5601,2.5636,2.5703,0.0,0.0,0.0,0.0,0.0,0.0,0.0,0.0,0.0,0.0,0.0,0.0,0.0,0.0,0.0,0.0,0.0,0.0,2.7008,2.7803,2.8582,2.9478,3.0109,3.0734,3.1259,3.162,3.1936,3.2231,3.2514,3.3429,3.4881,3.4739,3.466,3.4648,3.4834,3.4968,3.5036,3.4804,3.5859,3.7734,3.8359,3.8223,3.7754,0.0,0.0,0.0,0.0,0.0,0.0,0.0,0.0,0.0,3.6142,3.6986,3.8085,3.7411,3.8492,3.9766,3.9141,4.0444,4.1875,4.1501,4.2261,4.3428,4.4791,4.4915,4.5017,4.6056,4.5357,4.4544,4.4448,4.4506,4.4544,4.4428,4.4403,4.3856,4.241,4.0771,3.8767,3.6222,3.4631,3.3235,3.1892,3.1196,3.0385,2.9265,2.8434,2.7584,2.6715,2.5826,2.5363,2.5363,2.5413,2.5421,2.5421,2.5482,2.5482,2.5421,2.5421,2.5459,2.5493,2.5493,2.5493,2.5493,2.5493,2.5493,2.5493,2.5493,2.5493,2.5493,2.5493,2.5503,2.5535,2.5535,2.5547,2.5564,0.0,0.0,0.0,0.0,0.0,0.0,0.0,0.0,0.0,0.0,2.4474,0.0,0.0,0.0,0.0,0.0,0.0,0.0,0.0,2.7738,2.841,2.9559,3.006,3.0773,3.1771,3.2545,3.2857,3.269,3.2798,3.3573,3.4978,3.4981,3.4686,3.4153,3.4466,3.4429,3.4155,3.4179,3.5195,3.6855,3.7734,3.7753,3.7318,0.0,0.0,0.0,0.0,0.0,0.0,0.0,0.0,0.0,3.6001,3.6813,3.7842,3.7284,3.8896,4.0734,4.0151,4.1605,4.3236,4.3005,4.3397,4.3956,4.4424,4.4846,4.5149,4.5181,4.4608,4.4047,4.3855,4.3682,4.3624,4.3797,4.3528,4.2835,4.147,3.9835,3.7834,3.5295,3.3757,3.2449,3.1295,3.0717,3.0044,2.9159,2.8352,2.7525,2.6659,2.5764,2.5264,2.5173,2.5216,2.5235,2.5235,2.5286,2.5329,2.5354,2.5354,2.5376,2.5415,2.5415,2.5415,2.5415,2.5415,2.5415,2.5415,2.5415,2.5415,2.5415,2.5415,2.5247,2.5024,2.5335,2.5274,2.507,0.0,0.0,0.0,0.0,0.0,0.0,0.0,0.0,0.0,0.0,2.4732,2.4644,0.0,0.0,0.0,0.0,0.0,0.0,0.0,0.0,2.842,3.0145,3.0573,3.1168,3.1951,3.3033,3.3758,3.4106,3.3351,3.347,3.4393,3.513,3.4621,3.3113,3.3981,3.3926,3.3194,3.3259,3.4297,3.5957,3.6836,3.7143,3.7093,3.7172,0.0,0.0,0.0,0.0,0.0,0.0,0.0,0.0,3.5813,3.6409,3.7129,3.7206,3.9513,4.2052,4.2081,4.3305,4.4746,4.5577,4.5176,4.4554,4.4314,4.4967,4.5351,4.4352,4.2917,4.211,4.2881,4.1709,4.1171,4.2783,4.2264,4.1357,4.0508,3.8931,3.693,3.4372,3.3359,3.2225,3.0552,3.0367,3.004,2.9275,2.839,2.7544,2.6755,2.5832,2.5214,2.501,2.501,2.4979,2.4986,2.4986,2.5077,2.5253,2.5253,2.5253,2.5253,2.5293,2.5303,2.5303,2.5303,2.5303,2.5284,2.5207,2.5226,2.5284,2.5207,2.4789,2.4283,2.5011,2.4852,2.4394,0.0,0.0,0.0,0.0,0.0,0.0,0.0,0.0,0.0,0.0,0.0,0.0,0.0,0.0,0.0,0.0,0.0,0.0,0.0,0.0,2.879,3.0381,3.1487,3.2432,3.3208,3.3479,3.3998,3.485,3.4066,3.3607,3.3472,3.366,3.291,3.1443,3.2221,3.2519,3.2439,3.2441,3.3437,3.5059,3.5937,3.6244,3.6254,3.6937,3.6572,0.0,0.0,0.0,0.0,0.0,0.0,0.0,3.6667,3.7286,3.8121,3.8714,3.9496,4.0461,4.1754,4.2344,4.2953,4.4432,4.5095,4.5122,4.4193,4.4135,4.4059,4.3139,4.268,4.2391,4.2332,4.2003,4.1955,4.2603,4.1457,4.025,3.9646,3.8065,3.6026,3.3487,3.2881,3.2072,3.054,3.0209,3.0106,3.0129,2.8736,2.7813,2.7621,2.6159,2.5214,2.501,2.501,2.4949,2.4842,2.4842,2.4855,2.4915,2.4915,2.4915,2.4929,2.5171,2.5303,2.5303,2.5303,2.5303,2.5245,2.462,2.4736,2.5245,2.4601,2.4263,2.4146,2.4319,2.4279,2.4177,0.0,0.0,0.0,0.0,0.0,0.0,0.0,0.0,0.0,0.0,0.0,0.0,0.0,0.0,0.0,0.0,0.0,0.0,0.0,0.0,2.9156,3.0594,3.2371,3.3405,3.3587,3.4064,3.4561,3.5105,3.4817,3.4384,3.3829,3.4284,3.3648,3.2109,3.2495,3.2496,3.2207,3.2207,3.293,3.414,3.4996,3.5519,3.586,3.6274,3.6098,3.5601,3.5601,0.0,0.0,0.0,0.0,0.0,0.0,0.0,3.8864,3.9245,4.0018,4.0917,4.1734,4.2562,4.3453,4.452,4.4959,4.4868,4.3859,4.332,4.2743,4.1751,4.1673,4.1604,4.1005,4.0585,4.039,4.0564,3.9521,3.846,3.7754,3.6551,3.4947,3.2813,3.2222,3.1508,3.0311,3.0075,3.0061,3.0196,2.8574,2.7567,2.7567,2.5964,2.4975,2.478,2.4747,2.4723,2.4654,2.4654,2.47,2.4804,2.4804,2.4804,2.4804,2.5049,2.5214,2.5284,2.4889,2.4736,2.4659,2.3812,2.3966,2.4639,2.3793,2.3725,2.411,2.411,2.411,2.41,0.0,0.0,0.0,0.0,0.0,0.0,0.0,0.0,0.0,0.0,0.0,0.0,0.0,0.0,0.0,0.0,0.0,0.0,0.0,0.0,0.0,3.0921,3.2908,3.3887,3.3623,3.4603,3.5045,3.4945,3.5326,3.5303,3.4945,3.5437,3.4839,3.3378,3.3398,3.3027,3.2402,3.2402,3.2871,3.3672,3.4342,3.5056,3.5696,3.5648,3.5574,3.5493,3.5493,3.5493,3.5622,3.643,0.0,0.0,0.0,0.0,3.9258,3.9123,4.0139,4.1319,4.1312,4.2668,4.4206,4.4662,4.4711,4.4316,4.3246,4.2485,4.1649,4.0393,4.0364,4.0357,3.9588,3.8888,3.8428,3.8324,3.763,3.6767,3.5828,3.4999,3.3865,3.2204,3.1497,3.0836,3.003,2.9924,2.9908,2.9954,2.8244,2.7204,2.7204,2.5657,2.4716,2.4512,2.4495,2.4478,2.4444,2.4444,2.4545,2.47,2.47,2.4716,2.476,2.4858,2.4934,2.4954,2.4293,2.3909,2.3727,2.2891,2.3054,2.3775,2.3081,2.3244,2.3898,2.4033,2.3995,2.3879,0.0,0.0,0.0,0.0,0.0,0.0,0.0,0.0,0.0,0.0,2.6242,2.6472,0.0,0.0,0.0,0.0,0.0,0.0,3.0472,0.0,0.0,3.1634,3.2631,3.3358,3.3749,3.4634,3.4824,3.4326,3.5109,3.5894,3.6644,3.5308,3.4194,3.3311,3.3376,3.334,3.3242,3.3242,3.373,3.4531,3.4648,3.509,3.5703,3.5689,3.5611,3.5493,3.5493,3.5493,3.5622,3.643,3.7199,0.0,0.0,0.0,3.9142,3.8392,3.833,3.8642,3.9139,4.0822,4.2606,4.3364,4.4065,4.4113,4.2258,4.1745,4.1148,3.9312,3.9156,3.9248,3.8862,3.873,3.8514,3.8026,3.7287,3.632,3.5034,3.4111,3.2978,3.1335,3.0885,3.0433,2.9806,2.9589,2.9551,2.9731,2.8164,2.7204,2.7204,2.5657,2.4716,2.4512,2.4495,2.4428,2.4247,2.4247,2.4247,2.4284,2.4284,2.4375,2.4545,2.4559,2.4253,2.3733,2.3638,2.3177,2.2488,2.1784,2.2008,2.2793,2.2795,2.287,2.3071,2.3821,2.3629,2.2966,0.0,0.0,0.0,0.0,0.0,0.0,0.0,0.0,0.0,0.0,0.0,2.696,0.0,0.0,0.0,2.9902,3.0285,3.0424,3.0346,3.0835,3.1181,3.1278,3.2222,3.2824,3.3067,3.4072,3.4462,3.4199,3.5064,3.5952,3.6809,3.6196,3.6026,3.6223,3.5273,3.4863,3.4785,3.3809,3.3906,3.4707,3.4661,3.5399,3.6489,3.5918,3.5939,3.6219,3.5724,3.5528,3.5622,3.643,3.7276,3.8007,3.8007,0.0,0.0,0.0,3.7894,3.8012,3.9049,3.9886,4.084,4.2583,4.2828,4.2419,4.1502,4.0954,4.0295,3.8958,3.8803,3.8696,3.8113,3.7257,3.6562,3.6306,3.5613,3.4722,3.3669,3.2817,3.1849,3.0692,3.0195,2.9827,2.957,2.9454,2.9434,2.9532,2.7867,2.686,2.686,2.5354,2.4409,2.4321,2.4321,2.4284,2.419,2.419,2.419,2.419,2.419,2.4247,2.4321,2.4321,2.4046,2.3477,2.303,2.2382,2.1575,2.0789,2.1026,2.1835,2.1398,2.2172,2.3514,2.3417,2.3716,2.4139,0.0,0.0,0.0,0.0,0.0,0.0,0.0,0.0,0.0,0.0,0.0,0.0,0.0,0.0,0.0,0.0,3.0335,3.0192,2.9894,3.0557,3.0988,3.0992,3.1768,3.2241,3.2306,3.3325,3.3757,3.3564,3.4641,3.5611,3.6434,3.6803,3.7531,3.8469,3.7226,3.6543,3.625,3.4941,3.4883,3.5644,3.5146,3.5971,3.7402,3.644,3.6565,3.7133,3.627,3.6063,3.6267,3.6864,3.7627,3.8334,3.8334,3.8777,0.0,0.0,0.0,3.7012,3.8297,3.8658,3.9212,4.1237,4.144,4.1056,4.0855,4.0322,3.9606,3.8597,3.823,3.7845,3.7019,3.6193,3.5514,3.5064,3.4504,3.3678,3.2467,3.177,3.1017,3.0008,2.9529,2.9289,2.9289,2.9289,2.9289,2.9289,2.7622,2.6612,2.6612,2.5071,2.419,2.419,2.419,2.419,2.419,2.419,2.419,2.419,2.419,2.419,2.419,2.419,2.3894,2.3322,2.252,2.1709,2.0896,2.0076,2.0202,2.0896,2.0727,2.1934,2.3744,2.3524,2.4101,2.4909,0.0,0.0,0.0,0.0,0.0,0.0,0.0,0.0,0.0,0.0,0.0,0.0,3.0007,2.9609,2.9566,3.0502,2.9948,2.9382,2.9,2.9672,3.0418,3.1238,3.1329,0.0,3.1731,3.2564,3.2583,3.1833,3.3468,3.4743,3.5679,3.6503,3.7402,3.8312,3.8428,3.8008,3.7226,3.7148,3.7598,3.8242,3.6582,3.6907,3.8248,3.7425,3.7586,3.8111,3.7247,3.743,3.805,3.8039,3.8569,3.9219,3.9219,3.9258,3.8919,0.0,0.0,0.0,3.5453,3.6628,3.7783,3.8683,4.001,4.091,4.0139,3.9918,3.9441,3.7881,3.6945,3.6156,3.5284,3.6358,3.6835,3.5247,3.4954,3.4137,3.1788,3.1421,3.0815,2.9255,2.9035,2.9017,2.9017,2.9017,2.9017,2.9017,2.753,2.6612,2.6612,2.5071,2.419,2.419,2.419,2.419,2.419,2.419,2.419,2.419,2.419,2.419,2.419,2.419,2.3768,2.2978,2.2169,2.1323,2.0478,1.9861,1.9713,2.0051,2.1782,2.2642,2.3043,2.4601,2.4736,2.4168,0.0,0.0,0.0,0.0,0.0,0.0,0.0,0.0,0.0,0.0,0.0,0.0,0.0,2.9411,2.959,3.0515,3.0365,3.015,2.9994,3.0202,3.0458,3.0766,3.0739,3.0772,3.0859,3.1698,3.2237,3.2468,3.3064,3.4372,3.6305,3.6151,3.6542,3.7423,3.8098,3.822,3.7908,3.7342,3.761,3.8307,3.7123,3.7683,3.9084,3.7675,3.7999,3.8922,3.6898,3.7042,3.8109,3.743,3.8141,3.9104,3.7988,3.8027,3.8043,3.5893,3.4757,3.4338,3.5003,3.5524,3.6229,3.7588,3.8358,3.8707,3.8414,3.834,3.8046,3.6945,3.6486,3.6028,3.5155,3.5073,3.4926,3.4339,3.4229,3.3752,3.2357,3.1733,3.098,2.9898,2.9329,2.8994,2.8994,2.8994,2.8994,2.8994,2.7512,2.6612,2.6612,2.5071,2.419,2.419,2.419,2.419,2.419,2.419,2.419,2.419,2.419,2.419,2.419,2.419,2.4043,2.3731,2.2923,2.2097,2.1272,2.0507,2.0589,2.1232,2.1384,2.2261,2.3511,2.4124,2.456,2.487,0.0,0.0,0.0,0.0,0.0,0.0,0.0,0.0,0.0,2.8986,0.0,0.0,0.0,0.0,3.056,3.0579,3.081,3.0712,3.0127,3.0358,3.051,3.051,3.0733,3.0863,3.0863,3.1684,3.2352,3.2891,3.3094,3.4126,3.5853,3.5573,3.5789,3.6462,3.7355,3.78,3.7831,3.724,3.7669,3.8634,3.7459,3.826,4.0016,3.8846,3.9153,3.9962,3.8137,3.8167,3.8927,3.7945,3.8532,3.9488,3.8334,3.7859,3.7313,3.5147,3.4311,3.4129,3.4504,3.477,3.5265,3.6376,3.6872,3.7092,3.7092,3.7092,3.6945,3.6413,3.6064,3.5697,3.51,3.4357,3.3807,3.3807,3.3807,3.3532,3.2724,3.2137,3.1494,3.0705,2.9898,2.9402,2.9402,2.914,2.8994,2.8994,2.7512,2.6612,2.6612,2.5071,2.419,2.419,2.419,2.419,2.419,2.419,2.419,2.419,2.419,2.419,2.419,2.419,2.419,2.4171,2.3639,2.296,2.2134,2.129,2.1369,2.1971,2.1723,2.2482,2.372,2.4037,2.4602,2.5203,0.0,0.0,0.0,0.0,0.0,0.0,0.0,0.0,3.1733,3.0827,0.0,0.0,0.0,0.0,0.0,3.0759,3.1315,3.1034,2.9335,3.0071,3.0582,3.0579,3.1391,3.1835,3.1835,3.2551,3.291,3.2949,3.3483,3.3938,3.4257,3.4802,3.5203,3.5512,3.6301,3.6745,3.6922,3.6968,3.8006,3.9447,3.772,3.863,4.0992,4.0976,4.106,4.1171,4.0991,4.0875,4.066,3.9699,3.9901,4.0489,4.0431,3.8935,3.6769,3.4782,3.3993,3.3807,0.0,0.0,0.0,3.4954,3.5624,3.6266,3.6229,3.6229,3.6248,3.6229,3.5569,3.4954,3.4954,3.4339,3.3807,3.3807,3.3807,3.3532,3.2761,3.2614,3.232,3.1513,3.0723,3.0246,3.0246,2.9512,2.903,2.903,2.753,2.6612,2.6612,2.5071,2.419,2.419,2.419,2.419,2.419,2.419,2.419,2.419,2.419,2.419,2.419,2.419,2.419,2.419,2.419,2.3749,2.2942,2.2152,2.1941,2.2157,2.297,2.3393,2.363,2.4488,2.4877,2.4979,0.0,0.0,0.0,0.0,0.0,3.3643,3.4139,3.378,3.3412,0.0,0.0,0.0,3.3111,3.3063,3.3111,3.3244,3.296,3.2577,3.2104,3.2212,3.2358,3.2441,3.2532,3.2652,3.2744,3.2841,3.3218,3.3833,3.3177,3.3635,3.5109,3.4274,3.4356,3.5207,3.5227,3.5283,3.54,3.6356,3.779,3.9303,3.8285,3.906,4.0805,4.0257,4.0533,4.1015,3.957,3.9792,4.0652,3.9651,3.9841,4.0242,3.8848,3.7433,3.5993,3.461,3.3993,3.3807,3.3807,0.0,0.0,0.0,0.0,0.0,3.4614,3.4945,3.5202,3.4614,3.4302,3.4137,3.4137,3.3954,3.3807,3.3807,3.3807,3.3715,3.3495,3.2981,3.2522,3.2302,3.1549,3.1072,3.1072,3.0338,2.9879,2.9879,2.7842,2.6612,2.6612,2.5071,2.419,2.419,2.419,2.419,2.419,2.419,2.419,2.419,2.419,2.419,2.419,2.419,2.419,2.419,2.419,2.3749,2.2978,2.2758,2.3033,2.3566,2.3216,2.3557,2.4241,2.45,2.4697,2.4855,0.0,0.0,0.0,0.0,0.0,3.5385,3.582,3.5476,3.5206,0.0,0.0,0.0,3.5094,3.5094,3.5133,3.5288,3.4911,3.4362,3.3674,3.3565,3.3443,3.3214,3.3385,3.3543,3.3685,3.3878,3.4237,3.4737,3.3961,3.4181,3.532,3.4377,3.4282,3.4926,3.4754,3.4754,3.4908,3.5703,3.7022,3.8569,3.824,3.9198,4.0789,4.0721,4.0909,4.1073,4.0207,4.0276,4.071,4.0023,4.0104,4.015,3.8079,3.6994,3.6123,3.4506,3.391,3.3807,3.3807,3.3807,3.3807,3.3807,0.0,0.0,3.3476,3.3935,3.4376,3.3899,3.3807,3.3899,3.4247,3.4027,3.3807,3.3807,3.4082,3.4192,3.3844,3.3403,3.3109,3.3109,3.2394,3.1898,3.1898,3.087,3.021,3.021,2.8282,2.6814,2.6135,2.4887,2.419,2.419,2.419,2.419,2.419,2.419,2.419,2.419,2.419,2.419,2.419,2.419,2.419,2.419,2.419,2.3749,2.2997,2.2997,2.329,2.3657,2.318,2.3566,2.4375,2.4375,2.4512,2.467,0.0,0.0,3.3716,3.3969,3.5897,3.7243,3.6671,3.6748,3.6897,0.0,3.7051,3.7423,3.831,3.8257,3.7911,3.7315,3.7007,3.6257,3.4853,3.465,3.4274,3.364,3.4159,3.4503,3.4627,3.5209,3.5501,3.5493,3.5223,3.5122,3.5138,3.4851,3.4733,3.4734,3.4714,3.4832,3.507,3.5088,3.6056,3.7634,3.7905,3.9131,4.0898,4.1673,4.1651,4.1269,4.1797,4.1478,4.0768,4.0563,4.0489,4.0134,3.7927,3.7213,3.6764,3.45,3.3815,3.3807,3.3807,3.3807,3.3807,3.3807,3.3733,0.0,3.2761,3.3091,3.3532,3.3532,3.3532,3.3788,3.4587,3.4156,3.3697,3.3788,3.4486,3.4734,3.4027,3.3935,3.3935,3.3935,3.322,3.2742,3.2742,3.1292,3.0338,3.0338,2.876,2.709,2.5495,2.4704,2.4281,2.419,2.419,2.419,2.419,2.419,2.419,2.419,2.419,2.419,2.419,2.419,2.419,2.419,2.4116,2.3621,2.2868,2.2776,2.2813,2.2997,2.2997,2.3492,2.419,2.419,2.4321,2.4461,0.0,3.1243,3.257,3.4321,3.5845,3.7209,3.8233,3.7808,3.7718,3.8666,3.8806,3.9384,4.0893,3.9854,3.9527,4.07,3.8931,3.7911,3.8277,3.6997,3.6221,3.6183,3.5632,3.5351,3.5381,3.5502,3.5538,3.5493,3.5223,3.5207,3.5417,3.4926,3.4832,3.4999,3.4812,3.4714,3.4793,3.4999,3.6099,3.7719,3.8035,3.9228,4.0828,4.1114,4.1211,4.1191,4.1218,4.1039,4.0768,4.0563,4.0489,4.015,3.8153,3.7375,3.6788,3.4731,3.3961,3.3807,3.3807,3.3807,3.3807,3.3807,3.3311,0.0,3.2651,3.2228,3.1861,3.1861,3.1861,3.21,3.2926,3.2944,3.3054,3.3697,3.4486,3.4935,3.477,3.4752,3.4752,3.4752,3.4064,3.3568,3.3568,3.21,3.1164,3.1164,2.9072,2.709,2.5495,2.5256,2.4869,2.4226,2.419,2.419,2.419,2.419,2.419,2.419,2.419,2.419,2.419,2.419,2.419,2.4153,2.3529,2.2776,2.1969,2.129,2.1768,2.2997,2.2997,2.3492,2.419,2.419,2.4228,2.4266,2.9127,3.0606,3.2231,3.3952,3.5705,3.7303,3.8474,3.8517,3.8901,4.0358,4.0931,4.1286,4.153,4.1148,4.1016,4.1283,4.0499,3.9661,3.8842,3.8513,3.8031,3.7328,3.7046,3.6706,3.6303,3.6273,3.6024,3.5558,3.5374,3.5304,3.5289,3.5035,3.4908,3.4889,3.4754,3.4774,3.4926,3.5472,3.6577,3.797,3.8136,3.8996,4.0252,4.0799,4.0776,4.0498,4.087,4.089,4.0732,4.063,4.0289,3.9673,3.8404,3.7616,3.682,3.5107,3.451,3.4321,3.3917,3.3807,3.3807,3.3807,3.3201,0.0,0.0,3.1678,3.1274,3.087,3.1109,3.1513,3.1935,3.2339,3.2742,3.3146,3.4229,3.499,3.499,3.5357,3.5495,3.5045,3.4651,3.4247,3.3844,3.2706,3.1659,3.0852,2.931,2.7695,2.608,2.5988,2.5438,2.4245,2.4575,2.4612,2.419,2.419,2.419,2.419,2.419,2.419,2.419,2.419,2.419,2.4153,2.3364,2.2538,2.1729,2.0868,2.0998,2.1786,2.2226,2.2887,2.3658,2.4173,2.4284,2.4209,2.7977,2.985,3.1759,3.3244,3.5294,3.7065,3.8018,3.8516,3.9411,4.1104,4.2302,4.2678,4.1874,4.2307,4.2348,4.1599,4.1814,4.1254,3.9498,3.9768,3.947,3.8289,3.8207,3.7886,3.7242,3.704,3.6569,3.5843,3.5623,3.5407,3.519,3.519,3.5162,3.5115,3.5115,3.5333,3.5772,3.6404,3.7379,3.8481,3.8481,3.9021,3.9889,4.033,4.0274,4.0044,4.0742,4.087,4.0699,4.0521,3.9934,3.9173,3.8327,3.7631,3.6814,3.5373,3.4972,3.4835,3.4071,3.3876,3.3839,3.3769,3.3123,3.2312,0.0,0.0,0.0,3.0226,3.0586,3.1059,3.1225,3.1746,3.2192,3.2357,3.3733,3.4752,3.4752,3.5661,3.5973,3.5082,3.4844,3.4523,3.3862,3.3073,3.1935,3.032,2.9604,2.8539,2.6924,2.6833,2.6172,2.4704,2.5126,2.509,2.4428,2.4281,2.419,2.419,2.419,2.419,2.419,2.419,2.419,2.4153,2.3199,2.2391,2.1729,2.0684,2.0264,2.0372,2.14,2.2281,2.3107,2.4131,2.4393,2.4284,2.7822,2.8911,3.0125,3.2331,3.4257,3.5904,3.7068,3.7103,3.7623,3.9354,4.132,4.281,4.3454,4.3322,4.3473,4.4108,4.2857,4.2332,4.3123,4.1165,4.0043,4.0165,3.8844,3.8097,3.8069,3.7362,3.691,3.6754,3.5968,3.555,3.5446,3.5446,3.5888,3.664,3.664,3.7133,3.793,3.8027,3.8607,3.9447,3.9516,3.9992,4.0517,3.9195,3.9587,4.0879,4.0957,4.0908,4.0671,3.9829,3.9445,3.9027,3.739,3.6993,3.6788,3.5195,3.4859,3.489,3.4297,3.4152,3.4032,3.3567,3.2841,3.2014,3.1148,0.0,2.9869,2.9775,0.0,2.9853,3.0559,0.0,0.0,3.1421,3.2889,3.3935,3.3935,3.5293,3.5973,3.5082,3.4376,3.3899,3.3807,3.3073,3.1935,3.032,3.0118,2.9365,2.775,2.7658,2.7255,2.6355,2.5713,2.5366,2.5274,2.4557,2.419,2.419,2.419,2.419,2.419,2.419,2.419,2.4116,2.2593,2.1894,2.1692,2.0079,1.9436,1.9583,2.1178,2.2281,2.3107,2.4131,2.4478,2.4495,2.6904,2.8246,2.9856,3.2282,3.3979,3.5428,3.6681,3.8161,3.9393,4.0077,4.2234,4.3591,4.325,4.3511,4.3586,4.3304,4.302,4.269,4.2249,4.2021,4.1772,4.1449,4.1189,4.0645,3.9728,3.9376,3.8723,3.778,3.7326,3.6848,3.6296,3.6234,3.646,3.6909,3.6909,3.7413,3.8332,3.8838,3.9292,3.9663,3.9681,3.9887,4.0101,3.9493,3.9406,3.9602,3.9602,3.9505,3.9295,3.8885,3.8338,3.7723,3.7297,3.6916,3.6463,3.5641,3.5462,3.5376,3.4689,3.4508,3.4323,3.3578,3.2788,3.1977,3.111,3.0281,2.9696,2.9696,0.0,0.0,0.0,0.0,0.0,0.0,3.1659,3.2412,3.2412,3.3421,3.4376,3.4917,3.4697,3.4321,3.3844,3.3495,3.2632,3.1017,3.0889,2.9989,2.7897,2.8246,2.7915,2.6649,2.6264,2.586,2.5403,2.4593,2.419,2.419,2.419,2.419,2.419,2.419,2.419,2.4135,2.2997,2.2226,2.1711,2.0482,2.0005,2.0079,2.0776,2.1565,2.2482,2.3962,2.4495,2.4528,2.6566,2.8088,2.9945,3.2217,3.3883,3.5413,3.6914,3.9062,4.0656,4.1079,4.2874,4.384,4.3215,4.3559,4.355,4.2705,4.3149,4.3085,4.2125,4.2604,4.2761,4.2382,4.2694,4.2214,4.0824,4.084,4.0176,3.8756,3.8393,3.789,3.7258,3.6909,3.7061,3.7628,3.7402,3.7987,3.9136,3.9775,4.0043,4.0063,4.0093,3.9797,3.9341,3.9445,3.8964,3.8262,3.8475,3.844,3.8264,3.7988,3.7373,3.6728,3.69,3.6665,3.6215,3.5798,3.5773,3.5694,3.4717,3.4623,3.451,3.324,3.284,3.2402,3.1075,3.0506,3.0181,2.9937,2.9732,0.0,0.0,0.0,2.9978,2.9978,0.0,3.1072,3.1072,3.1953,3.3128,3.4523,3.4862,3.466,3.388,3.3807,3.3128,3.1513,3.1384,3.043,2.8246,2.8686,2.8443,2.7291,2.7053,2.6539,2.5731,2.4924,2.441,2.419,2.419,2.419,2.419,2.419,2.408,2.3823,2.3015,2.2208,2.1382,2.0519,2.0301,2.0503,2.0503,2.118,2.2298,2.3665,2.4358,2.4607,2.743,2.8607,3.0049,3.1894,3.3864,3.5866,3.7933,3.9001,4.0137,4.1757,4.2473,4.3148,4.3886,4.3675,4.3513,4.3442,4.3479,4.3772,4.4425,4.2944,4.2344,4.3052,4.2414,4.1653,4.0813,4.0925,4.0562,3.9657,3.8741,3.8255,3.8149,3.7295,3.7832,3.9473,3.8707,3.9379,4.1113,4.1133,4.1087,4.0961,4.109,4.0052,3.8443,3.8459,3.7995,3.7441,3.8146,3.8366,3.8159,3.724,3.6837,3.6584,3.5801,3.5902,3.6137,3.5354,3.5477,3.5603,3.42,3.444,3.4547,3.2307,3.2955,3.3474,3.0982,3.1039,3.1398,3.054,3.0169,2.9984,2.9984,2.968,2.9429,2.9429,2.988,0.0,0.0,3.1604,3.2926,3.3733,3.4541,3.466,3.388,3.3807,3.3128,3.1513,3.1384,3.0687,2.903,2.8975,2.8975,2.892,2.8172,2.7383,2.6576,2.575,2.498,2.419,2.419,2.419,2.419,2.419,2.3786,2.2997,2.2189,2.1345,2.0466,1.9675,1.9803,2.0503,2.0503,2.1511,2.2978,2.3256,2.3948,2.4818,2.8771,3.0351,3.1835,3.2851,3.4515,3.653,3.9003,3.9581,4.0555,4.2693,4.3601,4.4162,4.442,4.4373,4.4085,4.3534,4.3497,4.3712,4.4175,4.3901,4.3947,4.4401,4.4465,4.4164,4.34,4.2947,4.2329,4.1481,4.0466,3.9677,3.9108,3.8102,3.8039,3.8726,3.8455,3.9087,4.0371,4.085,4.1049,4.0898,3.9745,3.8906,3.8221,3.7052,3.6465,3.6211,3.5919,3.5755,3.5523,3.4672,3.4306,3.4141,3.3872,3.3895,3.3993,3.3719,3.3776,3.3941,3.4031,3.4275,3.4175,3.284,3.291,3.2814,3.0852,3.0641,3.0756,3.0456,3.0196,2.9969,2.9829,2.9589,2.9351,2.9178,2.9306,2.942,0.0,3.1256,3.2706,3.2981,3.3733,3.41,3.3825,3.2834,3.199,3.1439,3.0411,2.9586,2.9012,2.8994,2.8994,2.8994,2.8227,2.7402,2.6612,2.5786,2.5017,2.419,2.419,2.419,2.419,2.419,2.3768,2.2978,2.2721,2.1804,2.0484,2.0225,2.0246,2.0448,1.9913,2.107,2.3015,2.3087,2.3819,2.4847,3.0477,3.1687,3.2707,3.3061,3.5204,3.7631,3.9955,4.0941,4.205,4.3896,4.4712,4.5074,4.5074,4.4832,4.4461,4.3955,4.3899,4.4035,4.4373,4.4329,4.4463,4.4784,4.4906,4.4588,4.3789,4.3675,4.2941,4.1504,4.1067,4.0244,3.9116,3.8086,3.7831,3.8244,3.798,3.858,3.9825,4.0301,4.0671,4.0764,3.8984,3.8255,3.808,3.6308,3.5488,3.5198,3.4625,3.4193,3.379,3.3137,3.2846,3.2793,3.2793,3.2793,3.2812,3.2878,3.2891,3.2968,3.3237,3.3737,3.391,3.2756,3.2852,3.2779,3.1111,3.0655,3.0538,3.0199,2.9789,2.9466,2.9474,2.8952,2.8472,2.8338,2.8104,2.8135,0.0,3.0212,3.1519,3.1954,3.3323,3.4009,3.344,3.2687,3.1898,3.1035,3.054,2.9892,2.9049,2.925,2.931,2.8994,2.8503,2.7695,2.6612,2.608,2.5273,2.419,2.419,2.419,2.419,2.419,2.3768,2.2978,2.2703,2.1785,2.0484,2.0189,2.0228,2.0448,1.9932,2.107,2.2978,2.2685,2.3512,2.4847,3.246,3.277,3.2835,3.2934,3.5941,3.9026,4.0888,4.278,4.43,4.5195,4.5594,4.5814,4.5814,4.5108,4.4636,4.458,4.458,4.4713,4.5017,4.4255,4.3942,4.422,4.3699,4.3019,4.2183,4.3124,4.2441,4.0019,4.0564,3.9979,3.8335,3.7347,3.7353,3.8091,3.7339,3.7909,3.9473,3.9563,4.0062,4.0641,3.8878,3.8186,3.7981,3.6132,3.5007,3.4406,3.4274,3.3713,3.2987,3.2598,3.2485,3.2466,3.2428,3.2447,3.2497,3.2609,3.2718,3.2602,3.1821,3.2801,3.3667,3.2058,3.2666,3.3233,3.1596,3.1075,3.0693,2.9883,2.907,2.8606,2.8968,2.7848,2.693,2.7061,2.6585,2.6608,2.7824,2.8674,2.959,3.0738,3.3213,3.4229,3.2735,3.3183,3.2632,3.043,3.1641,3.1494,2.9177,2.9861,2.9934,2.9085,2.9049,2.8282,2.6631,2.6612,2.5786,2.419,2.419,2.419,2.419,2.419,2.3768,2.296,2.2189,2.1363,2.0503,1.973,1.9877,2.0558,2.0558,2.1548,2.2923,2.2206,2.3154,2.4847,3.3982,3.4978,3.6156,3.7491,3.8053,3.9149,4.162,4.2119,4.2965,4.4948,4.5556,4.5798,4.5798,4.5609,4.5259,4.4636,4.458,4.4467,4.4138,4.3912,4.3695,4.3496,4.3442,4.3342,4.3231,4.2902,4.238,4.1677,4.0518,3.9649,3.9072,3.7494,3.6909,3.7218,3.7017,3.7206,3.7753,3.8937,3.989,4.0422,3.8722,3.8053,3.7789,3.5438,3.4031,3.3299,3.3265,3.274,3.195,3.12,3.0833,3.0596,3.0139,3.0316,3.0462,2.9478,3.0063,3.095,3.0552,3.1212,3.1923,3.1331,3.1438,3.1442,3.0347,3.0069,2.9978,2.9734,2.907,2.8402,2.8098,2.7257,2.6664,2.6859,2.7193,2.7548,2.7872,2.9095,3.0047,3.0332,3.1523,3.2397,3.258,3.1139,3.0485,3.1035,3.0925,3.0558,2.9934,3.1237,3.1347,2.9953,2.9898,2.8833,2.6631,2.6612,2.5786,2.419,2.419,2.419,2.419,2.419,2.3768,2.2997,2.2795,2.2226,2.1437,2.1252,2.1272,2.1473,2.1473,2.2097,2.307,2.3795,2.4358,2.4847,3.5464,3.6936,3.8538,3.9805,3.9832,4.031,4.223,4.304,4.3989,4.548,4.6038,4.6287,4.6287,4.5944,4.5525,4.509,4.469,4.4355,4.4039,4.3712,4.3442,4.3215,4.3013,4.2785,4.247,4.2011,4.1392,4.0606,3.9519,3.8743,3.8283,3.6839,3.6215,3.6284,3.6296,3.6709,3.754,3.9192,4.0111,4.0335,3.8661,3.7777,0.0,3.5026,3.343,3.2372,3.2372,3.1833,3.0994,3.0017,2.9601,2.936,2.8645,2.8912,2.9336,2.8633,2.9286,3.0196,3.0028,3.0582,3.1132,3.1031,3.0904,3.0697,3.0208,2.9738,2.9338,2.9159,2.8251,2.7368,2.7091,2.5805,2.4885,2.5187,2.5732,2.6312,2.6809,2.7917,2.8728,2.8917,2.9632,3.0464,3.1462,3.0079,2.9564,3.0721,3.062,3.0341,2.997,3.1309,3.1494,3.0246,3.021,2.9219,2.7145,2.7126,2.6135,2.419,2.419,2.419,2.419,2.419,2.3951,2.3511,2.3162,2.274,2.2299,2.195,2.1803,2.1839,2.2189,2.2813,2.3603,2.4393,2.4731,2.4847,3.7131,3.8791,4.0228,4.0884,4.1307,4.1886,4.2888,4.4438,4.5578,4.5864,4.6301,4.6528,4.6413,4.572,4.5259,4.5259,4.46,4.4061,4.383,4.3336,4.2916,4.2579,4.2188,4.1558,4.0703,4.0682,3.9989,3.856,3.8202,3.7695,3.703,3.5978,3.5493,3.5493,3.5493,3.643,3.8104,3.9546,4.0296,4.0335,3.8661,3.7488,3.6507,3.4699,3.3064,3.1698,3.1564,3.1044,3.0251,2.918,2.8807,2.864,2.7681,2.7954,2.8611,2.8583,2.9104,2.9656,2.9483,3.0021,3.062,3.0584,3.0487,3.0379,3.0318,2.9576,2.8779,2.8294,2.6993,2.5933,2.5831,2.4022,2.2713,2.324,2.3732,2.4431,2.5512,2.6438,2.708,2.7333,2.8006,0.0,2.9927,2.9597,2.9568,3.0194,3.0807,3.0712,2.9809,3.1063,3.1352,3.0393,3.0356,2.9586,2.797,2.775,2.6539,2.4355,2.4245,2.419,2.419,2.419,2.419,2.4153,2.3474,2.3162,2.3107,2.2391,2.2115,2.2171,2.2887,2.3584,2.4228,2.4428,2.4607,2.4818,3.9761,4.0793,4.164,4.2225,4.24,4.2886,4.4093,4.3969,4.3756,4.3825,4.4381,4.4509,4.3835,4.3624,4.3547,4.3547,4.3438,4.2808,4.1422,4.1925,4.1385,3.933,3.9828,3.98,3.9041,3.9023,3.9139,3.9395,3.7941,3.7415,3.7762,3.6232,3.5493,3.5493,3.5493,3.643,3.8027,3.8315,3.9238,4.0335,3.8661,3.7488,3.6449,3.4045,3.2526,3.1621,3.0891,3.0533,3.0263,2.9337,2.8932,2.8572,2.7186,2.7197,2.7464,2.6104,2.681,2.7785,2.6733,2.7511,2.8576,2.841,2.882,2.9205,2.887,2.8637,2.824,2.7273,2.6047,2.4843,2.3973,2.2915,2.259,2.3748,2.4421,2.5076,2.5822,2.7477,2.8384,2.7793,2.8404,2.9002,2.9193,2.965,3.026,3.102,3.1803,3.176,3.0656,3.2683,3.3037,3.1256,3.1182,3.0411,2.8815,2.7475,2.6264,2.5182,2.452,2.419,2.419,2.419,2.419,2.419,2.4043,2.3988,2.3988,2.3841,2.3768,2.3786,2.3933,2.408,2.4228,2.4428,2.4528,2.4575,4.1085,4.1813,4.2342,4.2655,4.2939,4.3243,4.3604,4.345,4.3421,4.3778,4.4096,4.402,4.3245,4.3144,4.3173,4.3247,4.2466,4.1606,4.081,4.04,3.9647,3.8452,3.8868,3.8745,3.7949,3.7886,3.8221,3.8937,3.7148,3.6869,3.7969,3.6276,3.5432,3.5308,3.5729,3.6688,3.8027,3.8469,3.9142,3.9758,3.8507,3.6969,3.5218,3.3545,3.2033,3.0751,3.033,2.9855,2.9317,2.8691,2.8403,2.8025,2.6301,2.6281,2.6689,2.5791,2.6332,2.7097,2.6485,2.6804,2.7294,2.7206,2.7328,2.7554,2.7723,2.7679,2.7308,2.6336,2.5328,2.4049,2.2112,2.1727,2.202,2.3059,2.3975,2.4909,2.5862,2.7038,2.7655,2.7283,2.7571,2.8112,2.8907,2.9034,2.935,3.0058,3.0661,3.0659,2.9922,3.1966,3.2617,3.1439,3.1384,3.0834,2.9641,2.8026,2.6612,2.5403,2.4575,2.419,2.419,2.419,2.419,2.419,2.419,2.419,2.419,2.419,2.419,2.419,2.419,2.419,2.4209,2.4303,2.441,2.4528,4.1805,4.2348,4.2686,4.2505,4.2858,4.3026,4.2548,4.2855,4.3259,4.3616,4.3756,4.352,4.275,4.2536,4.2488,4.2585,4.1171,4.0213,4.003,3.9024,3.8274,3.7904,3.8161,3.791,3.703,3.678,3.7001,3.7739,3.63,3.6207,3.7352,3.6377,3.5694,3.5303,3.6102,3.7007,3.7967,3.8639,3.9073,3.92,3.8142,3.6411,3.4353,3.3256,3.178,3.0208,2.9817,2.9178,2.8398,2.7714,2.7493,2.7213,2.5494,2.5425,2.595,2.5748,2.601,2.6394,2.634,2.6354,2.6316,2.6252,2.6172,2.6219,2.6641,2.6588,2.6135,2.5125,2.4271,2.3094,2.0973,2.1034,2.1686,2.2654,2.3613,2.4604,2.5826,2.6535,2.6877,2.6708,2.6759,2.7195,2.8275,2.8086,2.8069,2.8373,2.9104,2.9367,2.9066,3.0993,3.197,3.1678,3.1659,3.1347,3.0723,2.8613,2.6906,2.5621,2.4667,2.419,2.419,2.419,2.419,2.419,2.419,2.419,2.419,2.419,2.419,2.419,2.419,2.419,2.419,2.419,2.4303,2.4461,4.23,4.2539,4.2581,4.182,4.1968,4.1964,4.1497,4.2096,4.2347,4.1664,4.1944,4.1899,4.1021,4.0345,3.9941,3.9949,3.9129,3.8287,3.7507,3.8155,3.7871,3.6289,3.6992,3.6989,3.6046,3.5246,3.5173,3.5863,3.5669,3.5521,3.5405,3.6705,3.6787,3.5866,3.6675,3.7239,3.7637,3.7658,3.8314,3.9142,3.7488,3.6238,3.5172,3.334,3.2008,3.0952,2.9241,2.8574,2.8256,2.67,2.6185,2.6034,2.5116,2.487,2.4903,2.4687,2.4696,2.4684,2.4506,2.4962,2.5452,2.5139,2.5579,2.5955,2.5409,2.5279,2.4827,2.3279,2.2228,2.1569,2.159,2.1624,2.2218,2.3906,2.4207,2.4604,2.5826,2.6987,2.7469,2.6776,2.6897,2.6879,2.6333,2.6942,2.7121,2.6495,2.819,2.9219,2.9179,3.1329,3.2547,3.2496,3.2504,3.2467,3.2394,2.8613,2.6649,2.6465,2.4924,2.419,2.419,2.419,2.419,2.419,2.419,2.419,2.419,2.419,2.419,2.419,2.419,2.419,2.419,2.419,2.4209,2.4228,4.07,4.1156,4.1338,4.0495,4.086,4.0925,3.9906,4.0081,4.0111,3.9465,4.0436,4.0729,3.9459,3.9059,3.8902,3.8993,3.7712,3.6758,3.6406,3.6233,3.5838,3.5131,3.5892,3.6153,3.5791,3.4959,3.4886,3.5611,3.5396,3.5235,3.5124,3.6084,3.6061,3.5183,3.5312,3.5816,3.6596,3.6557,3.69,3.7417,3.6573,3.5217,3.3666,3.2718,3.1446,3.0039,2.9041,2.8262,2.7595,2.6717,2.6227,2.5846,2.4898,2.4623,2.4575,2.4375,2.4321,2.4303,2.4228,2.4293,2.4348,2.4223,2.4129,2.4126,2.4336,2.4236,2.3816,2.2889,2.1965,2.1249,2.1113,2.1754,2.2632,2.3628,2.4349,2.5088,2.5892,2.6669,2.6877,2.6133,2.5862,2.5796,2.598,2.6039,2.635,2.6957,2.8757,2.957,2.888,3.0712,3.2166,3.2918,3.177,3.1623,3.2596,2.909,2.709,2.6594,2.5456,2.4667,2.419,2.419,2.419,2.419,2.419,2.419,2.419,2.419,2.419,2.419,2.419,2.419,2.419,2.419,2.419,2.419,3.9269,3.9708,3.9932,3.9091,3.9539,3.9509,3.8041,3.833,3.8324,3.722,3.8569,3.933,3.8482,3.8185,3.8083,3.8181,3.6521,3.5483,3.5483,3.4622,3.4121,3.4121,3.4659,3.5074,3.5278,3.4501,3.4318,3.4812,3.4757,3.4435,3.3897,3.4837,3.4982,3.4439,3.4556,3.5045,3.5757,3.5631,3.5805,3.614,3.572,3.4604,3.312,3.2259,3.1117,2.9783,2.8602,2.7712,2.6956,2.6224,2.5764,2.5374,2.4671,2.4429,2.4392,2.413,2.3996,2.3917,2.4016,2.3816,2.3522,2.3414,2.3045,2.2825,2.3323,2.3255,2.2937,2.2462,2.1788,2.1327,2.1406,2.2245,2.3172,2.4036,2.49,2.5533,2.5822,2.6168,2.6251,2.5964,2.5325,2.5199,2.6024,2.5819,2.596,2.6807,2.8775,2.9591,2.8703,3.0786,3.2375,3.3166,3.1717,3.1458,3.2596,2.9402,2.7402,2.6594,2.5768,2.498,2.419,2.419,2.419,2.419,2.419,2.419,2.419,2.419,2.419,2.419,2.419,2.419,2.419,2.419,2.419,2.419,3.847,3.8544,3.8499,3.784,3.7958,3.7588,3.5978,3.7199,3.7423,3.4952,3.6111,3.7457,3.8315,3.7694,3.7214,3.7214,3.5563,3.4529,3.4529,3.3692,3.3212,3.3212,3.3231,3.3575,3.4304,3.3538,3.3063,3.2929,3.3532,3.283,3.0997,3.2932,3.3807,3.3862,3.5042,3.5556,3.5453,3.5024,3.5237,3.5849,3.5034,3.4694,3.4427,3.2164,3.1299,3.087,2.7817,2.671,2.6462,2.489,2.4325,2.4307,2.4307,2.429,2.4222,2.3822,2.3459,2.3282,2.3628,2.3459,2.3117,2.2797,2.2721,2.2634,2.2377,2.2327,2.218,2.1705,2.1469,2.1646,2.2853,2.3258,2.3934,2.5684,2.5997,2.5907,2.5645,2.5625,2.5879,2.659,2.5746,2.5431,2.6214,2.6334,2.6099,2.5478,2.7775,2.9099,2.8796,3.191,3.3529,3.3202,3.2794,3.2596,3.2614,2.9402,2.7402,2.6594,2.5768,2.498,2.419,2.419,2.419,2.419,2.419,2.419,2.419,2.419,2.419,2.419,2.419,2.419,2.419,2.419,2.419,2.419,3.4827,3.5277,3.5734,3.5544,3.6036,3.6118,3.5048,3.5391,3.5271,3.3887,3.4705,3.5504,3.5777,3.6113,3.6068,3.5427,3.4256,3.3289,3.2707,3.2357,3.2183,3.2183,3.2705,3.3098,3.3342,3.2378,3.1845,3.1814,3.2221,3.2318,3.2056,3.2145,3.23,3.2581,3.2972,3.3256,3.3454,3.3319,3.3194,3.3062,3.263,3.1944,3.1042,3.0143,2.9457,2.8819,2.7572,2.6789,2.6255,2.5429,2.4842,2.4356,2.3841,2.3615,2.3507,2.3394,2.3282,2.3212,2.3346,2.3117,2.2848,2.2721,2.2563,2.2398,2.2338,2.231,2.218,2.1688,2.2297,2.2971,2.309,2.3952,2.475,2.513,2.5168,2.5094,2.4869,2.4831,2.4932,2.5152,2.501,2.5,2.5265,2.5886,2.6506,2.7114,2.9696,3.0723,2.9554,3.1133,3.266,3.3978,3.2046,3.1494,3.2596,2.9953,2.8209,2.7402,2.6594,2.5511,2.419,2.419,2.419,2.419,2.419,2.419,2.419,2.419,2.419,2.419,2.419,2.419,2.419,2.419,2.419,2.419,3.3131,3.3557,3.3978,3.4041,3.4748,3.4909,3.3808,3.4209,3.4207,3.2964,3.3568,3.4211,3.445,3.4703,3.473,3.4455,3.3286,3.2338,3.1796,3.1411,3.1218,3.1218,3.1597,3.1955,3.23,3.1558,3.1181,3.1181,3.0977,3.1006,3.1231,3.1035,3.1005,3.1127,3.1242,3.1457,3.165,3.1487,3.1328,3.1207,3.1057,3.0529,2.9717,2.9101,2.8569,2.8022,2.7345,2.6602,2.587,2.5365,2.4695,2.3951,2.3224,2.2922,2.2883,2.2972,2.294,2.2883,2.2972,2.2789,2.2563,2.2563,2.2426,2.231,2.231,2.231,2.2209,2.1928,2.2429,2.2964,2.3178,2.3809,2.4365,2.4647,2.4697,2.4562,2.414,2.41,2.4272,2.4831,2.483,2.5055,2.5776,2.6348,2.6961,2.7595,3.0016,3.1095,3.0247,3.1903,3.3212,3.3924,3.1808,3.1127,3.2137,3.0063,2.8448,2.7346,2.6227,2.5162,2.419,2.419,2.419,2.419,2.419,2.419,2.419,2.419,2.419,2.419,2.419,2.419,2.419,2.419,2.419,2.419,3.2992,3.3038,3.3081,3.32,3.3893,3.3927,3.2422,3.3515,3.3885,3.2124,3.2664,3.3439,3.4051,3.3442,3.3306,3.4052,3.264,3.1679,3.1621,3.084,3.0367,3.0367,3.0122,3.0346,3.1161,3.1006,3.0883,3.0865,2.9755,2.9135,2.9012,2.9714,2.9874,2.9584,2.9941,3.0163,3.0185,2.9754,2.9784,3.0128,3.0128,3.0092,2.9938,2.8781,2.8377,2.8241,2.7096,2.6184,2.5423,2.4712,2.3998,2.319,2.253,2.231,2.2349,2.2599,2.25,2.2332,2.2599,2.2473,2.231,2.231,2.231,2.231,2.231,2.231,2.231,2.231,2.2007,2.2076,2.3199,2.3076,2.3169,2.4259,2.4438,2.4154,2.3427,2.3359,2.3934,2.5355,2.5096,2.5559,2.7384,2.7537,2.7453,2.7296,2.9127,3.0463,3.1002,3.3792,3.4731,3.3298,3.2054,3.1384,3.1384,2.9751,2.8154,2.6594,2.5034,2.4281,2.4281,2.4226,2.419,2.419,2.419,2.419,2.419,2.419,2.419,2.419,2.419,2.419,2.419,2.419,2.419,2.419,3.1297,3.1365,3.1653,3.2341,3.2635,3.2617,3.2118,3.2387,3.2238,3.1072,3.165,3.2225,3.2367,3.2171,3.2104,3.2297,3.1934,3.1429,3.0756,3.0324,3.0089,3.0089,2.9877,2.9857,3.0082,2.9889,2.9673,2.9481,2.7972,2.7871,2.8975,2.8576,2.8651,2.9147,2.9254,2.9278,2.9281,2.9193,2.8851,2.8391,2.8391,2.8031,2.75,2.723,2.7146,2.7096,2.6792,2.5845,2.4712,2.4574,2.363,2.2547,2.2361,2.231,2.231,2.2388,2.2349,2.2293,2.2388,2.2349,2.231,2.231,2.231,2.231,2.231,2.231,2.231,2.231,2.2647,2.3055,2.3359,2.3772,2.3978,2.3714,2.3646,2.3393,2.2665,2.3054,2.3731,2.4644,2.5391,2.6247,2.7284,2.7635,2.8135,2.8971,3.0076,3.1165,3.2153,3.347,3.4036,3.3652,3.2203,3.1384,3.1384,2.9182,2.7585,2.6594,2.5585,2.5127,2.5109,2.4483,2.419,2.419,2.419,2.419,2.419,2.419,2.419,2.419,2.419,2.419,2.419,2.419,2.419,2.419,3.0771,3.0857,3.1055,3.1523,3.1934,3.201,3.1482,3.173,3.1648,3.0685,3.092,3.1352,3.1708,3.1361,3.1219,3.15,3.1264,3.0854,3.026,3.0075,2.9969,2.9861,2.9661,2.9551,2.9551,2.8981,2.8418,2.7893,2.7034,2.7053,2.7897,2.7457,2.7296,2.7391,2.7391,2.7409,2.7435,2.7435,2.7281,2.7004,2.7196,2.6909,2.6401,2.6624,2.659,2.6367,2.6367,2.5414,2.4143,2.4143,2.3298,2.231,2.231,2.231,2.231,2.231,2.231,2.231,2.231,2.231,2.231,2.231,2.231,2.231,2.231,2.231,2.231,2.231,2.2632,2.2902,2.2902,2.3224,2.3359,2.297,2.3173,2.3257,2.2868,2.3427,2.4245,2.5159,2.5816,2.6603,2.7706,2.8322,2.9053,2.9978,3.0846,3.163,3.2381,3.2728,3.3006,3.3238,3.2045,3.1219,3.0852,2.8815,2.7585,2.7126,2.5952,2.5403,2.5384,2.4557,2.419,2.419,2.419,2.419,2.419,2.419,2.419,2.419,2.419,2.419,2.419,2.419,2.419,2.419,3.0879,3.0898,3.0898,3.0878,3.1484,3.1675,3.0801,3.1301,3.1456,3.0604,3.0472,3.0733,3.1366,3.0777,3.0471,3.0856,3.0412,3.0023,2.9794,2.9749,2.958,2.9284,2.9081,2.8979,2.8979,2.7972,2.7163,2.6612,2.6374,2.6374,2.6612,2.6423,2.6059,2.5508,2.5579,2.5553,2.5456,2.5676,2.5782,2.5848,2.6402,2.6297,2.5924,2.6315,2.621,2.5888,2.5888,2.49,2.362,2.362,2.2988,2.218,2.218,2.2237,2.231,2.231,2.231,2.231,2.231,2.231,2.231,2.231,2.231,2.231,2.231,2.231,2.231,2.231,2.231,2.231,2.231,2.231,2.2344,2.2462,2.3088,2.3562,2.3562,2.4289,2.5186,2.6095,2.6341,2.6986,2.833,2.9127,2.9801,3.0381,3.1075,3.1607,3.1939,3.1626,3.1663,3.2102,3.1538,3.0723,2.9677,2.8172,2.7438,2.742,2.5935,2.5293,2.5384,2.4557,2.419,2.419,2.419,2.419,2.419,2.419,2.419,2.419,2.419,2.419,2.419,2.419,2.419,2.419,3.0898,3.0898,3.0859,3.0747,3.0841,3.0833,3.0559,3.0653,3.0662,3.0447,3.0425,3.0386,3.0261,3.0138,2.9755,2.9001,2.8847,2.8771,2.8739,2.8516,2.8072,2.7363,2.7152,2.7025,2.7025,2.6213,2.6025,2.6612,2.5236,2.5273,2.6594,2.5627,2.529,2.5517,2.5904,2.5562,2.4729,2.5998,2.5933,2.5036,2.582,2.5799,2.5335,2.5411,2.5373,2.5335,2.5335,2.4397,2.3208,2.3208,2.2525,2.1718,2.1718,2.1974,2.231,2.231,2.231,2.231,2.231,2.231,2.231,2.231,2.231,2.231,2.231,2.231,2.231,2.231,2.231,2.231,2.231,2.231,2.2513,2.3122,2.3833,2.4337,2.4337,2.549,2.6313,2.6217,2.7058,2.7942,2.8675,2.9156,2.9458,2.958,2.987,3.0265,3.0816,3.016,2.98,2.9888,3.024,2.9347,2.7181,2.6227,2.577,2.577,2.4814,2.474,2.5384,2.4557,2.419,2.419,2.419,2.419,2.419,2.419,2.419,2.419,2.419,2.419,2.419,2.419,2.419,2.419,3.0746,3.0746,3.0719,3.0657,3.0652,3.0603,3.0505,3.0498,3.0472,3.0402,2.9896,2.9493,2.9374,2.8874,2.8301,2.7693,2.7638,2.7397,2.686,2.7214,2.7251,2.6762,2.6638,2.641,2.5952,2.5605,2.5364,2.5309,2.4557,2.4478,2.5029,2.4498,2.4397,2.4637,2.4406,2.4385,2.4557,2.522,2.5229,2.4872,2.5946,2.6068,2.5615,2.5615,2.5449,2.5182,2.4855,2.3871,2.2671,2.2671,2.2057,2.1306,2.1521,2.1764,2.1957,2.2225,2.231,2.231,2.231,2.231,2.231,2.231,2.231,2.231,2.231,2.231,2.231,2.231,2.231,2.231,2.231,2.2632,2.3004,2.3342,2.4678,2.5676,2.5676,2.7162,2.8142,2.7735,2.8487,2.9046,2.9126,2.977,3.0265,3.041,3.0513,3.0753,3.1165,2.9855,2.9089,2.9089,2.8547,2.7732,2.6612,2.6227,2.6043,2.6043,2.5217,2.5054,2.5384,2.4557,2.419,2.419,2.419,2.419,2.419,2.419,2.419,2.419,2.419,2.419,2.419,2.419,2.419,2.419,3.0606,3.0606,3.0522,3.0309,3.0439,3.0489,3.0229,3.0134,3.0094,3.0028,2.9104,2.8427,2.8365,2.7664,2.7017,2.66,2.6563,2.6134,2.5182,2.5838,2.6208,2.6043,2.6043,2.575,2.5146,2.5127,2.4814,2.419,2.419,2.4016,2.3692,2.361,2.359,2.3586,2.3101,2.3288,2.4002,2.4371,2.4526,2.4643,2.5798,2.6025,2.5615,2.5615,2.5297,2.4776,2.4348,2.3339,2.2141,2.2141,2.1584,2.0894,2.1197,2.1352,2.1568,2.2003,2.2248,2.2388,2.2338,2.231,2.231,2.231,2.231,2.231,2.231,2.231,2.231,2.231,2.231,2.231,2.231,2.2902,2.346,2.3613,2.5507,2.6928,2.6842,2.8405,2.942,2.9009,2.9414,2.9677,2.9551,3.0244,3.0776,3.0971,3.1073,3.104,3.095,2.9355,2.8217,2.7763,2.6861,2.6381,2.6319,2.6135,2.6043,2.6043,2.5419,2.5127,2.5109,2.4483,2.419,2.419,2.419,2.419,2.419,2.419,2.419,2.419,2.419,2.419,2.419,2.419,2.419,2.419,3.0606,3.0606,3.0328,2.9447,2.9973,3.0201,2.9338,2.9058,2.8918,2.8924,2.8046,2.7318,2.7063,2.6953,2.6563,2.5591,2.5496,2.5165,2.4337,2.4356,2.4393,2.4373,2.4373,2.4355,2.4281,2.4281,2.4263,2.419,2.419,2.4016,2.3692,2.3392,2.308,2.2816,2.3187,2.3016,2.2564,2.39,2.4225,2.3868,2.4626,2.4761,2.4511,2.4511,2.4184,2.3724,2.3681,2.2813,2.1719,2.1719,2.1127,2.0348,2.0382,2.0682,2.1118,2.1521,2.2147,2.2625,2.236,2.231,2.231,2.231,2.231,2.231,2.231,2.231,2.231,2.231,2.231,2.231,2.231,2.2902,2.3613,2.432,2.6285,2.7624,2.7296,2.857,2.9334,2.8883,2.8865,2.918,2.9889,3.0026,3.006,3.0094,3.0337,2.9953,2.8793,2.7888,2.6526,2.4598,2.5338,2.569,2.5495,2.474,2.4373,2.4373,2.4318,2.4281,2.4281,2.4226,2.419,2.419,2.419,2.419,2.419,2.419,2.419,2.419,2.419,2.419,2.419,2.419,2.419,2.419,3.0492,3.0492,3.0182,2.9293,2.9729,2.9902,2.9034,2.8746,2.8609,2.8609,2.7264,2.6272,2.6169,2.5597,2.5059,2.4686,2.4649,2.452,2.4226,2.419,2.419,2.419,2.419,2.419,2.419,2.419,2.419,2.419,2.3996,2.3714,2.3392,2.3045,2.2998,2.3119,2.2841,2.2818,2.3021,2.3579,2.3691,2.3589,2.4325,2.4397,2.4048,2.3719,2.3288,2.2836,2.252,2.2113,2.1635,2.1231,2.0835,2.0506,2.035,2.0416,2.0715,2.1399,2.196,2.2361,2.252,2.2704,2.2857,2.2857,2.2704,2.2537,2.2537,2.2426,2.231,2.231,2.231,2.231,2.231,2.3274,2.4154,2.4472,2.6565,2.8131,2.7984,2.9437,3.0243,2.9564,3.001,3.0205,2.9853,3.008,2.9972,2.9308,2.9468,2.9116,2.7999,2.7028,2.585,2.443,2.476,2.4856,2.4668,2.4355,2.419,2.419,2.419,2.419,2.419,2.419,2.419,2.419,2.419,2.419,2.419,2.419,2.419,2.419,2.419,2.419,2.419,2.419,2.419,2.419,3.0398,3.0323,2.9998,2.9147,2.9489,2.9623,2.8806,2.8291,2.8005,2.8005,2.6391,2.5225,2.5225,2.4617,2.419,2.419,2.419,2.419,2.419,2.4094,2.4036,2.4036,2.3937,2.3896,2.3896,2.3896,2.3896,2.3896,2.3671,2.3369,2.3045,2.2822,2.2838,2.3038,2.253,2.2581,2.3054,2.2904,2.2979,2.3214,2.3577,2.3703,2.3585,2.3067,2.2671,2.23,2.1862,2.156,2.1321,2.0872,2.0572,2.0325,1.998,1.9954,2.0265,2.1165,2.1811,2.2337,2.2754,2.3165,2.3459,2.3236,2.3021,2.2873,2.2873,2.2625,2.2426,2.2426,2.2377,2.231,2.231,2.3308,2.4198,2.43,2.6207,2.7695,2.7713,2.9224,3.0142,2.9622,3.0354,3.0491,2.951,2.9713,2.9468,2.8413,2.8466,2.8083,2.7068,2.6007,2.5122,2.4429,2.441,2.4339,2.419,2.419,2.419,2.419,2.419,2.419,2.419,2.419,2.419,2.419,2.419,2.419,2.419,2.419,2.419,2.419,2.419,2.419,2.419,2.419,2.419,2.419,3.0398,3.0182,2.9732,2.8946,2.9298,2.9394,2.8546,2.7546,2.6898,2.6898,2.5319,2.4208,2.419,2.419,2.419,2.419,2.419,2.419,2.4208,2.3896,2.3692,2.3692,2.3369,2.3189,2.3189,2.3189,2.3189,2.3189,2.3189,2.3021,2.2695,2.2695,2.2563,2.231,2.231,2.231,2.2282,2.1794,2.2024,2.2666,2.2264,2.2515,2.3032,2.2567,2.2359,2.224,2.1807,2.1261,2.0707,2.0707,2.0258,1.9603,1.9095,1.9236,1.9798,2.0715,2.1761,2.2693,2.31,2.3692,2.4036,2.3369,2.3212,2.3189,2.3189,2.2947,2.2695,2.2695,2.25,2.231,2.231,2.2902,2.3539,2.3843,2.5132,2.6163,2.6289,2.7702,2.8727,2.8798,2.9503,2.967,2.8878,2.8796,2.837,2.7361,2.7289,2.6814,2.5757,2.4746,2.419,2.419,2.419,2.419,2.419,2.419,2.419,2.419,2.419,2.419,2.419,2.419,2.419,2.419,2.419,2.419,2.419,2.419,2.419,2.419,2.419,2.419,2.419,2.419,2.419,2.419,2.9896,2.9848,2.9515,2.8663,2.9062,2.9194,2.8316,2.7823,2.7327,2.6755,2.5737,2.4814,2.4263,2.419,2.419,2.419,2.419,2.4094,2.3858,2.3544,2.3236,2.3021,2.3117,2.3189,2.3189,2.3189,2.3189,2.3189,2.2972,2.2797,2.2695,2.25,2.2388,2.231,2.231,2.231,2.2282,2.2135,2.2224,2.2425,2.2291,2.2167,2.2035,2.1908,2.1648,2.1313,2.0879,2.087,2.1002,2.0249,2.0183,2.0281,1.9678,1.9551,1.9859,2.0731,2.154,2.227,2.2992,2.3692,2.4151,2.3937,2.3714,2.3544,2.3544,2.33,2.3045,2.3045,2.2989,2.2933,2.2933,2.3536,2.4043,2.4147,2.5224,2.6301,2.7094,2.7993,2.8627,2.877,2.9503,2.9612,2.8619,2.8563,2.8142,2.7099,2.5976,2.5211,2.4883,2.445,2.419,2.419,2.419,2.419,2.419,2.419,2.419,2.419,2.419,2.419,2.419,2.419,2.419,2.419,2.419,2.419,2.419,2.419,2.419,2.419,2.419,2.419,2.419,2.419,2.419,2.419,2.9713,2.9644,2.942,2.8895,2.904,2.9058,2.8558,2.808,2.7622,2.7145,2.6374,2.5566,2.4759,2.4667,2.4538,2.4226,2.419,2.4074,2.3714,2.3392,2.3045,2.2721,2.2789,2.2832,2.2832,2.2832,2.2832,2.2832,2.2643,2.2537,2.2537,2.2388,2.231,2.231,2.231,2.231,2.2282,2.2106,2.2032,2.2003,2.1857,2.1705,2.1582,2.143,2.1306,2.1181,2.0748,2.0715,2.0802,2.0172,1.9966,1.9952,1.9773,1.966,1.9879,2.0911,2.167,2.2366,2.3177,2.3795,2.419,2.419,2.4054,2.3896,2.3896,2.3649,2.3392,2.3392,2.33,2.3189,2.3189,2.3554,2.3914,2.4035,2.4633,2.5423,2.6357,2.7005,2.7503,2.7774,2.847,2.8502,2.7426,2.737,2.6965,2.5912,2.493,2.4375,2.4375,2.4284,2.419,2.419,2.419,2.419,2.419,2.419,2.419,2.419,2.419,2.419,2.419,2.419,2.419,2.419,2.419,2.419,2.419,2.419,2.419,2.419,2.419,2.419,2.419,2.419,2.419,2.419,2.9713,2.9532,2.9392,2.9372,2.9178,2.8994,2.8994,2.8374,2.7879,2.7805,2.7163,2.6392,2.5605,2.5513,2.5199,2.4483,2.4317,2.4089,2.3671,2.3346,2.3021,2.2686,2.2436,2.2349,2.2349,2.2349,2.2349,2.2349,2.2377,2.2377,2.2349,2.2377,2.2349,2.231,2.2338,2.2321,2.2282,2.1823,2.1658,2.1628,2.1306,2.1368,2.1628,2.1275,2.1368,2.1628,2.1213,2.0781,2.0416,2.0382,1.9778,1.9177,1.966,1.9773,1.9978,2.1176,2.2067,2.28,2.353,2.3979,2.4247,2.4228,2.4228,2.4228,2.419,2.3958,2.3735,2.3735,2.35,2.33,2.33,2.33,2.3392,2.3692,2.3756,2.404,2.4776,2.5442,2.5944,2.6243,2.6986,2.7008,2.5813,2.5685,2.5262,2.4264,2.419,2.419,2.419,2.419,2.419,2.419,2.419,2.419,2.419,2.419,2.419,2.419,2.419,2.419,2.419,2.419,2.419,2.419,2.419,2.419,2.419,2.419,2.419,2.419,2.419,2.419,2.419,2.419,2.419,2.419,2.9494,2.9434,2.933,2.9134,2.904,2.8994,2.8994,2.8847,2.8521,2.7879,2.764,2.7236,2.6429,2.6337,2.6264,2.6098,2.5248,2.4338,2.3359,2.2996,2.2678,2.2415,2.2537,2.2625,2.2625,2.2625,2.2625,2.2625,2.2865,2.2865,2.2625,2.289,2.2747,2.231,2.2527,2.25,2.2282,2.218,2.2152,2.2163,2.2286,2.2248,2.2163,2.2286,2.2248,2.2106,2.1628,2.1399,2.1259,2.0959,2.0715,2.0583,2.0665,2.0731,2.0862,2.1736,2.2366,2.3005,2.3735,2.4299,2.4623,2.4478,2.4426,2.4393,2.4247,2.4151,2.4094,2.4094,2.4036,2.3996,2.3996,2.3996,2.4016,2.4074,2.4229,2.4595,2.5398,2.6301,2.6679,2.6128,2.7768,2.8091,2.591,2.556,2.5112,2.4245,2.419,2.419,2.419,2.419,2.419,2.419,2.419,2.419,2.419,2.419,2.419,2.419,2.419,2.419,2.419,2.419,2.419,2.419,2.419,2.419,2.419,2.419,2.419,2.419,2.419,2.419,2.419,2.419,2.419,2.419,2.9414,2.9289,2.916,2.9021,2.8994,2.8994,2.8994,2.8686,2.8411,2.8374,2.8044,2.764,2.7218,2.7163,2.6933,2.6358,2.5764,2.4891,2.3621,2.3363,2.2986,2.2327,2.2563,2.2695,2.2695,2.3021,2.3093,2.2947,2.3117,2.3117,2.2947,2.2947,2.2789,2.25,2.25,2.2426,2.231,2.231,2.231,2.231,2.2436,2.2426,2.231,2.2463,2.2281,2.1928,2.1688,2.1321,2.0959,2.0991,2.0862,2.0731,2.0926,2.1243,2.1635,2.2184,2.2845,2.3542,2.41,2.4503,2.4746,2.4561,2.4495,2.4444,2.4247,2.419,2.419,2.419,2.419,2.4228,2.4339,2.4339,2.4504,2.4981,2.5155,2.5367,2.5778,2.6209,2.6341,2.5895,2.6488,2.6411,2.5116,2.4892,2.4649,2.4226,2.419,2.419,2.419,2.419,2.419,2.419,2.419,2.4373,2.4759,2.4759,2.4961,2.5346,2.4575,2.419,2.419,2.419,2.419,2.419,2.419,2.419,2.419,2.419,2.419,2.419,2.419,2.419,2.419,2.419,2.419,2.419,2.9375,2.9225,2.9044,2.9017,2.8994,2.8994,2.8994,2.8429,2.8223,2.8814,2.832,2.7881,2.7812,2.7812,2.7349,2.6231,2.6086,2.5417,2.4004,2.3843,2.335,2.2344,2.2599,2.2797,2.2797,2.3437,2.361,2.33,2.33,2.3277,2.3189,2.2923,2.2721,2.2608,2.2453,2.2349,2.231,2.231,2.231,2.231,2.2349,2.2276,2.218,2.2248,2.1957,2.1491,2.1491,2.1039,2.0483,2.0959,2.0846,2.0601,2.1086,2.1652,2.2272,2.2591,2.3316,2.4063,2.4407,2.4639,2.4746,2.4561,2.4495,2.4444,2.4247,2.419,2.419,2.419,2.4228,2.4303,2.4461,2.464,2.5038,2.585,2.6125,2.6186,2.6155,2.6141,2.6059,2.5875,2.4985,2.4465,2.4593,2.4355,2.4263,2.4392,2.4281,2.419,2.419,2.419,2.4263,2.4392,2.441,2.4777,2.5605,2.5623,2.5933,2.6594,2.5254,2.4538,2.441,2.441,2.4318,2.419,2.419,2.419,2.419,2.419,2.419,2.419,2.419,2.419,2.419,2.419,2.419,2.419,2.9303,2.9372,2.9267,2.904,2.8994,2.8994,2.8994,2.8902,2.8735,2.8522,2.8381,2.8206,2.7932,2.7877,2.753,2.6685,2.6339,2.5547,2.3984,2.3636,2.3129,2.2344,2.2832,2.3117,2.3117,2.3795,2.3976,2.3631,2.3631,2.3482,2.3189,2.3141,2.2857,2.236,2.2563,2.2527,2.231,2.231,2.231,2.2321,2.2563,2.2258,2.1748,2.2017,2.1681,2.1086,2.1086,2.0991,2.0959,2.1368,2.1491,2.1491,2.1974,2.2347,2.2678,2.3028,2.3541,2.4063,2.4407,2.4639,2.4746,2.4561,2.4495,2.4444,2.4247,2.419,2.419,2.419,2.4339,2.4461,2.4495,2.5201,2.5831,2.5974,2.6582,2.697,2.6802,2.7364,2.7453,2.6565,2.5733,2.5511,2.6209,2.5016,2.4483,2.5201,2.4575,2.419,2.419,2.419,2.452,2.5219,2.5256,2.5621,2.6429,2.6447,2.6502,2.6612,2.6392,2.5915,2.5256,2.5256,2.485,2.419,2.419,2.419,2.419,2.419,2.419,2.419,2.419,2.419,2.419,2.419,2.419,2.4228,2.9318,2.9267,2.9071,2.8731,2.8658,2.8608,2.8412,2.8,2.7823,2.8076,2.7727,2.7584,2.7872,2.7897,2.767,2.7105,2.6892,2.626,2.4923,2.433,2.3969,2.3858,2.3884,2.3958,2.4162,2.4632,2.4492,2.3692,2.3692,2.3522,2.3189,2.3021,2.2789,2.2527,2.2473,2.2398,2.231,2.231,2.2135,2.1928,2.2034,2.1757,2.1275,2.1428,2.1101,2.0616,2.0616,2.0616,2.0715,2.1368,2.1582,2.1688,2.2135,2.2607,2.3021,2.3165,2.3707,2.4318,2.4459,2.4639,2.4746,2.4561,2.4495,2.4444,2.4247,2.419,2.4228,2.4339,2.4445,2.4559,2.4733,2.5546,2.6363,2.695,2.7632,2.8013,2.7819,2.7961,2.7732,2.6707,2.6686,2.6686,2.6612,2.5548,2.5199,2.6007,2.4905,2.4392,2.4832,2.4869,2.5035,2.5403,2.5841,2.6465,2.7255,2.7273,2.7512,2.7952,2.7952,2.7291,2.6062,2.6062,2.5878,2.5548,2.5548,2.5548,2.5511,2.5052,2.4869,2.4814,2.416,2.3917,2.3937,2.4113,2.419,2.4228]}]]